<?xml version="1.0" encoding="UTF-8" standalone="no" ?>
<gpx xmlns="http://www.topografix.com/GPX/1/1" xmlns:xsi="http://www.w3.org/2001/XMLSchema-instance" xsi:schemaLocation="http://www.topografix.com/GPX/1/1 http://www.topografix.com/GPX/1/1/gpx.xsd" version="1.1" creator="VisuGPX - https://www.visugpx.com">
  <metadata>
    <name>Petit Luberon - Les Borrys - Vallon de l'Arc - Arche les Portalas</name>
    <desc><![CDATA[grp_trc:]]></desc>
  </metadata>
  <trk>
    <name><![CDATA[14 nov. 2021]]></name>
    <cmt><![CDATA[09:02:00]]></cmt>
    <desc><![CDATA[comment ...]]></desc>
    <trkseg>
      <trkpt lat="43.75875" lon="5.23577">
        <ele>155</ele>
        <time>2021-11-14T08:02:00Z</time>
      </trkpt>
      <trkpt lat="43.75875" lon="5.23577">
        <ele>155</ele>
        <time>2021-11-14T08:02:01Z</time>
      </trkpt>
      <trkpt lat="43.7588" lon="5.23582">
        <ele>153</ele>
        <time>2021-11-14T08:02:07Z</time>
      </trkpt>
      <trkpt lat="43.75888" lon="5.23607">
        <ele>153</ele>
        <time>2021-11-14T08:02:19Z</time>
      </trkpt>
      <trkpt lat="43.75888" lon="5.23613">
        <ele>154</ele>
        <time>2021-11-14T08:02:22Z</time>
      </trkpt>
      <trkpt lat="43.75888" lon="5.2362">
        <ele>154</ele>
        <time>2021-11-14T08:02:25Z</time>
      </trkpt>
      <trkpt lat="43.7589" lon="5.23628">
        <ele>152</ele>
        <time>2021-11-14T08:02:29Z</time>
      </trkpt>
      <trkpt lat="43.75899" lon="5.23643">
        <ele>150</ele>
        <time>2021-11-14T08:02:39Z</time>
      </trkpt>
      <trkpt lat="43.75903" lon="5.23647">
        <ele>149</ele>
        <time>2021-11-14T08:02:42Z</time>
      </trkpt>
      <trkpt lat="43.75905" lon="5.23652">
        <ele>149</ele>
        <time>2021-11-14T08:02:45Z</time>
      </trkpt>
      <trkpt lat="43.75916" lon="5.23667">
        <ele>149</ele>
        <time>2021-11-14T08:02:57Z</time>
      </trkpt>
      <trkpt lat="43.75946" lon="5.23706">
        <ele>156</ele>
        <time>2021-11-14T08:03:29Z</time>
      </trkpt>
      <trkpt lat="43.75962" lon="5.23724">
        <ele>154</ele>
        <time>2021-11-14T08:03:45Z</time>
      </trkpt>
      <trkpt lat="43.75968" lon="5.23731">
        <ele>155</ele>
        <time>2021-11-14T08:03:51Z</time>
      </trkpt>
      <trkpt lat="43.75982" lon="5.23741">
        <ele>158</ele>
        <time>2021-11-14T08:04:03Z</time>
      </trkpt>
      <trkpt lat="43.75985" lon="5.23744">
        <ele>157</ele>
        <time>2021-11-14T08:04:06Z</time>
      </trkpt>
      <trkpt lat="43.76019" lon="5.23769">
        <ele>155</ele>
        <time>2021-11-14T08:04:36Z</time>
      </trkpt>
      <trkpt lat="43.76026" lon="5.23774">
        <ele>155</ele>
        <time>2021-11-14T08:04:42Z</time>
      </trkpt>
      <trkpt lat="43.76037" lon="5.23782">
        <ele>157</ele>
        <time>2021-11-14T08:04:52Z</time>
      </trkpt>
      <trkpt lat="43.76044" lon="5.23787">
        <ele>156</ele>
        <time>2021-11-14T08:04:58Z</time>
      </trkpt>
      <trkpt lat="43.76047" lon="5.2379">
        <ele>156</ele>
        <time>2021-11-14T08:05:01Z</time>
      </trkpt>
      <trkpt lat="43.7605" lon="5.23794">
        <ele>157</ele>
        <time>2021-11-14T08:05:04Z</time>
      </trkpt>
      <trkpt lat="43.76057" lon="5.23799">
        <ele>158</ele>
        <time>2021-11-14T08:05:10Z</time>
      </trkpt>
      <trkpt lat="43.76094" lon="5.23823">
        <ele>162</ele>
        <time>2021-11-14T08:05:41Z</time>
      </trkpt>
      <trkpt lat="43.76101" lon="5.23827">
        <ele>161</ele>
        <time>2021-11-14T08:05:47Z</time>
      </trkpt>
      <trkpt lat="43.76104" lon="5.23828">
        <ele>161</ele>
        <time>2021-11-14T08:05:50Z</time>
      </trkpt>
      <trkpt lat="43.76108" lon="5.23831">
        <ele>160</ele>
        <time>2021-11-14T08:05:53Z</time>
      </trkpt>
      <trkpt lat="43.76112" lon="5.23831">
        <ele>161</ele>
        <time>2021-11-14T08:05:56Z</time>
      </trkpt>
      <trkpt lat="43.76119" lon="5.23835">
        <ele>159</ele>
        <time>2021-11-14T08:06:02Z</time>
      </trkpt>
      <trkpt lat="43.76123" lon="5.23838">
        <ele>158</ele>
        <time>2021-11-14T08:06:05Z</time>
      </trkpt>
      <trkpt lat="43.76126" lon="5.2384">
        <ele>157</ele>
        <time>2021-11-14T08:06:08Z</time>
      </trkpt>
      <trkpt lat="43.76141" lon="5.23849">
        <ele>154</ele>
        <time>2021-11-14T08:06:20Z</time>
      </trkpt>
      <trkpt lat="43.76146" lon="5.23849">
        <ele>153</ele>
        <time>2021-11-14T08:06:23Z</time>
      </trkpt>
      <trkpt lat="43.76149" lon="5.23853">
        <ele>154</ele>
        <time>2021-11-14T08:06:25Z</time>
      </trkpt>
      <trkpt lat="43.76152" lon="5.23857">
        <ele>156</ele>
        <time>2021-11-14T08:06:27Z</time>
      </trkpt>
      <trkpt lat="43.76156" lon="5.23859">
        <ele>157</ele>
        <time>2021-11-14T08:06:30Z</time>
      </trkpt>
      <trkpt lat="43.76173" lon="5.23865">
        <ele>161</ele>
        <time>2021-11-14T08:06:42Z</time>
      </trkpt>
      <trkpt lat="43.76177" lon="5.23865">
        <ele>163</ele>
        <time>2021-11-14T08:06:45Z</time>
      </trkpt>
      <trkpt lat="43.76181" lon="5.23867">
        <ele>163</ele>
        <time>2021-11-14T08:06:48Z</time>
      </trkpt>
      <trkpt lat="43.76189" lon="5.23869">
        <ele>165</ele>
        <time>2021-11-14T08:06:54Z</time>
      </trkpt>
      <trkpt lat="43.76197" lon="5.2387">
        <ele>166</ele>
        <time>2021-11-14T08:07:00Z</time>
      </trkpt>
      <trkpt lat="43.76211" lon="5.23868">
        <ele>168</ele>
        <time>2021-11-14T08:07:10Z</time>
      </trkpt>
      <trkpt lat="43.76219" lon="5.23866">
        <ele>170</ele>
        <time>2021-11-14T08:07:16Z</time>
      </trkpt>
      <trkpt lat="43.76237" lon="5.23872">
        <ele>171</ele>
        <time>2021-11-14T08:07:28Z</time>
      </trkpt>
      <trkpt lat="43.76241" lon="5.23876">
        <ele>172</ele>
        <time>2021-11-14T08:07:31Z</time>
      </trkpt>
      <trkpt lat="43.76248" lon="5.23885">
        <ele>174</ele>
        <time>2021-11-14T08:07:37Z</time>
      </trkpt>
      <trkpt lat="43.76252" lon="5.23895">
        <ele>174</ele>
        <time>2021-11-14T08:07:42Z</time>
      </trkpt>
      <trkpt lat="43.76256" lon="5.23905">
        <ele>172</ele>
        <time>2021-11-14T08:07:47Z</time>
      </trkpt>
      <trkpt lat="43.76259" lon="5.2391">
        <ele>172</ele>
        <time>2021-11-14T08:07:50Z</time>
      </trkpt>
      <trkpt lat="43.76266" lon="5.23927">
        <ele>170</ele>
        <time>2021-11-14T08:07:59Z</time>
      </trkpt>
      <trkpt lat="43.76269" lon="5.23931">
        <ele>169</ele>
        <time>2021-11-14T08:08:02Z</time>
      </trkpt>
      <trkpt lat="43.76272" lon="5.23934">
        <ele>170</ele>
        <time>2021-11-14T08:08:05Z</time>
      </trkpt>
      <trkpt lat="43.76285" lon="5.23943">
        <ele>174</ele>
        <time>2021-11-14T08:08:17Z</time>
      </trkpt>
      <trkpt lat="43.76293" lon="5.23946">
        <ele>175</ele>
        <time>2021-11-14T08:08:23Z</time>
      </trkpt>
      <trkpt lat="43.76297" lon="5.23946">
        <ele>175</ele>
        <time>2021-11-14T08:08:26Z</time>
      </trkpt>
      <trkpt lat="43.76301" lon="5.23946">
        <ele>176</ele>
        <time>2021-11-14T08:08:29Z</time>
      </trkpt>
      <trkpt lat="43.76322" lon="5.23948">
        <ele>182</ele>
        <time>2021-11-14T08:08:44Z</time>
      </trkpt>
      <trkpt lat="43.76346" lon="5.23959">
        <ele>173</ele>
        <time>2021-11-14T08:09:02Z</time>
      </trkpt>
      <trkpt lat="43.76353" lon="5.23965">
        <ele>175</ele>
        <time>2021-11-14T08:09:08Z</time>
      </trkpt>
      <trkpt lat="43.76357" lon="5.23966">
        <ele>174</ele>
        <time>2021-11-14T08:09:11Z</time>
      </trkpt>
      <trkpt lat="43.76361" lon="5.23967">
        <ele>174</ele>
        <time>2021-11-14T08:09:14Z</time>
      </trkpt>
      <trkpt lat="43.76366" lon="5.23969">
        <ele>178</ele>
        <time>2021-11-14T08:09:17Z</time>
      </trkpt>
      <trkpt lat="43.76371" lon="5.23971">
        <ele>179</ele>
        <time>2021-11-14T08:09:20Z</time>
      </trkpt>
      <trkpt lat="43.76415" lon="5.2399">
        <ele>181</ele>
        <time>2021-11-14T08:09:50Z</time>
      </trkpt>
      <trkpt lat="43.76423" lon="5.23994">
        <ele>182</ele>
        <time>2021-11-14T08:09:56Z</time>
      </trkpt>
      <trkpt lat="43.76431" lon="5.23995">
        <ele>182</ele>
        <time>2021-11-14T08:10:02Z</time>
      </trkpt>
      <trkpt lat="43.76435" lon="5.23997">
        <ele>182</ele>
        <time>2021-11-14T08:10:05Z</time>
      </trkpt>
      <trkpt lat="43.76443" lon="5.24001">
        <ele>184</ele>
        <time>2021-11-14T08:10:11Z</time>
      </trkpt>
      <trkpt lat="43.76442" lon="5.24006">
        <ele>184</ele>
        <time>2021-11-14T08:10:40Z</time>
      </trkpt>
      <trkpt lat="43.76446" lon="5.24005">
        <ele>181</ele>
        <time>2021-11-14T08:11:35Z</time>
      </trkpt>
      <trkpt lat="43.7645" lon="5.24005">
        <ele>182</ele>
        <time>2021-11-14T08:11:39Z</time>
      </trkpt>
      <trkpt lat="43.76459" lon="5.24007">
        <ele>184</ele>
        <time>2021-11-14T08:11:46Z</time>
      </trkpt>
      <trkpt lat="43.76468" lon="5.24009">
        <ele>183</ele>
        <time>2021-11-14T08:11:52Z</time>
      </trkpt>
      <trkpt lat="43.76518" lon="5.24019">
        <ele>177</ele>
        <time>2021-11-14T08:12:23Z</time>
      </trkpt>
      <trkpt lat="43.76529" lon="5.24024">
        <ele>179</ele>
        <time>2021-11-14T08:12:31Z</time>
      </trkpt>
      <trkpt lat="43.76546" lon="5.24033">
        <ele>179</ele>
        <time>2021-11-14T08:12:43Z</time>
      </trkpt>
      <trkpt lat="43.76562" lon="5.24039">
        <ele>184</ele>
        <time>2021-11-14T08:12:55Z</time>
      </trkpt>
      <trkpt lat="43.76587" lon="5.24047">
        <ele>184</ele>
        <time>2021-11-14T08:13:13Z</time>
      </trkpt>
      <trkpt lat="43.76595" lon="5.24051">
        <ele>189</ele>
        <time>2021-11-14T08:13:19Z</time>
      </trkpt>
      <trkpt lat="43.76601" lon="5.24061">
        <ele>190</ele>
        <time>2021-11-14T08:13:25Z</time>
      </trkpt>
      <trkpt lat="43.76602" lon="5.24067">
        <ele>191</ele>
        <time>2021-11-14T08:13:28Z</time>
      </trkpt>
      <trkpt lat="43.76606" lon="5.24078">
        <ele>193</ele>
        <time>2021-11-14T08:13:34Z</time>
      </trkpt>
      <trkpt lat="43.76608" lon="5.24082">
        <ele>193</ele>
        <time>2021-11-14T08:13:37Z</time>
      </trkpt>
      <trkpt lat="43.76609" lon="5.24087">
        <ele>192</ele>
        <time>2021-11-14T08:13:40Z</time>
      </trkpt>
      <trkpt lat="43.76613" lon="5.24091">
        <ele>190</ele>
        <time>2021-11-14T08:13:43Z</time>
      </trkpt>
      <trkpt lat="43.76615" lon="5.24096">
        <ele>190</ele>
        <time>2021-11-14T08:13:46Z</time>
      </trkpt>
      <trkpt lat="43.76617" lon="5.24101">
        <ele>189</ele>
        <time>2021-11-14T08:13:49Z</time>
      </trkpt>
      <trkpt lat="43.76627" lon="5.24117">
        <ele>187</ele>
        <time>2021-11-14T08:14:01Z</time>
      </trkpt>
      <trkpt lat="43.7663" lon="5.24121">
        <ele>186</ele>
        <time>2021-11-14T08:14:04Z</time>
      </trkpt>
      <trkpt lat="43.76633" lon="5.24123">
        <ele>189</ele>
        <time>2021-11-14T08:14:07Z</time>
      </trkpt>
      <trkpt lat="43.76637" lon="5.24126">
        <ele>189</ele>
        <time>2021-11-14T08:14:11Z</time>
      </trkpt>
      <trkpt lat="43.7664" lon="5.24127">
        <ele>189</ele>
        <time>2021-11-14T08:14:16Z</time>
      </trkpt>
      <trkpt lat="43.76644" lon="5.24128">
        <ele>190</ele>
        <time>2021-11-14T08:14:20Z</time>
      </trkpt>
      <trkpt lat="43.76647" lon="5.24145">
        <ele>191</ele>
        <time>2021-11-14T08:14:31Z</time>
      </trkpt>
      <trkpt lat="43.76647" lon="5.24149">
        <ele>193</ele>
        <time>2021-11-14T08:14:34Z</time>
      </trkpt>
      <trkpt lat="43.76647" lon="5.24154">
        <ele>196</ele>
        <time>2021-11-14T08:14:38Z</time>
      </trkpt>
      <trkpt lat="43.76649" lon="5.2416">
        <ele>197</ele>
        <time>2021-11-14T08:14:42Z</time>
      </trkpt>
      <trkpt lat="43.76649" lon="5.24166">
        <ele>199</ele>
        <time>2021-11-14T08:14:46Z</time>
      </trkpt>
      <trkpt lat="43.76653" lon="5.24175">
        <ele>202</ele>
        <time>2021-11-14T08:14:53Z</time>
      </trkpt>
      <trkpt lat="43.76655" lon="5.2418">
        <ele>202</ele>
        <time>2021-11-14T08:14:57Z</time>
      </trkpt>
      <trkpt lat="43.76661" lon="5.2419">
        <ele>204</ele>
        <time>2021-11-14T08:15:05Z</time>
      </trkpt>
      <trkpt lat="43.76662" lon="5.24194">
        <ele>204</ele>
        <time>2021-11-14T08:15:08Z</time>
      </trkpt>
      <trkpt lat="43.76665" lon="5.24197">
        <ele>205</ele>
        <time>2021-11-14T08:15:12Z</time>
      </trkpt>
      <trkpt lat="43.76667" lon="5.24202">
        <ele>206</ele>
        <time>2021-11-14T08:15:15Z</time>
      </trkpt>
      <trkpt lat="43.7667" lon="5.24205">
        <ele>207</ele>
        <time>2021-11-14T08:15:19Z</time>
      </trkpt>
      <trkpt lat="43.76673" lon="5.24208">
        <ele>208</ele>
        <time>2021-11-14T08:15:22Z</time>
      </trkpt>
      <trkpt lat="43.76682" lon="5.2421">
        <ele>208</ele>
        <time>2021-11-14T08:15:30Z</time>
      </trkpt>
      <trkpt lat="43.76692" lon="5.24217">
        <ele>206</ele>
        <time>2021-11-14T08:15:41Z</time>
      </trkpt>
      <trkpt lat="43.76696" lon="5.24218">
        <ele>210</ele>
        <time>2021-11-14T08:15:44Z</time>
      </trkpt>
      <trkpt lat="43.767" lon="5.24219">
        <ele>211</ele>
        <time>2021-11-14T08:15:47Z</time>
      </trkpt>
      <trkpt lat="43.76707" lon="5.24224">
        <ele>215</ele>
        <time>2021-11-14T08:15:54Z</time>
      </trkpt>
      <trkpt lat="43.76711" lon="5.24226">
        <ele>216</ele>
        <time>2021-11-14T08:15:57Z</time>
      </trkpt>
      <trkpt lat="43.76723" lon="5.24225">
        <ele>216</ele>
        <time>2021-11-14T08:16:08Z</time>
      </trkpt>
      <trkpt lat="43.76731" lon="5.24228">
        <ele>214</ele>
        <time>2021-11-14T08:16:15Z</time>
      </trkpt>
      <trkpt lat="43.76739" lon="5.2424">
        <ele>215</ele>
        <time>2021-11-14T08:16:24Z</time>
      </trkpt>
      <trkpt lat="43.76741" lon="5.24244">
        <ele>216</ele>
        <time>2021-11-14T08:16:27Z</time>
      </trkpt>
      <trkpt lat="43.7674" lon="5.2425">
        <ele>216</ele>
        <time>2021-11-14T08:16:31Z</time>
      </trkpt>
      <trkpt lat="43.76735" lon="5.24258">
        <ele>216</ele>
        <time>2021-11-14T08:16:37Z</time>
      </trkpt>
      <trkpt lat="43.76733" lon="5.24269">
        <ele>216</ele>
        <time>2021-11-14T08:16:43Z</time>
      </trkpt>
      <trkpt lat="43.76735" lon="5.24274">
        <ele>215</ele>
        <time>2021-11-14T08:16:46Z</time>
      </trkpt>
      <trkpt lat="43.7674" lon="5.24275">
        <ele>215</ele>
        <time>2021-11-14T08:16:50Z</time>
      </trkpt>
      <trkpt lat="43.76752" lon="5.2426">
        <ele>216</ele>
        <time>2021-11-14T08:17:06Z</time>
      </trkpt>
      <trkpt lat="43.7676" lon="5.24252">
        <ele>215</ele>
        <time>2021-11-14T08:17:13Z</time>
      </trkpt>
      <trkpt lat="43.76764" lon="5.24243">
        <ele>212</ele>
        <time>2021-11-14T08:17:21Z</time>
      </trkpt>
      <trkpt lat="43.76768" lon="5.24241">
        <ele>211</ele>
        <time>2021-11-14T08:17:25Z</time>
      </trkpt>
      <trkpt lat="43.7677" lon="5.24238">
        <ele>211</ele>
        <time>2021-11-14T08:17:28Z</time>
      </trkpt>
      <trkpt lat="43.76774" lon="5.24237">
        <ele>215</ele>
        <time>2021-11-14T08:17:32Z</time>
      </trkpt>
      <trkpt lat="43.76777" lon="5.24242">
        <ele>218</ele>
        <time>2021-11-14T08:17:35Z</time>
      </trkpt>
      <trkpt lat="43.76779" lon="5.24246">
        <ele>219</ele>
        <time>2021-11-14T08:17:38Z</time>
      </trkpt>
      <trkpt lat="43.7678" lon="5.24251">
        <ele>219</ele>
        <time>2021-11-14T08:17:42Z</time>
      </trkpt>
      <trkpt lat="43.76785" lon="5.24261">
        <ele>222</ele>
        <time>2021-11-14T08:17:48Z</time>
      </trkpt>
      <trkpt lat="43.76797" lon="5.24281">
        <ele>234</ele>
        <time>2021-11-14T08:18:03Z</time>
      </trkpt>
      <trkpt lat="43.768" lon="5.24285">
        <ele>231</ele>
        <time>2021-11-14T08:18:06Z</time>
      </trkpt>
      <trkpt lat="43.76804" lon="5.24286">
        <ele>232</ele>
        <time>2021-11-14T08:18:09Z</time>
      </trkpt>
      <trkpt lat="43.76815" lon="5.24303">
        <ele>234</ele>
        <time>2021-11-14T08:18:21Z</time>
      </trkpt>
      <trkpt lat="43.7682" lon="5.24311">
        <ele>234</ele>
        <time>2021-11-14T08:18:27Z</time>
      </trkpt>
      <trkpt lat="43.76822" lon="5.24315">
        <ele>237</ele>
        <time>2021-11-14T08:18:30Z</time>
      </trkpt>
      <trkpt lat="43.76825" lon="5.24319">
        <ele>238</ele>
        <time>2021-11-14T08:18:33Z</time>
      </trkpt>
      <trkpt lat="43.76826" lon="5.24324">
        <ele>239</ele>
        <time>2021-11-14T08:18:36Z</time>
      </trkpt>
      <trkpt lat="43.76828" lon="5.24346">
        <ele>237</ele>
        <time>2021-11-14T08:18:48Z</time>
      </trkpt>
      <trkpt lat="43.76829" lon="5.24351">
        <ele>235</ele>
        <time>2021-11-14T08:18:51Z</time>
      </trkpt>
      <trkpt lat="43.76831" lon="5.24357">
        <ele>235</ele>
        <time>2021-11-14T08:18:55Z</time>
      </trkpt>
      <trkpt lat="43.76835" lon="5.24367">
        <ele>237</ele>
        <time>2021-11-14T08:19:02Z</time>
      </trkpt>
      <trkpt lat="43.7684" lon="5.24375">
        <ele>242</ele>
        <time>2021-11-14T08:19:09Z</time>
      </trkpt>
      <trkpt lat="43.76845" lon="5.24389">
        <ele>241</ele>
        <time>2021-11-14T08:19:19Z</time>
      </trkpt>
      <trkpt lat="43.7685" lon="5.24398">
        <ele>244</ele>
        <time>2021-11-14T08:19:26Z</time>
      </trkpt>
      <trkpt lat="43.76852" lon="5.24402">
        <ele>246</ele>
        <time>2021-11-14T08:19:29Z</time>
      </trkpt>
      <trkpt lat="43.76853" lon="5.24407">
        <ele>246</ele>
        <time>2021-11-14T08:19:32Z</time>
      </trkpt>
      <trkpt lat="43.76852" lon="5.24419">
        <ele>245</ele>
        <time>2021-11-14T08:19:38Z</time>
      </trkpt>
      <trkpt lat="43.76853" lon="5.24426">
        <ele>242</ele>
        <time>2021-11-14T08:19:41Z</time>
      </trkpt>
      <trkpt lat="43.76852" lon="5.24432">
        <ele>242</ele>
        <time>2021-11-14T08:19:44Z</time>
      </trkpt>
      <trkpt lat="43.76851" lon="5.24438">
        <ele>240</ele>
        <time>2021-11-14T08:19:47Z</time>
      </trkpt>
      <trkpt lat="43.76846" lon="5.24448">
        <ele>237</ele>
        <time>2021-11-14T08:19:53Z</time>
      </trkpt>
      <trkpt lat="43.76844" lon="5.24453">
        <ele>236</ele>
        <time>2021-11-14T08:19:56Z</time>
      </trkpt>
      <trkpt lat="43.76843" lon="5.24459">
        <ele>236</ele>
        <time>2021-11-14T08:19:59Z</time>
      </trkpt>
      <trkpt lat="43.76842" lon="5.2447">
        <ele>237</ele>
        <time>2021-11-14T08:20:05Z</time>
      </trkpt>
      <trkpt lat="43.76843" lon="5.24486">
        <ele>238</ele>
        <time>2021-11-14T08:20:14Z</time>
      </trkpt>
      <trkpt lat="43.7685" lon="5.2451">
        <ele>239</ele>
        <time>2021-11-14T08:20:29Z</time>
      </trkpt>
      <trkpt lat="43.76859" lon="5.24522">
        <ele>240</ele>
        <time>2021-11-14T08:20:38Z</time>
      </trkpt>
      <trkpt lat="43.76862" lon="5.24526">
        <ele>240</ele>
        <time>2021-11-14T08:20:41Z</time>
      </trkpt>
      <trkpt lat="43.76872" lon="5.2455">
        <ele>239</ele>
        <time>2021-11-14T08:20:57Z</time>
      </trkpt>
      <trkpt lat="43.76874" lon="5.24554">
        <ele>240</ele>
        <time>2021-11-14T08:21:00Z</time>
      </trkpt>
      <trkpt lat="43.76881" lon="5.24559">
        <ele>238</ele>
        <time>2021-11-14T08:21:07Z</time>
      </trkpt>
      <trkpt lat="43.76884" lon="5.24563">
        <ele>239</ele>
        <time>2021-11-14T08:21:10Z</time>
      </trkpt>
      <trkpt lat="43.76892" lon="5.24568">
        <ele>240</ele>
        <time>2021-11-14T08:21:18Z</time>
      </trkpt>
      <trkpt lat="43.76899" lon="5.24577">
        <ele>239</ele>
        <time>2021-11-14T08:21:25Z</time>
      </trkpt>
      <trkpt lat="43.76901" lon="5.24581">
        <ele>240</ele>
        <time>2021-11-14T08:21:28Z</time>
      </trkpt>
      <trkpt lat="43.76911" lon="5.24589">
        <ele>242</ele>
        <time>2021-11-14T08:21:37Z</time>
      </trkpt>
      <trkpt lat="43.76941" lon="5.24626">
        <ele>242</ele>
        <time>2021-11-14T08:22:07Z</time>
      </trkpt>
      <trkpt lat="43.76948" lon="5.24634">
        <ele>240</ele>
        <time>2021-11-14T08:22:14Z</time>
      </trkpt>
      <trkpt lat="43.76952" lon="5.24636">
        <ele>240</ele>
        <time>2021-11-14T08:22:17Z</time>
      </trkpt>
      <trkpt lat="43.76955" lon="5.24637">
        <ele>241</ele>
        <time>2021-11-14T08:22:20Z</time>
      </trkpt>
      <trkpt lat="43.76962" lon="5.24641">
        <ele>242</ele>
        <time>2021-11-14T08:22:26Z</time>
      </trkpt>
      <trkpt lat="43.76966" lon="5.24643">
        <ele>242</ele>
        <time>2021-11-14T08:22:29Z</time>
      </trkpt>
      <trkpt lat="43.76969" lon="5.24647">
        <ele>243</ele>
        <time>2021-11-14T08:22:33Z</time>
      </trkpt>
      <trkpt lat="43.76973" lon="5.2465">
        <ele>243</ele>
        <time>2021-11-14T08:22:36Z</time>
      </trkpt>
      <trkpt lat="43.76993" lon="5.24678">
        <ele>254</ele>
        <time>2021-11-14T08:23:00Z</time>
      </trkpt>
      <trkpt lat="43.76997" lon="5.24686">
        <ele>256</ele>
        <time>2021-11-14T08:23:06Z</time>
      </trkpt>
      <trkpt lat="43.76998" lon="5.24693">
        <ele>257</ele>
        <time>2021-11-14T08:23:10Z</time>
      </trkpt>
      <trkpt lat="43.76992" lon="5.24707">
        <ele>254</ele>
        <time>2021-11-14T08:23:19Z</time>
      </trkpt>
      <trkpt lat="43.76991" lon="5.24712">
        <ele>254</ele>
        <time>2021-11-14T08:23:22Z</time>
      </trkpt>
      <trkpt lat="43.76986" lon="5.24722">
        <ele>254</ele>
        <time>2021-11-14T08:23:28Z</time>
      </trkpt>
      <trkpt lat="43.76977" lon="5.24742">
        <ele>252</ele>
        <time>2021-11-14T08:23:40Z</time>
      </trkpt>
      <trkpt lat="43.76975" lon="5.24747">
        <ele>252</ele>
        <time>2021-11-14T08:23:43Z</time>
      </trkpt>
      <trkpt lat="43.76972" lon="5.24752">
        <ele>253</ele>
        <time>2021-11-14T08:23:46Z</time>
      </trkpt>
      <trkpt lat="43.76969" lon="5.24756">
        <ele>253</ele>
        <time>2021-11-14T08:23:49Z</time>
      </trkpt>
      <trkpt lat="43.76967" lon="5.24761">
        <ele>252</ele>
        <time>2021-11-14T08:23:52Z</time>
      </trkpt>
      <trkpt lat="43.76962" lon="5.24769">
        <ele>252</ele>
        <time>2021-11-14T08:23:58Z</time>
      </trkpt>
      <trkpt lat="43.76946" lon="5.24808">
        <ele>250</ele>
        <time>2021-11-14T08:24:19Z</time>
      </trkpt>
      <trkpt lat="43.76944" lon="5.24814">
        <ele>251</ele>
        <time>2021-11-14T08:24:22Z</time>
      </trkpt>
      <trkpt lat="43.76926" lon="5.2487">
        <ele>255</ele>
        <time>2021-11-14T08:24:52Z</time>
      </trkpt>
      <trkpt lat="43.7692" lon="5.24887">
        <ele>254</ele>
        <time>2021-11-14T08:25:01Z</time>
      </trkpt>
      <trkpt lat="43.76917" lon="5.24897">
        <ele>254</ele>
        <time>2021-11-14T08:25:06Z</time>
      </trkpt>
      <trkpt lat="43.76906" lon="5.24936">
        <ele>255</ele>
        <time>2021-11-14T08:25:27Z</time>
      </trkpt>
      <trkpt lat="43.76904" lon="5.24942">
        <ele>255</ele>
        <time>2021-11-14T08:25:30Z</time>
      </trkpt>
      <trkpt lat="43.76894" lon="5.24982">
        <ele>255</ele>
        <time>2021-11-14T08:25:51Z</time>
      </trkpt>
      <trkpt lat="43.76893" lon="5.24988">
        <ele>255</ele>
        <time>2021-11-14T08:25:54Z</time>
      </trkpt>
      <trkpt lat="43.76892" lon="5.24994">
        <ele>256</ele>
        <time>2021-11-14T08:25:57Z</time>
      </trkpt>
      <trkpt lat="43.76891" lon="5.2503">
        <ele>255</ele>
        <time>2021-11-14T08:26:15Z</time>
      </trkpt>
      <trkpt lat="43.76894" lon="5.25048">
        <ele>253</ele>
        <time>2021-11-14T08:26:24Z</time>
      </trkpt>
      <trkpt lat="43.76896" lon="5.25053">
        <ele>253</ele>
        <time>2021-11-14T08:26:27Z</time>
      </trkpt>
      <trkpt lat="43.76901" lon="5.25063">
        <ele>255</ele>
        <time>2021-11-14T08:26:33Z</time>
      </trkpt>
      <trkpt lat="43.76904" lon="5.25066">
        <ele>254</ele>
        <time>2021-11-14T08:26:36Z</time>
      </trkpt>
      <trkpt lat="43.76938" lon="5.25092">
        <ele>250</ele>
        <time>2021-11-14T08:27:03Z</time>
      </trkpt>
      <trkpt lat="43.76942" lon="5.25094">
        <ele>250</ele>
        <time>2021-11-14T08:27:06Z</time>
      </trkpt>
      <trkpt lat="43.76955" lon="5.25097">
        <ele>249</ele>
        <time>2021-11-14T08:27:15Z</time>
      </trkpt>
      <trkpt lat="43.76959" lon="5.25099">
        <ele>248</ele>
        <time>2021-11-14T08:27:18Z</time>
      </trkpt>
      <trkpt lat="43.76971" lon="5.25103">
        <ele>247</ele>
        <time>2021-11-14T08:27:25Z</time>
      </trkpt>
      <trkpt lat="43.76975" lon="5.25105">
        <ele>247</ele>
        <time>2021-11-14T08:27:28Z</time>
      </trkpt>
      <trkpt lat="43.76984" lon="5.25107">
        <ele>246</ele>
        <time>2021-11-14T08:27:34Z</time>
      </trkpt>
      <trkpt lat="43.76993" lon="5.25103">
        <ele>249</ele>
        <time>2021-11-14T08:27:40Z</time>
      </trkpt>
      <trkpt lat="43.76997" lon="5.25101">
        <ele>250</ele>
        <time>2021-11-14T08:27:43Z</time>
      </trkpt>
      <trkpt lat="43.77001" lon="5.25098">
        <ele>251</ele>
        <time>2021-11-14T08:27:46Z</time>
      </trkpt>
      <trkpt lat="43.77028" lon="5.25086">
        <ele>251</ele>
        <time>2021-11-14T08:28:04Z</time>
      </trkpt>
      <trkpt lat="43.77046" lon="5.25086">
        <ele>252</ele>
        <time>2021-11-14T08:28:16Z</time>
      </trkpt>
      <trkpt lat="43.7707" lon="5.25092">
        <ele>251</ele>
        <time>2021-11-14T08:28:31Z</time>
      </trkpt>
      <trkpt lat="43.77078" lon="5.25093">
        <ele>246</ele>
        <time>2021-11-14T08:28:37Z</time>
      </trkpt>
      <trkpt lat="43.77101" lon="5.25103">
        <ele>244</ele>
        <time>2021-11-14T08:28:51Z</time>
      </trkpt>
      <trkpt lat="43.77107" lon="5.25108">
        <ele>240</ele>
        <time>2021-11-14T08:28:55Z</time>
      </trkpt>
      <trkpt lat="43.77123" lon="5.25128">
        <ele>235</ele>
        <time>2021-11-14T08:29:08Z</time>
      </trkpt>
      <trkpt lat="43.77129" lon="5.25138">
        <ele>235</ele>
        <time>2021-11-14T08:29:14Z</time>
      </trkpt>
      <trkpt lat="43.77134" lon="5.25141">
        <ele>235</ele>
        <time>2021-11-14T08:29:17Z</time>
      </trkpt>
      <trkpt lat="43.77142" lon="5.25146">
        <ele>237</ele>
        <time>2021-11-14T08:29:23Z</time>
      </trkpt>
      <trkpt lat="43.77146" lon="5.25148">
        <ele>237</ele>
        <time>2021-11-14T08:29:26Z</time>
      </trkpt>
      <trkpt lat="43.7715" lon="5.25151">
        <ele>239</ele>
        <time>2021-11-14T08:29:29Z</time>
      </trkpt>
      <trkpt lat="43.77164" lon="5.2515">
        <ele>240</ele>
        <time>2021-11-14T08:29:38Z</time>
      </trkpt>
      <trkpt lat="43.77177" lon="5.25147">
        <ele>245</ele>
        <time>2021-11-14T08:29:47Z</time>
      </trkpt>
      <trkpt lat="43.77185" lon="5.25152">
        <ele>246</ele>
        <time>2021-11-14T08:29:53Z</time>
      </trkpt>
      <trkpt lat="43.77189" lon="5.25155">
        <ele>246</ele>
        <time>2021-11-14T08:29:56Z</time>
      </trkpt>
      <trkpt lat="43.77228" lon="5.25183">
        <ele>242</ele>
        <time>2021-11-14T08:30:26Z</time>
      </trkpt>
      <trkpt lat="43.77232" lon="5.25184">
        <ele>243</ele>
        <time>2021-11-14T08:30:29Z</time>
      </trkpt>
      <trkpt lat="43.77236" lon="5.25183">
        <ele>243</ele>
        <time>2021-11-14T08:30:32Z</time>
      </trkpt>
      <trkpt lat="43.77266" lon="5.25189">
        <ele>249</ele>
        <time>2021-11-14T08:30:53Z</time>
      </trkpt>
      <trkpt lat="43.77271" lon="5.2519">
        <ele>250</ele>
        <time>2021-11-14T08:30:56Z</time>
      </trkpt>
      <trkpt lat="43.77275" lon="5.25191">
        <ele>251</ele>
        <time>2021-11-14T08:30:59Z</time>
      </trkpt>
      <trkpt lat="43.77278" lon="5.25195">
        <ele>250</ele>
        <time>2021-11-14T08:31:01Z</time>
      </trkpt>
      <trkpt lat="43.77316" lon="5.25209">
        <ele>250</ele>
        <time>2021-11-14T08:31:28Z</time>
      </trkpt>
      <trkpt lat="43.77325" lon="5.25208">
        <ele>248</ele>
        <time>2021-11-14T08:31:36Z</time>
      </trkpt>
      <trkpt lat="43.77341" lon="5.25192">
        <ele>243</ele>
        <time>2021-11-14T08:31:54Z</time>
      </trkpt>
      <trkpt lat="43.77349" lon="5.25185">
        <ele>240</ele>
        <time>2021-11-14T08:32:01Z</time>
      </trkpt>
      <trkpt lat="43.77359" lon="5.25185">
        <ele>241</ele>
        <time>2021-11-14T08:32:08Z</time>
      </trkpt>
      <trkpt lat="43.77368" lon="5.25187">
        <ele>243</ele>
        <time>2021-11-14T08:32:14Z</time>
      </trkpt>
      <trkpt lat="43.77378" lon="5.25188">
        <ele>249</ele>
        <time>2021-11-14T08:32:20Z</time>
      </trkpt>
      <trkpt lat="43.77397" lon="5.25186">
        <ele>250</ele>
        <time>2021-11-14T08:32:34Z</time>
      </trkpt>
      <trkpt lat="43.77406" lon="5.25185">
        <ele>251</ele>
        <time>2021-11-14T08:32:41Z</time>
      </trkpt>
      <trkpt lat="43.77416" lon="5.25183">
        <ele>253</ele>
        <time>2021-11-14T08:32:49Z</time>
      </trkpt>
      <trkpt lat="43.77426" lon="5.25185">
        <ele>254</ele>
        <time>2021-11-14T08:32:56Z</time>
      </trkpt>
      <trkpt lat="43.77436" lon="5.25188">
        <ele>256</ele>
        <time>2021-11-14T08:33:02Z</time>
      </trkpt>
      <trkpt lat="43.77446" lon="5.25193">
        <ele>256</ele>
        <time>2021-11-14T08:33:08Z</time>
      </trkpt>
      <trkpt lat="43.77456" lon="5.25199">
        <ele>249</ele>
        <time>2021-11-14T08:33:14Z</time>
      </trkpt>
      <trkpt lat="43.77464" lon="5.25209">
        <ele>245</ele>
        <time>2021-11-14T08:33:20Z</time>
      </trkpt>
      <trkpt lat="43.77477" lon="5.25231">
        <ele>241</ele>
        <time>2021-11-14T08:33:32Z</time>
      </trkpt>
      <trkpt lat="43.77493" lon="5.25245">
        <ele>243</ele>
        <time>2021-11-14T08:33:45Z</time>
      </trkpt>
      <trkpt lat="43.77501" lon="5.25254">
        <ele>245</ele>
        <time>2021-11-14T08:33:52Z</time>
      </trkpt>
      <trkpt lat="43.77508" lon="5.25279">
        <ele>243</ele>
        <time>2021-11-14T08:34:05Z</time>
      </trkpt>
      <trkpt lat="43.77509" lon="5.25285">
        <ele>243</ele>
        <time>2021-11-14T08:34:08Z</time>
      </trkpt>
      <trkpt lat="43.7751" lon="5.25291">
        <ele>243</ele>
        <time>2021-11-14T08:34:11Z</time>
      </trkpt>
      <trkpt lat="43.77521" lon="5.25335">
        <ele>246</ele>
        <time>2021-11-14T08:34:35Z</time>
      </trkpt>
      <trkpt lat="43.77522" lon="5.25347">
        <ele>246</ele>
        <time>2021-11-14T08:34:41Z</time>
      </trkpt>
      <trkpt lat="43.77528" lon="5.25371">
        <ele>244</ele>
        <time>2021-11-14T08:34:53Z</time>
      </trkpt>
      <trkpt lat="43.77529" lon="5.25377">
        <ele>244</ele>
        <time>2021-11-14T08:34:56Z</time>
      </trkpt>
      <trkpt lat="43.7753" lon="5.25383">
        <ele>243</ele>
        <time>2021-11-14T08:34:59Z</time>
      </trkpt>
      <trkpt lat="43.77533" lon="5.25399">
        <ele>243</ele>
        <time>2021-11-14T08:35:08Z</time>
      </trkpt>
      <trkpt lat="43.77536" lon="5.2541">
        <ele>245</ele>
        <time>2021-11-14T08:35:14Z</time>
      </trkpt>
      <trkpt lat="43.77546" lon="5.25433">
        <ele>242</ele>
        <time>2021-11-14T08:35:29Z</time>
      </trkpt>
      <trkpt lat="43.77548" lon="5.25438">
        <ele>242</ele>
        <time>2021-11-14T08:35:32Z</time>
      </trkpt>
      <trkpt lat="43.77553" lon="5.25446">
        <ele>240</ele>
        <time>2021-11-14T08:35:38Z</time>
      </trkpt>
      <trkpt lat="43.77568" lon="5.25472">
        <ele>242</ele>
        <time>2021-11-14T08:35:56Z</time>
      </trkpt>
      <trkpt lat="43.77571" lon="5.25476">
        <ele>244</ele>
        <time>2021-11-14T08:35:59Z</time>
      </trkpt>
      <trkpt lat="43.77574" lon="5.25481">
        <ele>243</ele>
        <time>2021-11-14T08:36:02Z</time>
      </trkpt>
      <trkpt lat="43.77583" lon="5.25492">
        <ele>245</ele>
        <time>2021-11-14T08:36:11Z</time>
      </trkpt>
      <trkpt lat="43.77586" lon="5.25495">
        <ele>246</ele>
        <time>2021-11-14T08:36:14Z</time>
      </trkpt>
      <trkpt lat="43.77589" lon="5.25499">
        <ele>246</ele>
        <time>2021-11-14T08:36:17Z</time>
      </trkpt>
      <trkpt lat="43.77601" lon="5.25528">
        <ele>245</ele>
        <time>2021-11-14T08:36:36Z</time>
      </trkpt>
      <trkpt lat="43.77603" lon="5.25531">
        <ele>245</ele>
        <time>2021-11-14T08:36:39Z</time>
      </trkpt>
      <trkpt lat="43.77606" lon="5.25535">
        <ele>246</ele>
        <time>2021-11-14T08:36:42Z</time>
      </trkpt>
      <trkpt lat="43.77609" lon="5.25539">
        <ele>247</ele>
        <time>2021-11-14T08:36:45Z</time>
      </trkpt>
      <trkpt lat="43.77615" lon="5.25545">
        <ele>251</ele>
        <time>2021-11-14T08:36:52Z</time>
      </trkpt>
      <trkpt lat="43.77618" lon="5.25548">
        <ele>252</ele>
        <time>2021-11-14T08:36:55Z</time>
      </trkpt>
      <trkpt lat="43.77622" lon="5.25552">
        <ele>253</ele>
        <time>2021-11-14T08:36:59Z</time>
      </trkpt>
      <trkpt lat="43.77632" lon="5.25559">
        <ele>256</ele>
        <time>2021-11-14T08:37:08Z</time>
      </trkpt>
      <trkpt lat="43.77639" lon="5.25563">
        <ele>256</ele>
        <time>2021-11-14T08:37:14Z</time>
      </trkpt>
      <trkpt lat="43.77643" lon="5.25563">
        <ele>255</ele>
        <time>2021-11-14T08:37:17Z</time>
      </trkpt>
      <trkpt lat="43.77645" lon="5.25559">
        <ele>254</ele>
        <time>2021-11-14T08:37:21Z</time>
      </trkpt>
      <trkpt lat="43.77648" lon="5.25555">
        <ele>258</ele>
        <time>2021-11-14T08:37:41Z</time>
      </trkpt>
      <trkpt lat="43.77653" lon="5.25538">
        <ele>256</ele>
        <time>2021-11-14T08:37:51Z</time>
      </trkpt>
      <trkpt lat="43.77657" lon="5.25518">
        <ele>258</ele>
        <time>2021-11-14T08:38:01Z</time>
      </trkpt>
      <trkpt lat="43.77672" lon="5.25483">
        <ele>252</ele>
        <time>2021-11-14T08:38:21Z</time>
      </trkpt>
      <trkpt lat="43.77675" lon="5.25474">
        <ele>255</ele>
        <time>2021-11-14T08:38:26Z</time>
      </trkpt>
      <trkpt lat="43.77678" lon="5.25469">
        <ele>256</ele>
        <time>2021-11-14T08:38:29Z</time>
      </trkpt>
      <trkpt lat="43.77682" lon="5.25465">
        <ele>257</ele>
        <time>2021-11-14T08:38:32Z</time>
      </trkpt>
      <trkpt lat="43.77685" lon="5.25461">
        <ele>256</ele>
        <time>2021-11-14T08:38:35Z</time>
      </trkpt>
      <trkpt lat="43.77686" lon="5.25454">
        <ele>257</ele>
        <time>2021-11-14T08:38:38Z</time>
      </trkpt>
      <trkpt lat="43.77691" lon="5.25447">
        <ele>258</ele>
        <time>2021-11-14T08:38:42Z</time>
      </trkpt>
      <trkpt lat="43.77698" lon="5.25438">
        <ele>257</ele>
        <time>2021-11-14T08:38:48Z</time>
      </trkpt>
      <trkpt lat="43.77716" lon="5.25423">
        <ele>256</ele>
        <time>2021-11-14T08:39:03Z</time>
      </trkpt>
      <trkpt lat="43.7773" lon="5.2541">
        <ele>258</ele>
        <time>2021-11-14T08:39:15Z</time>
      </trkpt>
      <trkpt lat="43.77733" lon="5.25406">
        <ele>257</ele>
        <time>2021-11-14T08:39:18Z</time>
      </trkpt>
      <trkpt lat="43.77737" lon="5.25402">
        <ele>258</ele>
        <time>2021-11-14T08:39:21Z</time>
      </trkpt>
      <trkpt lat="43.77741" lon="5.2539">
        <ele>259</ele>
        <time>2021-11-14T08:39:27Z</time>
      </trkpt>
      <trkpt lat="43.77742" lon="5.25384">
        <ele>259</ele>
        <time>2021-11-14T08:39:30Z</time>
      </trkpt>
      <trkpt lat="43.77747" lon="5.25375">
        <ele>260</ele>
        <time>2021-11-14T08:39:36Z</time>
      </trkpt>
      <trkpt lat="43.77752" lon="5.25366">
        <ele>260</ele>
        <time>2021-11-14T08:39:42Z</time>
      </trkpt>
      <trkpt lat="43.77753" lon="5.2536">
        <ele>261</ele>
        <time>2021-11-14T08:39:45Z</time>
      </trkpt>
      <trkpt lat="43.77755" lon="5.25355">
        <ele>262</ele>
        <time>2021-11-14T08:39:48Z</time>
      </trkpt>
      <trkpt lat="43.77756" lon="5.2535">
        <ele>263</ele>
        <time>2021-11-14T08:39:51Z</time>
      </trkpt>
      <trkpt lat="43.7776" lon="5.25339">
        <ele>264</ele>
        <time>2021-11-14T08:39:57Z</time>
      </trkpt>
      <trkpt lat="43.77763" lon="5.25335">
        <ele>265</ele>
        <time>2021-11-14T08:40:00Z</time>
      </trkpt>
      <trkpt lat="43.77767" lon="5.25323">
        <ele>264</ele>
        <time>2021-11-14T08:40:06Z</time>
      </trkpt>
      <trkpt lat="43.77776" lon="5.25311">
        <ele>263</ele>
        <time>2021-11-14T08:40:15Z</time>
      </trkpt>
      <trkpt lat="43.7778" lon="5.25309">
        <ele>263</ele>
        <time>2021-11-14T08:40:18Z</time>
      </trkpt>
      <trkpt lat="43.77784" lon="5.25305">
        <ele>263</ele>
        <time>2021-11-14T08:40:21Z</time>
      </trkpt>
      <trkpt lat="43.77792" lon="5.25299">
        <ele>265</ele>
        <time>2021-11-14T08:40:27Z</time>
      </trkpt>
      <trkpt lat="43.77804" lon="5.25292">
        <ele>263</ele>
        <time>2021-11-14T08:40:36Z</time>
      </trkpt>
      <trkpt lat="43.77808" lon="5.2529">
        <ele>264</ele>
        <time>2021-11-14T08:40:39Z</time>
      </trkpt>
      <trkpt lat="43.77812" lon="5.25288">
        <ele>266</ele>
        <time>2021-11-14T08:40:42Z</time>
      </trkpt>
      <trkpt lat="43.77815" lon="5.25285">
        <ele>268</ele>
        <time>2021-11-14T08:40:45Z</time>
      </trkpt>
      <trkpt lat="43.7782" lon="5.25282">
        <ele>270</ele>
        <time>2021-11-14T08:40:48Z</time>
      </trkpt>
      <trkpt lat="43.77824" lon="5.25279">
        <ele>269</ele>
        <time>2021-11-14T08:40:51Z</time>
      </trkpt>
      <trkpt lat="43.77828" lon="5.25277">
        <ele>267</ele>
        <time>2021-11-14T08:40:54Z</time>
      </trkpt>
      <trkpt lat="43.77842" lon="5.25263">
        <ele>262</ele>
        <time>2021-11-14T08:41:06Z</time>
      </trkpt>
      <trkpt lat="43.77845" lon="5.25261">
        <ele>262</ele>
        <time>2021-11-14T08:41:09Z</time>
      </trkpt>
      <trkpt lat="43.77849" lon="5.25258">
        <ele>262</ele>
        <time>2021-11-14T08:41:12Z</time>
      </trkpt>
      <trkpt lat="43.77852" lon="5.25255">
        <ele>259</ele>
        <time>2021-11-14T08:41:15Z</time>
      </trkpt>
      <trkpt lat="43.77859" lon="5.25249">
        <ele>259</ele>
        <time>2021-11-14T08:41:21Z</time>
      </trkpt>
      <trkpt lat="43.77866" lon="5.25243">
        <ele>262</ele>
        <time>2021-11-14T08:41:27Z</time>
      </trkpt>
      <trkpt lat="43.77869" lon="5.2524">
        <ele>263</ele>
        <time>2021-11-14T08:41:30Z</time>
      </trkpt>
      <trkpt lat="43.77873" lon="5.25238">
        <ele>263</ele>
        <time>2021-11-14T08:41:33Z</time>
      </trkpt>
      <trkpt lat="43.77876" lon="5.25235">
        <ele>264</ele>
        <time>2021-11-14T08:41:36Z</time>
      </trkpt>
      <trkpt lat="43.7788" lon="5.2523">
        <ele>265</ele>
        <time>2021-11-14T08:41:39Z</time>
      </trkpt>
      <trkpt lat="43.77883" lon="5.25227">
        <ele>268</ele>
        <time>2021-11-14T08:41:42Z</time>
      </trkpt>
      <trkpt lat="43.77888" lon="5.25223">
        <ele>272</ele>
        <time>2021-11-14T08:41:46Z</time>
      </trkpt>
      <trkpt lat="43.77898" lon="5.25214">
        <ele>272</ele>
        <time>2021-11-14T08:41:55Z</time>
      </trkpt>
      <trkpt lat="43.77903" lon="5.25212">
        <ele>272</ele>
        <time>2021-11-14T08:41:58Z</time>
      </trkpt>
      <trkpt lat="43.77907" lon="5.25211">
        <ele>272</ele>
        <time>2021-11-14T08:42:01Z</time>
      </trkpt>
      <trkpt lat="43.77911" lon="5.2521">
        <ele>270</ele>
        <time>2021-11-14T08:42:04Z</time>
      </trkpt>
      <trkpt lat="43.77915" lon="5.25213">
        <ele>270</ele>
        <time>2021-11-14T08:42:07Z</time>
      </trkpt>
      <trkpt lat="43.77919" lon="5.25214">
        <ele>270</ele>
        <time>2021-11-14T08:42:10Z</time>
      </trkpt>
      <trkpt lat="43.77937" lon="5.25217">
        <ele>277</ele>
        <time>2021-11-14T08:42:24Z</time>
      </trkpt>
      <trkpt lat="43.77966" lon="5.25221">
        <ele>285</ele>
        <time>2021-11-14T08:42:45Z</time>
      </trkpt>
      <trkpt lat="43.77986" lon="5.25227">
        <ele>281</ele>
        <time>2021-11-14T08:42:59Z</time>
      </trkpt>
      <trkpt lat="43.77996" lon="5.25228">
        <ele>279</ele>
        <time>2021-11-14T08:43:06Z</time>
      </trkpt>
      <trkpt lat="43.78014" lon="5.25237">
        <ele>280</ele>
        <time>2021-11-14T08:43:19Z</time>
      </trkpt>
      <trkpt lat="43.78045" lon="5.2527">
        <ele>280</ele>
        <time>2021-11-14T08:43:47Z</time>
      </trkpt>
      <trkpt lat="43.78081" lon="5.25293">
        <ele>284</ele>
        <time>2021-11-14T08:44:16Z</time>
      </trkpt>
      <trkpt lat="43.78089" lon="5.25298">
        <ele>282</ele>
        <time>2021-11-14T08:44:23Z</time>
      </trkpt>
      <trkpt lat="43.78099" lon="5.25299">
        <ele>279</ele>
        <time>2021-11-14T08:44:30Z</time>
      </trkpt>
      <trkpt lat="43.78109" lon="5.25301">
        <ele>279</ele>
        <time>2021-11-14T08:44:37Z</time>
      </trkpt>
      <trkpt lat="43.78119" lon="5.25304">
        <ele>278</ele>
        <time>2021-11-14T08:44:44Z</time>
      </trkpt>
      <trkpt lat="43.78128" lon="5.25302">
        <ele>279</ele>
        <time>2021-11-14T08:44:50Z</time>
      </trkpt>
      <trkpt lat="43.78138" lon="5.25302">
        <ele>280</ele>
        <time>2021-11-14T08:44:57Z</time>
      </trkpt>
      <trkpt lat="43.78147" lon="5.25302">
        <ele>285</ele>
        <time>2021-11-14T08:45:04Z</time>
      </trkpt>
      <trkpt lat="43.78157" lon="5.25298">
        <ele>287</ele>
        <time>2021-11-14T08:45:20Z</time>
      </trkpt>
      <trkpt lat="43.78176" lon="5.25304">
        <ele>294</ele>
        <time>2021-11-14T08:45:33Z</time>
      </trkpt>
      <trkpt lat="43.78184" lon="5.25308">
        <ele>294</ele>
        <time>2021-11-14T08:45:39Z</time>
      </trkpt>
      <trkpt lat="43.7822" lon="5.25327">
        <ele>293</ele>
        <time>2021-11-14T08:46:06Z</time>
      </trkpt>
      <trkpt lat="43.78236" lon="5.25342">
        <ele>288</ele>
        <time>2021-11-14T08:46:18Z</time>
      </trkpt>
      <trkpt lat="43.78246" lon="5.25344">
        <ele>289</ele>
        <time>2021-11-14T08:46:26Z</time>
      </trkpt>
      <trkpt lat="43.7825" lon="5.25346">
        <ele>291</ele>
        <time>2021-11-14T08:46:29Z</time>
      </trkpt>
      <trkpt lat="43.78253" lon="5.25344">
        <ele>292</ele>
        <time>2021-11-14T08:46:32Z</time>
      </trkpt>
      <trkpt lat="43.78257" lon="5.25347">
        <ele>294</ele>
        <time>2021-11-14T08:46:35Z</time>
      </trkpt>
      <trkpt lat="43.78261" lon="5.25346">
        <ele>295</ele>
        <time>2021-11-14T08:46:38Z</time>
      </trkpt>
      <trkpt lat="43.78278" lon="5.25344">
        <ele>301</ele>
        <time>2021-11-14T08:46:52Z</time>
      </trkpt>
      <trkpt lat="43.78282" lon="5.25343">
        <ele>303</ele>
        <time>2021-11-14T08:46:55Z</time>
      </trkpt>
      <trkpt lat="43.78291" lon="5.25346">
        <ele>306</ele>
        <time>2021-11-14T08:47:01Z</time>
      </trkpt>
      <trkpt lat="43.78306" lon="5.25337">
        <ele>308</ele>
        <time>2021-11-14T08:47:13Z</time>
      </trkpt>
      <trkpt lat="43.78314" lon="5.25338">
        <ele>308</ele>
        <time>2021-11-14T08:47:19Z</time>
      </trkpt>
      <trkpt lat="43.7833" lon="5.25337">
        <ele>308</ele>
        <time>2021-11-14T08:47:32Z</time>
      </trkpt>
      <trkpt lat="43.78338" lon="5.25335">
        <ele>307</ele>
        <time>2021-11-14T08:47:40Z</time>
      </trkpt>
      <trkpt lat="43.78342" lon="5.25334">
        <ele>305</ele>
        <time>2021-11-14T08:47:43Z</time>
      </trkpt>
      <trkpt lat="43.78346" lon="5.25332">
        <ele>303</ele>
        <time>2021-11-14T08:47:47Z</time>
      </trkpt>
      <trkpt lat="43.7835" lon="5.2533">
        <ele>301</ele>
        <time>2021-11-14T08:47:50Z</time>
      </trkpt>
      <trkpt lat="43.78355" lon="5.2533">
        <ele>302</ele>
        <time>2021-11-14T08:47:53Z</time>
      </trkpt>
      <trkpt lat="43.78359" lon="5.2533">
        <ele>303</ele>
        <time>2021-11-14T08:47:56Z</time>
      </trkpt>
      <trkpt lat="43.78368" lon="5.25333">
        <ele>304</ele>
        <time>2021-11-14T08:48:03Z</time>
      </trkpt>
      <trkpt lat="43.78385" lon="5.25342">
        <ele>303</ele>
        <time>2021-11-14T08:48:17Z</time>
      </trkpt>
      <trkpt lat="43.78423" lon="5.25354">
        <ele>299</ele>
        <time>2021-11-14T08:48:51Z</time>
      </trkpt>
      <trkpt lat="43.78433" lon="5.2535">
        <ele>301</ele>
        <time>2021-11-14T08:48:59Z</time>
      </trkpt>
      <trkpt lat="43.78441" lon="5.25345">
        <ele>304</ele>
        <time>2021-11-14T08:49:07Z</time>
      </trkpt>
      <trkpt lat="43.78451" lon="5.25342">
        <ele>310</ele>
        <time>2021-11-14T08:49:16Z</time>
      </trkpt>
      <trkpt lat="43.78469" lon="5.25334">
        <ele>309</ele>
        <time>2021-11-14T08:49:33Z</time>
      </trkpt>
      <trkpt lat="43.78475" lon="5.25323">
        <ele>308</ele>
        <time>2021-11-14T08:49:42Z</time>
      </trkpt>
      <trkpt lat="43.78478" lon="5.2531">
        <ele>312</ele>
        <time>2021-11-14T08:49:50Z</time>
      </trkpt>
      <trkpt lat="43.78481" lon="5.25298">
        <ele>314</ele>
        <time>2021-11-14T08:49:58Z</time>
      </trkpt>
      <trkpt lat="43.78483" lon="5.25286">
        <ele>314</ele>
        <time>2021-11-14T08:50:07Z</time>
      </trkpt>
      <trkpt lat="43.78494" lon="5.25264">
        <ele>312</ele>
        <time>2021-11-14T08:50:23Z</time>
      </trkpt>
      <trkpt lat="43.78523" lon="5.2523">
        <ele>311</ele>
        <time>2021-11-14T08:50:56Z</time>
      </trkpt>
      <trkpt lat="43.7853" lon="5.25224">
        <ele>311</ele>
        <time>2021-11-14T08:51:06Z</time>
      </trkpt>
      <trkpt lat="43.7854" lon="5.25222">
        <ele>310</ele>
        <time>2021-11-14T08:51:15Z</time>
      </trkpt>
      <trkpt lat="43.7855" lon="5.25228">
        <ele>313</ele>
        <time>2021-11-14T08:53:06Z</time>
      </trkpt>
      <trkpt lat="43.78559" lon="5.25234">
        <ele>308</ele>
        <time>2021-11-14T08:53:12Z</time>
      </trkpt>
      <trkpt lat="43.78578" lon="5.25242">
        <ele>296</ele>
        <time>2021-11-14T08:53:28Z</time>
      </trkpt>
      <trkpt lat="43.78587" lon="5.25246">
        <ele>295</ele>
        <time>2021-11-14T08:53:37Z</time>
      </trkpt>
      <trkpt lat="43.78598" lon="5.25247">
        <ele>292</ele>
        <time>2021-11-14T08:53:47Z</time>
      </trkpt>
      <trkpt lat="43.78607" lon="5.25245">
        <ele>295</ele>
        <time>2021-11-14T08:53:56Z</time>
      </trkpt>
      <trkpt lat="43.78616" lon="5.25241">
        <ele>296</ele>
        <time>2021-11-14T08:54:06Z</time>
      </trkpt>
      <trkpt lat="43.78625" lon="5.25234">
        <ele>299</ele>
        <time>2021-11-14T08:54:17Z</time>
      </trkpt>
      <trkpt lat="43.78633" lon="5.25228">
        <ele>300</ele>
        <time>2021-11-14T08:54:25Z</time>
      </trkpt>
      <trkpt lat="43.78641" lon="5.25223">
        <ele>303</ele>
        <time>2021-11-14T08:54:34Z</time>
      </trkpt>
      <trkpt lat="43.78648" lon="5.25214">
        <ele>306</ele>
        <time>2021-11-14T08:54:41Z</time>
      </trkpt>
      <trkpt lat="43.78653" lon="5.25203">
        <ele>308</ele>
        <time>2021-11-14T08:54:49Z</time>
      </trkpt>
      <trkpt lat="43.7866" lon="5.25194">
        <ele>310</ele>
        <time>2021-11-14T08:54:58Z</time>
      </trkpt>
      <trkpt lat="43.78666" lon="5.25184">
        <ele>314</ele>
        <time>2021-11-14T08:55:05Z</time>
      </trkpt>
      <trkpt lat="43.78671" lon="5.25173">
        <ele>317</ele>
        <time>2021-11-14T08:55:14Z</time>
      </trkpt>
      <trkpt lat="43.78683" lon="5.25153">
        <ele>319</ele>
        <time>2021-11-14T08:55:30Z</time>
      </trkpt>
      <trkpt lat="43.7869" lon="5.25144">
        <ele>320</ele>
        <time>2021-11-14T08:55:37Z</time>
      </trkpt>
      <trkpt lat="43.78697" lon="5.25135">
        <ele>321</ele>
        <time>2021-11-14T08:55:47Z</time>
      </trkpt>
      <trkpt lat="43.78729" lon="5.25108">
        <ele>328</ele>
        <time>2021-11-14T08:56:21Z</time>
      </trkpt>
      <trkpt lat="43.78738" lon="5.25101">
        <ele>326</ele>
        <time>2021-11-14T08:56:31Z</time>
      </trkpt>
      <trkpt lat="43.78747" lon="5.25094">
        <ele>327</ele>
        <time>2021-11-14T08:56:41Z</time>
      </trkpt>
      <trkpt lat="43.78771" lon="5.25074">
        <ele>330</ele>
        <time>2021-11-14T08:57:07Z</time>
      </trkpt>
      <trkpt lat="43.7878" lon="5.2507">
        <ele>330</ele>
        <time>2021-11-14T08:57:15Z</time>
      </trkpt>
      <trkpt lat="43.78789" lon="5.25065">
        <ele>328</ele>
        <time>2021-11-14T08:57:24Z</time>
      </trkpt>
      <trkpt lat="43.78797" lon="5.25059">
        <ele>328</ele>
        <time>2021-11-14T08:57:32Z</time>
      </trkpt>
      <trkpt lat="43.78829" lon="5.25034">
        <ele>331</ele>
        <time>2021-11-14T08:58:06Z</time>
      </trkpt>
      <trkpt lat="43.78848" lon="5.25027">
        <ele>337</ele>
        <time>2021-11-14T08:58:23Z</time>
      </trkpt>
      <trkpt lat="43.78857" lon="5.25022">
        <ele>339</ele>
        <time>2021-11-14T08:58:31Z</time>
      </trkpt>
      <trkpt lat="43.78876" lon="5.25023">
        <ele>342</ele>
        <time>2021-11-14T08:58:49Z</time>
      </trkpt>
      <trkpt lat="43.78894" lon="5.25028">
        <ele>345</ele>
        <time>2021-11-14T08:59:06Z</time>
      </trkpt>
      <trkpt lat="43.78903" lon="5.25028">
        <ele>344</ele>
        <time>2021-11-14T08:59:15Z</time>
      </trkpt>
      <trkpt lat="43.78922" lon="5.2503">
        <ele>346</ele>
        <time>2021-11-14T08:59:32Z</time>
      </trkpt>
      <trkpt lat="43.78931" lon="5.25032">
        <ele>345</ele>
        <time>2021-11-14T08:59:42Z</time>
      </trkpt>
      <trkpt lat="43.7895" lon="5.25037">
        <ele>349</ele>
        <time>2021-11-14T09:00:00Z</time>
      </trkpt>
      <trkpt lat="43.7896" lon="5.25038">
        <ele>353</ele>
        <time>2021-11-14T09:00:08Z</time>
      </trkpt>
      <trkpt lat="43.78969" lon="5.25043">
        <ele>356</ele>
        <time>2021-11-14T09:00:17Z</time>
      </trkpt>
      <trkpt lat="43.78978" lon="5.25049">
        <ele>358</ele>
        <time>2021-11-14T09:00:26Z</time>
      </trkpt>
      <trkpt lat="43.78982" lon="5.25061">
        <ele>358</ele>
        <time>2021-11-14T09:00:43Z</time>
      </trkpt>
      <trkpt lat="43.78993" lon="5.25061">
        <ele>361</ele>
        <time>2021-11-14T09:00:51Z</time>
      </trkpt>
      <trkpt lat="43.79009" lon="5.25074">
        <ele>365</ele>
        <time>2021-11-14T09:01:10Z</time>
      </trkpt>
      <trkpt lat="43.79018" lon="5.25078">
        <ele>365</ele>
        <time>2021-11-14T09:01:20Z</time>
      </trkpt>
      <trkpt lat="43.79035" lon="5.25086">
        <ele>365</ele>
        <time>2021-11-14T09:01:37Z</time>
      </trkpt>
      <trkpt lat="43.79044" lon="5.25091">
        <ele>366</ele>
        <time>2021-11-14T09:01:46Z</time>
      </trkpt>
      <trkpt lat="43.79052" lon="5.25098">
        <ele>367</ele>
        <time>2021-11-14T09:01:56Z</time>
      </trkpt>
      <trkpt lat="43.79061" lon="5.25105">
        <ele>368</ele>
        <time>2021-11-14T09:02:05Z</time>
      </trkpt>
      <trkpt lat="43.79071" lon="5.25107">
        <ele>369</ele>
        <time>2021-11-14T09:02:14Z</time>
      </trkpt>
      <trkpt lat="43.79081" lon="5.25111">
        <ele>369</ele>
        <time>2021-11-14T09:02:23Z</time>
      </trkpt>
      <trkpt lat="43.79084" lon="5.25115">
        <ele>371</ele>
        <time>2021-11-14T09:02:27Z</time>
      </trkpt>
      <trkpt lat="43.79086" lon="5.25119">
        <ele>371</ele>
        <time>2021-11-14T09:02:30Z</time>
      </trkpt>
      <trkpt lat="43.79089" lon="5.25123">
        <ele>370</ele>
        <time>2021-11-14T09:02:33Z</time>
      </trkpt>
      <trkpt lat="43.79091" lon="5.25129">
        <ele>369</ele>
        <time>2021-11-14T09:02:37Z</time>
      </trkpt>
      <trkpt lat="43.79094" lon="5.25133">
        <ele>367</ele>
        <time>2021-11-14T09:02:41Z</time>
      </trkpt>
      <trkpt lat="43.79097" lon="5.25134">
        <ele>367</ele>
        <time>2021-11-14T09:02:44Z</time>
      </trkpt>
      <trkpt lat="43.79101" lon="5.25138">
        <ele>369</ele>
        <time>2021-11-14T09:02:48Z</time>
      </trkpt>
      <trkpt lat="43.79103" lon="5.25142">
        <ele>370</ele>
        <time>2021-11-14T09:02:52Z</time>
      </trkpt>
      <trkpt lat="43.79106" lon="5.25153">
        <ele>369</ele>
        <time>2021-11-14T09:03:00Z</time>
      </trkpt>
      <trkpt lat="43.7911" lon="5.25153">
        <ele>369</ele>
        <time>2021-11-14T09:03:04Z</time>
      </trkpt>
      <trkpt lat="43.79113" lon="5.25152">
        <ele>370</ele>
        <time>2021-11-14T09:03:08Z</time>
      </trkpt>
      <trkpt lat="43.79117" lon="5.25154">
        <ele>371</ele>
        <time>2021-11-14T09:03:12Z</time>
      </trkpt>
      <trkpt lat="43.79124" lon="5.25167">
        <ele>371</ele>
        <time>2021-11-14T09:03:24Z</time>
      </trkpt>
      <trkpt lat="43.79137" lon="5.2517">
        <ele>371</ele>
        <time>2021-11-14T09:03:36Z</time>
      </trkpt>
      <trkpt lat="43.79139" lon="5.25173">
        <ele>370</ele>
        <time>2021-11-14T09:03:39Z</time>
      </trkpt>
      <trkpt lat="43.79154" lon="5.2518">
        <ele>374</ele>
        <time>2021-11-14T09:03:54Z</time>
      </trkpt>
      <trkpt lat="43.79158" lon="5.25181">
        <ele>374</ele>
        <time>2021-11-14T09:03:58Z</time>
      </trkpt>
      <trkpt lat="43.79161" lon="5.25181">
        <ele>377</ele>
        <time>2021-11-14T09:04:01Z</time>
      </trkpt>
      <trkpt lat="43.79171" lon="5.25184">
        <ele>379</ele>
        <time>2021-11-14T09:04:10Z</time>
      </trkpt>
      <trkpt lat="43.7918" lon="5.25181">
        <ele>382</ele>
        <time>2021-11-14T09:04:20Z</time>
      </trkpt>
      <trkpt lat="43.79187" lon="5.25173">
        <ele>382</ele>
        <time>2021-11-14T09:04:30Z</time>
      </trkpt>
      <trkpt lat="43.79199" lon="5.25151">
        <ele>382</ele>
        <time>2021-11-14T09:04:52Z</time>
      </trkpt>
      <trkpt lat="43.79208" lon="5.25147">
        <ele>383</ele>
        <time>2021-11-14T09:05:04Z</time>
      </trkpt>
      <trkpt lat="43.79217" lon="5.25146">
        <ele>384</ele>
        <time>2021-11-14T09:05:17Z</time>
      </trkpt>
      <trkpt lat="43.79227" lon="5.25144">
        <ele>388</ele>
        <time>2021-11-14T09:05:29Z</time>
      </trkpt>
      <trkpt lat="43.79236" lon="5.25147">
        <ele>388</ele>
        <time>2021-11-14T09:05:42Z</time>
      </trkpt>
      <trkpt lat="43.79245" lon="5.25148">
        <ele>387</ele>
        <time>2021-11-14T09:05:52Z</time>
      </trkpt>
      <trkpt lat="43.79244" lon="5.25158">
        <ele>403</ele>
        <time>2021-11-14T09:07:06Z</time>
      </trkpt>
      <trkpt lat="43.79252" lon="5.25166">
        <ele>406</ele>
        <time>2021-11-14T09:08:29Z</time>
      </trkpt>
      <trkpt lat="43.79257" lon="5.25155">
        <ele>407</ele>
        <time>2021-11-14T09:08:37Z</time>
      </trkpt>
      <trkpt lat="43.79266" lon="5.25159">
        <ele>415</ele>
        <time>2021-11-14T09:09:10Z</time>
      </trkpt>
      <trkpt lat="43.79275" lon="5.25164">
        <ele>415</ele>
        <time>2021-11-14T09:09:23Z</time>
      </trkpt>
      <trkpt lat="43.79284" lon="5.2517">
        <ele>419</ele>
        <time>2021-11-14T09:09:37Z</time>
      </trkpt>
      <trkpt lat="43.79293" lon="5.25175">
        <ele>418</ele>
        <time>2021-11-14T09:09:53Z</time>
      </trkpt>
      <trkpt lat="43.79296" lon="5.25176">
        <ele>418</ele>
        <time>2021-11-14T09:09:58Z</time>
      </trkpt>
      <trkpt lat="43.793" lon="5.25176">
        <ele>418</ele>
        <time>2021-11-14T09:10:04Z</time>
      </trkpt>
      <trkpt lat="43.79307" lon="5.25174">
        <ele>419</ele>
        <time>2021-11-14T09:10:18Z</time>
      </trkpt>
      <trkpt lat="43.7931" lon="5.25171">
        <ele>419</ele>
        <time>2021-11-14T09:10:24Z</time>
      </trkpt>
      <trkpt lat="43.79313" lon="5.25166">
        <ele>420</ele>
        <time>2021-11-14T09:10:29Z</time>
      </trkpt>
      <trkpt lat="43.79312" lon="5.25167">
        <ele>423</ele>
        <time>2021-11-14T09:10:49Z</time>
      </trkpt>
      <trkpt lat="43.79312" lon="5.2516">
        <ele>426</ele>
        <time>2021-11-14T09:10:54Z</time>
      </trkpt>
      <trkpt lat="43.79315" lon="5.25155">
        <ele>428</ele>
        <time>2021-11-14T09:10:56Z</time>
      </trkpt>
      <trkpt lat="43.79319" lon="5.25151">
        <ele>429</ele>
        <time>2021-11-14T09:11:02Z</time>
      </trkpt>
      <trkpt lat="43.79319" lon="5.25165">
        <ele>431</ele>
        <time>2021-11-14T09:11:09Z</time>
      </trkpt>
      <trkpt lat="43.7932" lon="5.25175">
        <ele>430</ele>
        <time>2021-11-14T09:11:34Z</time>
      </trkpt>
      <trkpt lat="43.79316" lon="5.25175">
        <ele>429</ele>
        <time>2021-11-14T09:11:38Z</time>
      </trkpt>
      <trkpt lat="43.79313" lon="5.25172">
        <ele>430</ele>
        <time>2021-11-14T09:11:43Z</time>
      </trkpt>
      <trkpt lat="43.79312" lon="5.25167">
        <ele>430</ele>
        <time>2021-11-14T09:11:46Z</time>
      </trkpt>
      <trkpt lat="43.79314" lon="5.25161">
        <ele>431</ele>
        <time>2021-11-14T09:11:50Z</time>
      </trkpt>
      <trkpt lat="43.79312" lon="5.25156">
        <ele>429</ele>
        <time>2021-11-14T09:11:55Z</time>
      </trkpt>
      <trkpt lat="43.79317" lon="5.25139">
        <ele>423</ele>
        <time>2021-11-14T09:12:09Z</time>
      </trkpt>
      <trkpt lat="43.7932" lon="5.25135">
        <ele>423</ele>
        <time>2021-11-14T09:12:13Z</time>
      </trkpt>
      <trkpt lat="43.79321" lon="5.25129">
        <ele>426</ele>
        <time>2021-11-14T09:12:35Z</time>
      </trkpt>
      <trkpt lat="43.79331" lon="5.25128">
        <ele>426</ele>
        <time>2021-11-14T09:12:47Z</time>
      </trkpt>
      <trkpt lat="43.79341" lon="5.25121">
        <ele>425</ele>
        <time>2021-11-14T09:13:13Z</time>
      </trkpt>
      <trkpt lat="43.79348" lon="5.25112">
        <ele>427</ele>
        <time>2021-11-14T09:13:31Z</time>
      </trkpt>
      <trkpt lat="43.79355" lon="5.25103">
        <ele>440</ele>
        <time>2021-11-14T09:13:57Z</time>
      </trkpt>
      <trkpt lat="43.79366" lon="5.25088">
        <ele>441</ele>
        <time>2021-11-14T09:14:01Z</time>
      </trkpt>
      <trkpt lat="43.79372" lon="5.25099">
        <ele>434</ele>
        <time>2021-11-14T09:14:36Z</time>
      </trkpt>
      <trkpt lat="43.7938" lon="5.25092">
        <ele>441</ele>
        <time>2021-11-14T09:14:46Z</time>
      </trkpt>
      <trkpt lat="43.79389" lon="5.25098">
        <ele>444</ele>
        <time>2021-11-14T09:14:59Z</time>
      </trkpt>
      <trkpt lat="43.79396" lon="5.25109">
        <ele>454</ele>
        <time>2021-11-14T09:16:07Z</time>
      </trkpt>
      <trkpt lat="43.79406" lon="5.25115">
        <ele>454</ele>
        <time>2021-11-14T09:16:17Z</time>
      </trkpt>
      <trkpt lat="43.79415" lon="5.25119">
        <ele>442</ele>
        <time>2021-11-14T09:16:27Z</time>
      </trkpt>
      <trkpt lat="43.7942" lon="5.2513">
        <ele>442</ele>
        <time>2021-11-14T09:16:44Z</time>
      </trkpt>
      <trkpt lat="43.7943" lon="5.2513">
        <ele>443</ele>
        <time>2021-11-14T09:16:53Z</time>
      </trkpt>
      <trkpt lat="43.79439" lon="5.25133">
        <ele>448</ele>
        <time>2021-11-14T09:17:02Z</time>
      </trkpt>
      <trkpt lat="43.79448" lon="5.25133">
        <ele>446</ele>
        <time>2021-11-14T09:18:04Z</time>
      </trkpt>
      <trkpt lat="43.79457" lon="5.25131">
        <ele>467</ele>
        <time>2021-11-14T09:20:27Z</time>
      </trkpt>
      <trkpt lat="43.79463" lon="5.25136">
        <ele>475</ele>
        <time>2021-11-14T09:20:44Z</time>
      </trkpt>
      <trkpt lat="43.79464" lon="5.2514">
        <ele>477</ele>
        <time>2021-11-14T09:20:50Z</time>
      </trkpt>
      <trkpt lat="43.79465" lon="5.25142">
        <ele>477</ele>
        <time>2021-11-14T09:22:10Z</time>
      </trkpt>
      <trkpt lat="43.79473" lon="5.25144">
        <ele>478</ele>
        <time>2021-11-14T09:22:20Z</time>
      </trkpt>
      <trkpt lat="43.79476" lon="5.25148">
        <ele>477</ele>
        <time>2021-11-14T09:22:24Z</time>
      </trkpt>
      <trkpt lat="43.79477" lon="5.25153">
        <ele>478</ele>
        <time>2021-11-14T09:22:28Z</time>
      </trkpt>
      <trkpt lat="43.79481" lon="5.25155">
        <ele>478</ele>
        <time>2021-11-14T09:22:32Z</time>
      </trkpt>
      <trkpt lat="43.79484" lon="5.25153">
        <ele>479</ele>
        <time>2021-11-14T09:22:36Z</time>
      </trkpt>
      <trkpt lat="43.79491" lon="5.25155">
        <ele>481</ele>
        <time>2021-11-14T09:22:47Z</time>
      </trkpt>
      <trkpt lat="43.79495" lon="5.25158">
        <ele>482</ele>
        <time>2021-11-14T09:22:52Z</time>
      </trkpt>
      <trkpt lat="43.79504" lon="5.25158">
        <ele>485</ele>
        <time>2021-11-14T09:23:06Z</time>
      </trkpt>
      <trkpt lat="43.79514" lon="5.25157">
        <ele>460</ele>
        <time>2021-11-14T09:23:29Z</time>
      </trkpt>
      <trkpt lat="43.79523" lon="5.25157">
        <ele>472</ele>
        <time>2021-11-14T09:23:43Z</time>
      </trkpt>
      <trkpt lat="43.79528" lon="5.25167">
        <ele>489</ele>
        <time>2021-11-14T09:26:07Z</time>
      </trkpt>
      <trkpt lat="43.79536" lon="5.25177">
        <ele>494</ele>
        <time>2021-11-14T09:26:24Z</time>
      </trkpt>
      <trkpt lat="43.79545" lon="5.2518">
        <ele>496</ele>
        <time>2021-11-14T09:26:42Z</time>
      </trkpt>
      <trkpt lat="43.79553" lon="5.25174">
        <ele>501</ele>
        <time>2021-11-14T09:26:57Z</time>
      </trkpt>
      <trkpt lat="43.79555" lon="5.25161">
        <ele>502</ele>
        <time>2021-11-14T09:27:08Z</time>
      </trkpt>
      <trkpt lat="43.79561" lon="5.25151">
        <ele>505</ele>
        <time>2021-11-14T09:27:22Z</time>
      </trkpt>
      <trkpt lat="43.79565" lon="5.25151">
        <ele>505</ele>
        <time>2021-11-14T09:27:37Z</time>
      </trkpt>
      <trkpt lat="43.79567" lon="5.25156">
        <ele>506</ele>
        <time>2021-11-14T09:27:41Z</time>
      </trkpt>
      <trkpt lat="43.79572" lon="5.25157">
        <ele>507</ele>
        <time>2021-11-14T09:27:47Z</time>
      </trkpt>
      <trkpt lat="43.79574" lon="5.25161">
        <ele>509</ele>
        <time>2021-11-14T09:27:53Z</time>
      </trkpt>
      <trkpt lat="43.79576" lon="5.25166">
        <ele>512</ele>
        <time>2021-11-14T09:27:58Z</time>
      </trkpt>
      <trkpt lat="43.79578" lon="5.2517">
        <ele>514</ele>
        <time>2021-11-14T09:28:03Z</time>
      </trkpt>
      <trkpt lat="43.79581" lon="5.25171">
        <ele>515</ele>
        <time>2021-11-14T09:28:08Z</time>
      </trkpt>
      <trkpt lat="43.79584" lon="5.25167">
        <ele>517</ele>
        <time>2021-11-14T09:28:13Z</time>
      </trkpt>
      <trkpt lat="43.79586" lon="5.25162">
        <ele>517</ele>
        <time>2021-11-14T09:28:17Z</time>
      </trkpt>
      <trkpt lat="43.79589" lon="5.25159">
        <ele>519</ele>
        <time>2021-11-14T09:28:23Z</time>
      </trkpt>
      <trkpt lat="43.79599" lon="5.25149">
        <ele>524</ele>
        <time>2021-11-14T09:29:07Z</time>
      </trkpt>
      <trkpt lat="43.79602" lon="5.25142">
        <ele>545</ele>
        <time>2021-11-14T09:30:40Z</time>
      </trkpt>
      <trkpt lat="43.79588" lon="5.25185">
        <ele>533</ele>
        <time>2021-11-14T09:36:48Z</time>
      </trkpt>
      <trkpt lat="43.79576" lon="5.25187">
        <ele>591</ele>
        <time>2021-11-14T09:37:25Z</time>
      </trkpt>
      <trkpt lat="43.79582" lon="5.25166">
        <ele>593</ele>
        <time>2021-11-14T09:37:35Z</time>
      </trkpt>
      <trkpt lat="43.79578" lon="5.25148">
        <ele>581</ele>
        <time>2021-11-14T09:37:44Z</time>
      </trkpt>
      <trkpt lat="43.79581" lon="5.2513">
        <ele>574</ele>
        <time>2021-11-14T09:37:52Z</time>
      </trkpt>
      <trkpt lat="43.79585" lon="5.25117">
        <ele>560</ele>
        <time>2021-11-14T09:38:15Z</time>
      </trkpt>
      <trkpt lat="43.79593" lon="5.25107">
        <ele>559</ele>
        <time>2021-11-14T09:39:59Z</time>
      </trkpt>
      <trkpt lat="43.79597" lon="5.25125">
        <ele>559</ele>
        <time>2021-11-14T09:40:26Z</time>
      </trkpt>
      <trkpt lat="43.79597" lon="5.2515">
        <ele>537</ele>
        <time>2021-11-14T09:42:03Z</time>
      </trkpt>
      <trkpt lat="43.7961" lon="5.25165">
        <ele>536</ele>
        <time>2021-11-14T09:42:20Z</time>
      </trkpt>
      <trkpt lat="43.79606" lon="5.25175">
        <ele>532</ele>
        <time>2021-11-14T09:43:11Z</time>
      </trkpt>
      <trkpt lat="43.79598" lon="5.25187">
        <ele>533</ele>
        <time>2021-11-14T09:43:34Z</time>
      </trkpt>
      <trkpt lat="43.79596" lon="5.25204">
        <ele>418</ele>
        <time>2021-11-14T09:43:43Z</time>
      </trkpt>
      <trkpt lat="43.79586" lon="5.25213">
        <ele>481</ele>
        <time>2021-11-14T09:44:09Z</time>
      </trkpt>
      <trkpt lat="43.7958" lon="5.2521">
        <ele>531</ele>
        <time>2021-11-14T09:44:22Z</time>
      </trkpt>
      <trkpt lat="43.79574" lon="5.25212">
        <ele>489</ele>
        <time>2021-11-14T09:44:58Z</time>
      </trkpt>
      <trkpt lat="43.79577" lon="5.25216">
        <ele>538</ele>
        <time>2021-11-14T09:46:04Z</time>
      </trkpt>
      <trkpt lat="43.79577" lon="5.25224">
        <ele>541</ele>
        <time>2021-11-14T09:46:08Z</time>
      </trkpt>
      <trkpt lat="43.79577" lon="5.2523">
        <ele>541</ele>
        <time>2021-11-14T09:46:18Z</time>
      </trkpt>
      <trkpt lat="43.79574" lon="5.25235">
        <ele>541</ele>
        <time>2021-11-14T09:46:22Z</time>
      </trkpt>
      <trkpt lat="43.79577" lon="5.2524">
        <ele>542</ele>
        <time>2021-11-14T09:46:27Z</time>
      </trkpt>
      <trkpt lat="43.79576" lon="5.25246">
        <ele>542</ele>
        <time>2021-11-14T09:46:35Z</time>
      </trkpt>
      <trkpt lat="43.79572" lon="5.25251">
        <ele>542</ele>
        <time>2021-11-14T09:46:38Z</time>
      </trkpt>
      <trkpt lat="43.79568" lon="5.25254">
        <ele>543</ele>
        <time>2021-11-14T09:46:42Z</time>
      </trkpt>
      <trkpt lat="43.79564" lon="5.25261">
        <ele>545</ele>
        <time>2021-11-14T09:46:50Z</time>
      </trkpt>
      <trkpt lat="43.79562" lon="5.25268">
        <ele>550</ele>
        <time>2021-11-14T09:46:54Z</time>
      </trkpt>
      <trkpt lat="43.79557" lon="5.25273">
        <ele>551</ele>
        <time>2021-11-14T09:46:57Z</time>
      </trkpt>
      <trkpt lat="43.79548" lon="5.25272">
        <ele>554</ele>
        <time>2021-11-14T09:47:03Z</time>
      </trkpt>
      <trkpt lat="43.79545" lon="5.25273">
        <ele>554</ele>
        <time>2021-11-14T09:47:06Z</time>
      </trkpt>
      <trkpt lat="43.79542" lon="5.25273">
        <ele>553</ele>
        <time>2021-11-14T09:47:14Z</time>
      </trkpt>
      <trkpt lat="43.79538" lon="5.25275">
        <ele>553</ele>
        <time>2021-11-14T09:47:31Z</time>
      </trkpt>
      <trkpt lat="43.79538" lon="5.2528">
        <ele>553</ele>
        <time>2021-11-14T09:47:35Z</time>
      </trkpt>
      <trkpt lat="43.79533" lon="5.25295">
        <ele>554</ele>
        <time>2021-11-14T09:47:49Z</time>
      </trkpt>
      <trkpt lat="43.79529" lon="5.25298">
        <ele>555</ele>
        <time>2021-11-14T09:47:56Z</time>
      </trkpt>
      <trkpt lat="43.79524" lon="5.253">
        <ele>556</ele>
        <time>2021-11-14T09:48:14Z</time>
      </trkpt>
      <trkpt lat="43.79521" lon="5.25305">
        <ele>553</ele>
        <time>2021-11-14T09:48:19Z</time>
      </trkpt>
      <trkpt lat="43.79519" lon="5.2531">
        <ele>552</ele>
        <time>2021-11-14T09:48:25Z</time>
      </trkpt>
      <trkpt lat="43.79515" lon="5.25321">
        <ele>551</ele>
        <time>2021-11-14T09:48:43Z</time>
      </trkpt>
      <trkpt lat="43.79514" lon="5.25326">
        <ele>549</ele>
        <time>2021-11-14T09:48:48Z</time>
      </trkpt>
      <trkpt lat="43.79511" lon="5.25331">
        <ele>547</ele>
        <time>2021-11-14T09:48:53Z</time>
      </trkpt>
      <trkpt lat="43.79507" lon="5.2533">
        <ele>545</ele>
        <time>2021-11-14T09:48:56Z</time>
      </trkpt>
      <trkpt lat="43.79505" lon="5.25335">
        <ele>546</ele>
        <time>2021-11-14T09:49:01Z</time>
      </trkpt>
      <trkpt lat="43.79506" lon="5.25341">
        <ele>546</ele>
        <time>2021-11-14T09:49:05Z</time>
      </trkpt>
      <trkpt lat="43.79502" lon="5.25349">
        <ele>547</ele>
        <time>2021-11-14T09:49:15Z</time>
      </trkpt>
      <trkpt lat="43.79498" lon="5.25351">
        <ele>547</ele>
        <time>2021-11-14T09:49:21Z</time>
      </trkpt>
      <trkpt lat="43.79497" lon="5.25345">
        <ele>547</ele>
        <time>2021-11-14T09:49:23Z</time>
      </trkpt>
      <trkpt lat="43.79489" lon="5.25341">
        <ele>549</ele>
        <time>2021-11-14T09:49:30Z</time>
      </trkpt>
      <trkpt lat="43.79485" lon="5.25341">
        <ele>551</ele>
        <time>2021-11-14T09:49:34Z</time>
      </trkpt>
      <trkpt lat="43.79482" lon="5.25343">
        <ele>551</ele>
        <time>2021-11-14T09:49:39Z</time>
      </trkpt>
      <trkpt lat="43.79477" lon="5.25336">
        <ele>554</ele>
        <time>2021-11-14T09:49:58Z</time>
      </trkpt>
      <trkpt lat="43.7948" lon="5.25339">
        <ele>552</ele>
        <time>2021-11-14T09:50:42Z</time>
      </trkpt>
      <trkpt lat="43.79489" lon="5.25357">
        <ele>550</ele>
        <time>2021-11-14T09:51:05Z</time>
      </trkpt>
      <trkpt lat="43.79491" lon="5.25361">
        <ele>550</ele>
        <time>2021-11-14T09:51:10Z</time>
      </trkpt>
      <trkpt lat="43.7949" lon="5.25366">
        <ele>550</ele>
        <time>2021-11-14T09:51:16Z</time>
      </trkpt>
      <trkpt lat="43.79487" lon="5.25368">
        <ele>553</ele>
        <time>2021-11-14T09:51:26Z</time>
      </trkpt>
      <trkpt lat="43.79489" lon="5.25373">
        <ele>554</ele>
        <time>2021-11-14T09:51:48Z</time>
      </trkpt>
      <trkpt lat="43.79486" lon="5.25377">
        <ele>553</ele>
        <time>2021-11-14T09:51:56Z</time>
      </trkpt>
      <trkpt lat="43.79482" lon="5.25376">
        <ele>554</ele>
        <time>2021-11-14T09:52:02Z</time>
      </trkpt>
      <trkpt lat="43.79483" lon="5.25389">
        <ele>559</ele>
        <time>2021-11-14T09:52:40Z</time>
      </trkpt>
      <trkpt lat="43.79482" lon="5.25395">
        <ele>565</ele>
        <time>2021-11-14T09:52:56Z</time>
      </trkpt>
      <trkpt lat="43.79482" lon="5.25401">
        <ele>570</ele>
        <time>2021-11-14T09:53:06Z</time>
      </trkpt>
      <trkpt lat="43.7948" lon="5.25405">
        <ele>569</ele>
        <time>2021-11-14T09:53:12Z</time>
      </trkpt>
      <trkpt lat="43.7948" lon="5.25411">
        <ele>569</ele>
        <time>2021-11-14T09:53:20Z</time>
      </trkpt>
      <trkpt lat="43.79478" lon="5.25415">
        <ele>568</ele>
        <time>2021-11-14T09:53:26Z</time>
      </trkpt>
      <trkpt lat="43.79478" lon="5.25425">
        <ele>570</ele>
        <time>2021-11-14T09:53:39Z</time>
      </trkpt>
      <trkpt lat="43.79478" lon="5.2543">
        <ele>571</ele>
        <time>2021-11-14T09:54:03Z</time>
      </trkpt>
      <trkpt lat="43.79481" lon="5.25434">
        <ele>571</ele>
        <time>2021-11-14T09:54:07Z</time>
      </trkpt>
      <trkpt lat="43.79483" lon="5.25437">
        <ele>570</ele>
        <time>2021-11-14T09:54:10Z</time>
      </trkpt>
      <trkpt lat="43.79483" lon="5.25442">
        <ele>570</ele>
        <time>2021-11-14T09:54:14Z</time>
      </trkpt>
      <trkpt lat="43.79486" lon="5.25446">
        <ele>569</ele>
        <time>2021-11-14T09:54:17Z</time>
      </trkpt>
      <trkpt lat="43.79486" lon="5.25452">
        <ele>569</ele>
        <time>2021-11-14T09:54:21Z</time>
      </trkpt>
      <trkpt lat="43.79484" lon="5.25456">
        <ele>571</ele>
        <time>2021-11-14T09:54:36Z</time>
      </trkpt>
      <trkpt lat="43.79481" lon="5.25469">
        <ele>580</ele>
        <time>2021-11-14T09:54:57Z</time>
      </trkpt>
      <trkpt lat="43.79478" lon="5.25473">
        <ele>584</ele>
        <time>2021-11-14T09:55:02Z</time>
      </trkpt>
      <trkpt lat="43.79477" lon="5.25478">
        <ele>586</ele>
        <time>2021-11-14T09:55:11Z</time>
      </trkpt>
      <trkpt lat="43.79474" lon="5.2548">
        <ele>587</ele>
        <time>2021-11-14T09:55:31Z</time>
      </trkpt>
      <trkpt lat="43.79472" lon="5.25489">
        <ele>590</ele>
        <time>2021-11-14T09:55:41Z</time>
      </trkpt>
      <trkpt lat="43.7947" lon="5.25493">
        <ele>592</ele>
        <time>2021-11-14T09:55:46Z</time>
      </trkpt>
      <trkpt lat="43.79473" lon="5.25496">
        <ele>595</ele>
        <time>2021-11-14T09:55:58Z</time>
      </trkpt>
      <trkpt lat="43.79477" lon="5.25497">
        <ele>595</ele>
        <time>2021-11-14T09:56:04Z</time>
      </trkpt>
      <trkpt lat="43.79476" lon="5.25502">
        <ele>596</ele>
        <time>2021-11-14T09:56:13Z</time>
      </trkpt>
      <trkpt lat="43.79476" lon="5.25507">
        <ele>598</ele>
        <time>2021-11-14T09:56:22Z</time>
      </trkpt>
      <trkpt lat="43.79477" lon="5.25512">
        <ele>599</ele>
        <time>2021-11-14T09:56:29Z</time>
      </trkpt>
      <trkpt lat="43.79476" lon="5.25516">
        <ele>599</ele>
        <time>2021-11-14T09:56:35Z</time>
      </trkpt>
      <trkpt lat="43.79476" lon="5.25521">
        <ele>600</ele>
        <time>2021-11-14T09:56:40Z</time>
      </trkpt>
      <trkpt lat="43.79477" lon="5.25526">
        <ele>600</ele>
        <time>2021-11-14T09:56:47Z</time>
      </trkpt>
      <trkpt lat="43.79476" lon="5.25531">
        <ele>599</ele>
        <time>2021-11-14T09:56:52Z</time>
      </trkpt>
      <trkpt lat="43.79482" lon="5.25538">
        <ele>601</ele>
        <time>2021-11-14T09:57:08Z</time>
      </trkpt>
      <trkpt lat="43.79485" lon="5.25541">
        <ele>601</ele>
        <time>2021-11-14T09:57:15Z</time>
      </trkpt>
      <trkpt lat="43.79486" lon="5.25546">
        <ele>605</ele>
        <time>2021-11-14T09:57:25Z</time>
      </trkpt>
      <trkpt lat="43.79487" lon="5.25551">
        <ele>606</ele>
        <time>2021-11-14T09:57:32Z</time>
      </trkpt>
      <trkpt lat="43.79487" lon="5.25556">
        <ele>612</ele>
        <time>2021-11-14T09:57:53Z</time>
      </trkpt>
      <trkpt lat="43.7949" lon="5.2556">
        <ele>613</ele>
        <time>2021-11-14T09:58:02Z</time>
      </trkpt>
      <trkpt lat="43.79493" lon="5.25562">
        <ele>617</ele>
        <time>2021-11-14T09:58:10Z</time>
      </trkpt>
      <trkpt lat="43.79497" lon="5.25564">
        <ele>625</ele>
        <time>2021-11-14T09:58:35Z</time>
      </trkpt>
      <trkpt lat="43.79501" lon="5.25564">
        <ele>627</ele>
        <time>2021-11-14T09:58:41Z</time>
      </trkpt>
      <trkpt lat="43.79505" lon="5.25564">
        <ele>626</ele>
        <time>2021-11-14T09:59:29Z</time>
      </trkpt>
      <trkpt lat="43.79505" lon="5.2557">
        <ele>626</ele>
        <time>2021-11-14T09:59:33Z</time>
      </trkpt>
      <trkpt lat="43.79508" lon="5.25574">
        <ele>627</ele>
        <time>2021-11-14T09:59:36Z</time>
      </trkpt>
      <trkpt lat="43.79511" lon="5.25575">
        <ele>627</ele>
        <time>2021-11-14T09:59:39Z</time>
      </trkpt>
      <trkpt lat="43.79515" lon="5.25577">
        <ele>627</ele>
        <time>2021-11-14T09:59:42Z</time>
      </trkpt>
      <trkpt lat="43.79519" lon="5.25579">
        <ele>628</ele>
        <time>2021-11-14T09:59:47Z</time>
      </trkpt>
      <trkpt lat="43.79522" lon="5.25583">
        <ele>627</ele>
        <time>2021-11-14T09:59:51Z</time>
      </trkpt>
      <trkpt lat="43.79526" lon="5.25584">
        <ele>628</ele>
        <time>2021-11-14T09:59:59Z</time>
      </trkpt>
      <trkpt lat="43.7953" lon="5.25584">
        <ele>629</ele>
        <time>2021-11-14T10:00:05Z</time>
      </trkpt>
      <trkpt lat="43.79533" lon="5.25584">
        <ele>629</ele>
        <time>2021-11-14T10:00:11Z</time>
      </trkpt>
      <trkpt lat="43.79537" lon="5.25586">
        <ele>630</ele>
        <time>2021-11-14T10:00:16Z</time>
      </trkpt>
      <trkpt lat="43.7954" lon="5.25583">
        <ele>630</ele>
        <time>2021-11-14T10:00:21Z</time>
      </trkpt>
      <trkpt lat="43.79543" lon="5.25579">
        <ele>627</ele>
        <time>2021-11-14T10:00:24Z</time>
      </trkpt>
      <trkpt lat="43.79544" lon="5.25573">
        <ele>625</ele>
        <time>2021-11-14T10:00:28Z</time>
      </trkpt>
      <trkpt lat="43.79543" lon="5.25569">
        <ele>628</ele>
        <time>2021-11-14T10:00:36Z</time>
      </trkpt>
      <trkpt lat="43.79547" lon="5.25566">
        <ele>631</ele>
        <time>2021-11-14T10:00:55Z</time>
      </trkpt>
      <trkpt lat="43.7955" lon="5.25567">
        <ele>633</ele>
        <time>2021-11-14T10:01:03Z</time>
      </trkpt>
      <trkpt lat="43.79554" lon="5.25564">
        <ele>642</ele>
        <time>2021-11-14T10:01:12Z</time>
      </trkpt>
      <trkpt lat="43.79557" lon="5.25568">
        <ele>644</ele>
        <time>2021-11-14T10:01:21Z</time>
      </trkpt>
      <trkpt lat="43.7956" lon="5.2557">
        <ele>645</ele>
        <time>2021-11-14T10:01:30Z</time>
      </trkpt>
      <trkpt lat="43.79563" lon="5.25566">
        <ele>644</ele>
        <time>2021-11-14T10:01:37Z</time>
      </trkpt>
      <trkpt lat="43.79559" lon="5.25563">
        <ele>646</ele>
        <time>2021-11-14T10:01:55Z</time>
      </trkpt>
      <trkpt lat="43.79562" lon="5.25559">
        <ele>646</ele>
        <time>2021-11-14T10:02:02Z</time>
      </trkpt>
      <trkpt lat="43.79566" lon="5.25558">
        <ele>647</ele>
        <time>2021-11-14T10:02:11Z</time>
      </trkpt>
      <trkpt lat="43.79567" lon="5.25553">
        <ele>647</ele>
        <time>2021-11-14T10:02:22Z</time>
      </trkpt>
      <trkpt lat="43.79564" lon="5.25549">
        <ele>654</ele>
        <time>2021-11-14T10:02:41Z</time>
      </trkpt>
      <trkpt lat="43.7956" lon="5.25547">
        <ele>659</ele>
        <time>2021-11-14T10:02:53Z</time>
      </trkpt>
      <trkpt lat="43.79559" lon="5.25542">
        <ele>661</ele>
        <time>2021-11-14T10:02:57Z</time>
      </trkpt>
      <trkpt lat="43.79562" lon="5.25541">
        <ele>661</ele>
        <time>2021-11-14T10:03:00Z</time>
      </trkpt>
      <trkpt lat="43.79565" lon="5.25538">
        <ele>662</ele>
        <time>2021-11-14T10:03:08Z</time>
      </trkpt>
      <trkpt lat="43.79569" lon="5.25536">
        <ele>662</ele>
        <time>2021-11-14T10:03:13Z</time>
      </trkpt>
      <trkpt lat="43.79568" lon="5.25532">
        <ele>662</ele>
        <time>2021-11-14T10:03:19Z</time>
      </trkpt>
      <trkpt lat="43.79566" lon="5.25527">
        <ele>663</ele>
        <time>2021-11-14T10:03:27Z</time>
      </trkpt>
      <trkpt lat="43.79568" lon="5.25523">
        <ele>665</ele>
        <time>2021-11-14T10:03:36Z</time>
      </trkpt>
      <trkpt lat="43.79572" lon="5.25521">
        <ele>665</ele>
        <time>2021-11-14T10:03:39Z</time>
      </trkpt>
      <trkpt lat="43.79575" lon="5.25519">
        <ele>667</ele>
        <time>2021-11-14T10:03:43Z</time>
      </trkpt>
      <trkpt lat="43.79579" lon="5.25517">
        <ele>668</ele>
        <time>2021-11-14T10:03:47Z</time>
      </trkpt>
      <trkpt lat="43.79583" lon="5.25517">
        <ele>668</ele>
        <time>2021-11-14T10:03:51Z</time>
      </trkpt>
      <trkpt lat="43.79586" lon="5.25518">
        <ele>668</ele>
        <time>2021-11-14T10:03:55Z</time>
      </trkpt>
      <trkpt lat="43.7959" lon="5.25518">
        <ele>669</ele>
        <time>2021-11-14T10:05:17Z</time>
      </trkpt>
      <trkpt lat="43.79594" lon="5.25517">
        <ele>669</ele>
        <time>2021-11-14T10:05:21Z</time>
      </trkpt>
      <trkpt lat="43.79597" lon="5.25519">
        <ele>670</ele>
        <time>2021-11-14T10:05:25Z</time>
      </trkpt>
      <trkpt lat="43.796" lon="5.25525">
        <ele>671</ele>
        <time>2021-11-14T10:05:28Z</time>
      </trkpt>
      <trkpt lat="43.79603" lon="5.25526">
        <ele>670</ele>
        <time>2021-11-14T10:05:31Z</time>
      </trkpt>
      <trkpt lat="43.79606" lon="5.25528">
        <ele>670</ele>
        <time>2021-11-14T10:05:34Z</time>
      </trkpt>
      <trkpt lat="43.7961" lon="5.25529">
        <ele>670</ele>
        <time>2021-11-14T10:05:38Z</time>
      </trkpt>
      <trkpt lat="43.79614" lon="5.25528">
        <ele>670</ele>
        <time>2021-11-14T10:05:42Z</time>
      </trkpt>
      <trkpt lat="43.79617" lon="5.25532">
        <ele>671</ele>
        <time>2021-11-14T10:05:46Z</time>
      </trkpt>
      <trkpt lat="43.79621" lon="5.25535">
        <ele>671</ele>
        <time>2021-11-14T10:05:50Z</time>
      </trkpt>
      <trkpt lat="43.79625" lon="5.25535">
        <ele>671</ele>
        <time>2021-11-14T10:05:53Z</time>
      </trkpt>
      <trkpt lat="43.79628" lon="5.25539">
        <ele>672</ele>
        <time>2021-11-14T10:05:57Z</time>
      </trkpt>
      <trkpt lat="43.7963" lon="5.25543">
        <ele>672</ele>
        <time>2021-11-14T10:06:00Z</time>
      </trkpt>
      <trkpt lat="43.79639" lon="5.25544">
        <ele>672</ele>
        <time>2021-11-14T10:06:08Z</time>
      </trkpt>
      <trkpt lat="43.79643" lon="5.25546">
        <ele>672</ele>
        <time>2021-11-14T10:06:12Z</time>
      </trkpt>
      <trkpt lat="43.79646" lon="5.25549">
        <ele>672</ele>
        <time>2021-11-14T10:06:16Z</time>
      </trkpt>
      <trkpt lat="43.7965" lon="5.25552">
        <ele>672</ele>
        <time>2021-11-14T10:06:20Z</time>
      </trkpt>
      <trkpt lat="43.79654" lon="5.25549">
        <ele>670</ele>
        <time>2021-11-14T10:06:24Z</time>
      </trkpt>
      <trkpt lat="43.79658" lon="5.25548">
        <ele>670</ele>
        <time>2021-11-14T10:06:28Z</time>
      </trkpt>
      <trkpt lat="43.79661" lon="5.25547">
        <ele>670</ele>
        <time>2021-11-14T10:06:31Z</time>
      </trkpt>
      <trkpt lat="43.79665" lon="5.25546">
        <ele>671</ele>
        <time>2021-11-14T10:06:34Z</time>
      </trkpt>
      <trkpt lat="43.79669" lon="5.25548">
        <ele>672</ele>
        <time>2021-11-14T10:06:38Z</time>
      </trkpt>
      <trkpt lat="43.79673" lon="5.25551">
        <ele>672</ele>
        <time>2021-11-14T10:06:42Z</time>
      </trkpt>
      <trkpt lat="43.79679" lon="5.25557">
        <ele>673</ele>
        <time>2021-11-14T10:06:50Z</time>
      </trkpt>
      <trkpt lat="43.79683" lon="5.2556">
        <ele>675</ele>
        <time>2021-11-14T10:06:54Z</time>
      </trkpt>
      <trkpt lat="43.79687" lon="5.2556">
        <ele>675</ele>
        <time>2021-11-14T10:06:58Z</time>
      </trkpt>
      <trkpt lat="43.7969" lon="5.25564">
        <ele>675</ele>
        <time>2021-11-14T10:07:02Z</time>
      </trkpt>
      <trkpt lat="43.79694" lon="5.25568">
        <ele>674</ele>
        <time>2021-11-14T10:07:06Z</time>
      </trkpt>
      <trkpt lat="43.79698" lon="5.25567">
        <ele>674</ele>
        <time>2021-11-14T10:07:10Z</time>
      </trkpt>
      <trkpt lat="43.79701" lon="5.25566">
        <ele>674</ele>
        <time>2021-11-14T10:07:15Z</time>
      </trkpt>
      <trkpt lat="43.79705" lon="5.25568">
        <ele>674</ele>
        <time>2021-11-14T10:07:19Z</time>
      </trkpt>
      <trkpt lat="43.79708" lon="5.25572">
        <ele>673</ele>
        <time>2021-11-14T10:07:23Z</time>
      </trkpt>
      <trkpt lat="43.79723" lon="5.25583">
        <ele>669</ele>
        <time>2021-11-14T10:07:39Z</time>
      </trkpt>
      <trkpt lat="43.79728" lon="5.25581">
        <ele>671</ele>
        <time>2021-11-14T10:07:43Z</time>
      </trkpt>
      <trkpt lat="43.79741" lon="5.25575">
        <ele>675</ele>
        <time>2021-11-14T10:07:53Z</time>
      </trkpt>
      <trkpt lat="43.79745" lon="5.25576">
        <ele>674</ele>
        <time>2021-11-14T10:07:56Z</time>
      </trkpt>
      <trkpt lat="43.79748" lon="5.25573">
        <ele>672</ele>
        <time>2021-11-14T10:08:01Z</time>
      </trkpt>
      <trkpt lat="43.79752" lon="5.25572">
        <ele>671</ele>
        <time>2021-11-14T10:08:04Z</time>
      </trkpt>
      <trkpt lat="43.79755" lon="5.25573">
        <ele>671</ele>
        <time>2021-11-14T10:08:08Z</time>
      </trkpt>
      <trkpt lat="43.79759" lon="5.25572">
        <ele>671</ele>
        <time>2021-11-14T10:08:12Z</time>
      </trkpt>
      <trkpt lat="43.79768" lon="5.25571">
        <ele>670</ele>
        <time>2021-11-14T10:08:21Z</time>
      </trkpt>
      <trkpt lat="43.79772" lon="5.25571">
        <ele>670</ele>
        <time>2021-11-14T10:08:25Z</time>
      </trkpt>
      <trkpt lat="43.79775" lon="5.25572">
        <ele>670</ele>
        <time>2021-11-14T10:08:29Z</time>
      </trkpt>
      <trkpt lat="43.79782" lon="5.25577">
        <ele>670</ele>
        <time>2021-11-14T10:08:36Z</time>
      </trkpt>
      <trkpt lat="43.79785" lon="5.25581">
        <ele>669</ele>
        <time>2021-11-14T10:08:39Z</time>
      </trkpt>
      <trkpt lat="43.79788" lon="5.25585">
        <ele>668</ele>
        <time>2021-11-14T10:08:43Z</time>
      </trkpt>
      <trkpt lat="43.7979" lon="5.25591">
        <ele>667</ele>
        <time>2021-11-14T10:08:47Z</time>
      </trkpt>
      <trkpt lat="43.79792" lon="5.25596">
        <ele>667</ele>
        <time>2021-11-14T10:08:51Z</time>
      </trkpt>
      <trkpt lat="43.79793" lon="5.25602">
        <ele>669</ele>
        <time>2021-11-14T10:08:55Z</time>
      </trkpt>
      <trkpt lat="43.79794" lon="5.25608">
        <ele>669</ele>
        <time>2021-11-14T10:08:59Z</time>
      </trkpt>
      <trkpt lat="43.79794" lon="5.25614">
        <ele>669</ele>
        <time>2021-11-14T10:09:03Z</time>
      </trkpt>
      <trkpt lat="43.79794" lon="5.2562">
        <ele>668</ele>
        <time>2021-11-14T10:09:07Z</time>
      </trkpt>
      <trkpt lat="43.79796" lon="5.25625">
        <ele>668</ele>
        <time>2021-11-14T10:09:10Z</time>
      </trkpt>
      <trkpt lat="43.79796" lon="5.2563">
        <ele>668</ele>
        <time>2021-11-14T10:09:13Z</time>
      </trkpt>
      <trkpt lat="43.79797" lon="5.25635">
        <ele>667</ele>
        <time>2021-11-14T10:09:17Z</time>
      </trkpt>
      <trkpt lat="43.79798" lon="5.25641">
        <ele>666</ele>
        <time>2021-11-14T10:09:21Z</time>
      </trkpt>
      <trkpt lat="43.79802" lon="5.25652">
        <ele>666</ele>
        <time>2021-11-14T10:09:28Z</time>
      </trkpt>
      <trkpt lat="43.79806" lon="5.25675">
        <ele>668</ele>
        <time>2021-11-14T10:09:41Z</time>
      </trkpt>
      <trkpt lat="43.79806" lon="5.25679">
        <ele>669</ele>
        <time>2021-11-14T10:09:44Z</time>
      </trkpt>
      <trkpt lat="43.79807" lon="5.25685">
        <ele>669</ele>
        <time>2021-11-14T10:09:47Z</time>
      </trkpt>
      <trkpt lat="43.79809" lon="5.25689">
        <ele>671</ele>
        <time>2021-11-14T10:09:50Z</time>
      </trkpt>
      <trkpt lat="43.79813" lon="5.257">
        <ele>672</ele>
        <time>2021-11-14T10:09:57Z</time>
      </trkpt>
      <trkpt lat="43.79816" lon="5.25716">
        <ele>672</ele>
        <time>2021-11-14T10:10:06Z</time>
      </trkpt>
      <trkpt lat="43.79815" lon="5.25734">
        <ele>670</ele>
        <time>2021-11-14T10:10:16Z</time>
      </trkpt>
      <trkpt lat="43.79813" lon="5.25739">
        <ele>672</ele>
        <time>2021-11-14T10:10:19Z</time>
      </trkpt>
      <trkpt lat="43.79809" lon="5.25748">
        <ele>673</ele>
        <time>2021-11-14T10:10:25Z</time>
      </trkpt>
      <trkpt lat="43.79809" lon="5.25755">
        <ele>673</ele>
        <time>2021-11-14T10:10:29Z</time>
      </trkpt>
      <trkpt lat="43.79809" lon="5.25761">
        <ele>674</ele>
        <time>2021-11-14T10:10:32Z</time>
      </trkpt>
      <trkpt lat="43.79812" lon="5.25765">
        <ele>674</ele>
        <time>2021-11-14T10:10:35Z</time>
      </trkpt>
      <trkpt lat="43.79817" lon="5.25787">
        <ele>675</ele>
        <time>2021-11-14T10:10:47Z</time>
      </trkpt>
      <trkpt lat="43.79819" lon="5.25792">
        <ele>676</ele>
        <time>2021-11-14T10:10:51Z</time>
      </trkpt>
      <trkpt lat="43.79825" lon="5.25805">
        <ele>679</ele>
        <time>2021-11-14T10:11:00Z</time>
      </trkpt>
      <trkpt lat="43.79827" lon="5.25831">
        <ele>678</ele>
        <time>2021-11-14T10:11:16Z</time>
      </trkpt>
      <trkpt lat="43.79827" lon="5.25845">
        <ele>678</ele>
        <time>2021-11-14T10:11:25Z</time>
      </trkpt>
      <trkpt lat="43.79829" lon="5.25859">
        <ele>677</ele>
        <time>2021-11-14T10:11:33Z</time>
      </trkpt>
      <trkpt lat="43.79832" lon="5.25872">
        <ele>677</ele>
        <time>2021-11-14T10:11:41Z</time>
      </trkpt>
      <trkpt lat="43.79828" lon="5.25885">
        <ele>677</ele>
        <time>2021-11-14T10:11:49Z</time>
      </trkpt>
      <trkpt lat="43.79843" lon="5.25905">
        <ele>678</ele>
        <time>2021-11-14T10:12:06Z</time>
      </trkpt>
      <trkpt lat="43.79846" lon="5.25917">
        <ele>679</ele>
        <time>2021-11-14T10:12:13Z</time>
      </trkpt>
      <trkpt lat="43.79853" lon="5.25924">
        <ele>680</ele>
        <time>2021-11-14T10:12:22Z</time>
      </trkpt>
      <trkpt lat="43.79857" lon="5.25935">
        <ele>680</ele>
        <time>2021-11-14T10:12:29Z</time>
      </trkpt>
      <trkpt lat="43.79868" lon="5.25959">
        <ele>683</ele>
        <time>2021-11-14T10:12:45Z</time>
      </trkpt>
      <trkpt lat="43.79878" lon="5.25993">
        <ele>687</ele>
        <time>2021-11-14T10:13:05Z</time>
      </trkpt>
      <trkpt lat="43.7988" lon="5.25998">
        <ele>686</ele>
        <time>2021-11-14T10:13:08Z</time>
      </trkpt>
      <trkpt lat="43.79888" lon="5.26023">
        <ele>685</ele>
        <time>2021-11-14T10:13:24Z</time>
      </trkpt>
      <trkpt lat="43.7989" lon="5.26027">
        <ele>686</ele>
        <time>2021-11-14T10:13:27Z</time>
      </trkpt>
      <trkpt lat="43.79897" lon="5.26041">
        <ele>688</ele>
        <time>2021-11-14T10:13:37Z</time>
      </trkpt>
      <trkpt lat="43.79899" lon="5.26044">
        <ele>689</ele>
        <time>2021-11-14T10:13:40Z</time>
      </trkpt>
      <trkpt lat="43.79901" lon="5.26049">
        <ele>690</ele>
        <time>2021-11-14T10:13:43Z</time>
      </trkpt>
      <trkpt lat="43.79912" lon="5.26067">
        <ele>692</ele>
        <time>2021-11-14T10:13:58Z</time>
      </trkpt>
      <trkpt lat="43.79914" lon="5.26077">
        <ele>692</ele>
        <time>2021-11-14T10:14:04Z</time>
      </trkpt>
      <trkpt lat="43.79914" lon="5.26083">
        <ele>692</ele>
        <time>2021-11-14T10:14:07Z</time>
      </trkpt>
      <trkpt lat="43.79916" lon="5.26088">
        <ele>691</ele>
        <time>2021-11-14T10:14:10Z</time>
      </trkpt>
      <trkpt lat="43.79918" lon="5.26093">
        <ele>692</ele>
        <time>2021-11-14T10:14:13Z</time>
      </trkpt>
      <trkpt lat="43.79919" lon="5.26098">
        <ele>691</ele>
        <time>2021-11-14T10:14:16Z</time>
      </trkpt>
      <trkpt lat="43.79921" lon="5.26103">
        <ele>691</ele>
        <time>2021-11-14T10:14:19Z</time>
      </trkpt>
      <trkpt lat="43.79925" lon="5.26119">
        <ele>693</ele>
        <time>2021-11-14T10:14:29Z</time>
      </trkpt>
      <trkpt lat="43.79926" lon="5.26124">
        <ele>693</ele>
        <time>2021-11-14T10:14:32Z</time>
      </trkpt>
      <trkpt lat="43.79927" lon="5.2613">
        <ele>693</ele>
        <time>2021-11-14T10:14:35Z</time>
      </trkpt>
      <trkpt lat="43.79929" lon="5.26135">
        <ele>693</ele>
        <time>2021-11-14T10:14:38Z</time>
      </trkpt>
      <trkpt lat="43.79929" lon="5.26141">
        <ele>693</ele>
        <time>2021-11-14T10:14:41Z</time>
      </trkpt>
      <trkpt lat="43.79927" lon="5.26146">
        <ele>693</ele>
        <time>2021-11-14T10:14:44Z</time>
      </trkpt>
      <trkpt lat="43.79925" lon="5.2615">
        <ele>692</ele>
        <time>2021-11-14T10:14:47Z</time>
      </trkpt>
      <trkpt lat="43.79924" lon="5.2616">
        <ele>693</ele>
        <time>2021-11-14T10:14:53Z</time>
      </trkpt>
      <trkpt lat="43.79925" lon="5.26165">
        <ele>693</ele>
        <time>2021-11-14T10:14:56Z</time>
      </trkpt>
      <trkpt lat="43.79927" lon="5.26169">
        <ele>695</ele>
        <time>2021-11-14T10:14:59Z</time>
      </trkpt>
      <trkpt lat="43.7993" lon="5.26174">
        <ele>697</ele>
        <time>2021-11-14T10:15:02Z</time>
      </trkpt>
      <trkpt lat="43.79931" lon="5.26179">
        <ele>697</ele>
        <time>2021-11-14T10:15:05Z</time>
      </trkpt>
      <trkpt lat="43.79929" lon="5.26183">
        <ele>697</ele>
        <time>2021-11-14T10:15:08Z</time>
      </trkpt>
      <trkpt lat="43.79929" lon="5.26189">
        <ele>695</ele>
        <time>2021-11-14T10:15:11Z</time>
      </trkpt>
      <trkpt lat="43.7993" lon="5.26194">
        <ele>695</ele>
        <time>2021-11-14T10:15:14Z</time>
      </trkpt>
      <trkpt lat="43.79934" lon="5.26198">
        <ele>695</ele>
        <time>2021-11-14T10:15:17Z</time>
      </trkpt>
      <trkpt lat="43.79935" lon="5.26204">
        <ele>695</ele>
        <time>2021-11-14T10:15:20Z</time>
      </trkpt>
      <trkpt lat="43.79936" lon="5.2621">
        <ele>695</ele>
        <time>2021-11-14T10:15:24Z</time>
      </trkpt>
      <trkpt lat="43.79937" lon="5.26215">
        <ele>695</ele>
        <time>2021-11-14T10:15:28Z</time>
      </trkpt>
      <trkpt lat="43.79939" lon="5.26227">
        <ele>694</ele>
        <time>2021-11-14T10:15:36Z</time>
      </trkpt>
      <trkpt lat="43.79939" lon="5.26233">
        <ele>694</ele>
        <time>2021-11-14T10:15:40Z</time>
      </trkpt>
      <trkpt lat="43.79942" lon="5.26237">
        <ele>697</ele>
        <time>2021-11-14T10:15:43Z</time>
      </trkpt>
      <trkpt lat="43.79943" lon="5.26242">
        <ele>698</ele>
        <time>2021-11-14T10:15:47Z</time>
      </trkpt>
      <trkpt lat="43.79944" lon="5.26248">
        <ele>699</ele>
        <time>2021-11-14T10:15:51Z</time>
      </trkpt>
      <trkpt lat="43.79951" lon="5.26254">
        <ele>701</ele>
        <time>2021-11-14T10:15:58Z</time>
      </trkpt>
      <trkpt lat="43.79958" lon="5.26261">
        <ele>703</ele>
        <time>2021-11-14T10:16:05Z</time>
      </trkpt>
      <trkpt lat="43.79961" lon="5.26271">
        <ele>703</ele>
        <time>2021-11-14T10:16:12Z</time>
      </trkpt>
      <trkpt lat="43.79965" lon="5.2628">
        <ele>702</ele>
        <time>2021-11-14T10:16:18Z</time>
      </trkpt>
      <trkpt lat="43.79969" lon="5.26295">
        <ele>700</ele>
        <time>2021-11-14T10:16:27Z</time>
      </trkpt>
      <trkpt lat="43.79973" lon="5.26306">
        <ele>701</ele>
        <time>2021-11-14T10:16:34Z</time>
      </trkpt>
      <trkpt lat="43.79978" lon="5.2631">
        <ele>702</ele>
        <time>2021-11-14T10:16:37Z</time>
      </trkpt>
      <trkpt lat="43.7998" lon="5.26316">
        <ele>702</ele>
        <time>2021-11-14T10:16:40Z</time>
      </trkpt>
      <trkpt lat="43.8" lon="5.26367">
        <ele>703</ele>
        <time>2021-11-14T10:17:10Z</time>
      </trkpt>
      <trkpt lat="43.80012" lon="5.26409">
        <ele>706</ele>
        <time>2021-11-14T10:17:34Z</time>
      </trkpt>
      <trkpt lat="43.80014" lon="5.26415">
        <ele>706</ele>
        <time>2021-11-14T10:17:37Z</time>
      </trkpt>
      <trkpt lat="43.80017" lon="5.26425">
        <ele>706</ele>
        <time>2021-11-14T10:17:43Z</time>
      </trkpt>
      <trkpt lat="43.80018" lon="5.26431">
        <ele>705</ele>
        <time>2021-11-14T10:17:46Z</time>
      </trkpt>
      <trkpt lat="43.8002" lon="5.26436">
        <ele>704</ele>
        <time>2021-11-14T10:17:49Z</time>
      </trkpt>
      <trkpt lat="43.80024" lon="5.26446">
        <ele>705</ele>
        <time>2021-11-14T10:17:55Z</time>
      </trkpt>
      <trkpt lat="43.80029" lon="5.26465">
        <ele>707</ele>
        <time>2021-11-14T10:18:07Z</time>
      </trkpt>
      <trkpt lat="43.80031" lon="5.26475">
        <ele>709</ele>
        <time>2021-11-14T10:18:13Z</time>
      </trkpt>
      <trkpt lat="43.80036" lon="5.2649">
        <ele>711</ele>
        <time>2021-11-14T10:18:22Z</time>
      </trkpt>
      <trkpt lat="43.80037" lon="5.26495">
        <ele>711</ele>
        <time>2021-11-14T10:18:25Z</time>
      </trkpt>
      <trkpt lat="43.80042" lon="5.26525">
        <ele>712</ele>
        <time>2021-11-14T10:18:43Z</time>
      </trkpt>
      <trkpt lat="43.80043" lon="5.2653">
        <ele>713</ele>
        <time>2021-11-14T10:18:46Z</time>
      </trkpt>
      <trkpt lat="43.80046" lon="5.2654">
        <ele>713</ele>
        <time>2021-11-14T10:18:52Z</time>
      </trkpt>
      <trkpt lat="43.8005" lon="5.26561">
        <ele>714</ele>
        <time>2021-11-14T10:19:04Z</time>
      </trkpt>
      <trkpt lat="43.80056" lon="5.26587">
        <ele>715</ele>
        <time>2021-11-14T10:19:19Z</time>
      </trkpt>
      <trkpt lat="43.80057" lon="5.266">
        <ele>714</ele>
        <time>2021-11-14T10:19:26Z</time>
      </trkpt>
      <trkpt lat="43.80061" lon="5.26613">
        <ele>715</ele>
        <time>2021-11-14T10:19:34Z</time>
      </trkpt>
      <trkpt lat="43.8007" lon="5.26636">
        <ele>714</ele>
        <time>2021-11-14T10:19:48Z</time>
      </trkpt>
      <trkpt lat="43.80073" lon="5.26649">
        <ele>712</ele>
        <time>2021-11-14T10:19:56Z</time>
      </trkpt>
      <trkpt lat="43.80085" lon="5.26673">
        <ele>715</ele>
        <time>2021-11-14T10:20:12Z</time>
      </trkpt>
      <trkpt lat="43.80089" lon="5.26682">
        <ele>715</ele>
        <time>2021-11-14T10:20:18Z</time>
      </trkpt>
      <trkpt lat="43.80094" lon="5.26691">
        <ele>717</ele>
        <time>2021-11-14T10:20:24Z</time>
      </trkpt>
      <trkpt lat="43.80098" lon="5.26701">
        <ele>718</ele>
        <time>2021-11-14T10:20:30Z</time>
      </trkpt>
      <trkpt lat="43.80101" lon="5.26712">
        <ele>717</ele>
        <time>2021-11-14T10:20:36Z</time>
      </trkpt>
      <trkpt lat="43.80099" lon="5.26718">
        <ele>717</ele>
        <time>2021-11-14T10:20:39Z</time>
      </trkpt>
      <trkpt lat="43.80096" lon="5.26721">
        <ele>716</ele>
        <time>2021-11-14T10:20:42Z</time>
      </trkpt>
      <trkpt lat="43.80092" lon="5.26724">
        <ele>715</ele>
        <time>2021-11-14T10:20:45Z</time>
      </trkpt>
      <trkpt lat="43.80081" lon="5.26732">
        <ele>713</ele>
        <time>2021-11-14T10:20:53Z</time>
      </trkpt>
      <trkpt lat="43.80076" lon="5.26734">
        <ele>712</ele>
        <time>2021-11-14T10:20:56Z</time>
      </trkpt>
      <trkpt lat="43.80071" lon="5.26737">
        <ele>712</ele>
        <time>2021-11-14T10:21:00Z</time>
      </trkpt>
      <trkpt lat="43.80042" lon="5.26746">
        <ele>716</ele>
        <time>2021-11-14T10:21:20Z</time>
      </trkpt>
      <trkpt lat="43.80038" lon="5.26745">
        <ele>716</ele>
        <time>2021-11-14T10:21:22Z</time>
      </trkpt>
      <trkpt lat="43.80017" lon="5.26744">
        <ele>717</ele>
        <time>2021-11-14T10:21:36Z</time>
      </trkpt>
      <trkpt lat="43.80008" lon="5.26741">
        <ele>715</ele>
        <time>2021-11-14T10:21:43Z</time>
      </trkpt>
      <trkpt lat="43.79979" lon="5.26739">
        <ele>717</ele>
        <time>2021-11-14T10:22:05Z</time>
      </trkpt>
      <trkpt lat="43.7997" lon="5.2674">
        <ele>719</ele>
        <time>2021-11-14T10:22:12Z</time>
      </trkpt>
      <trkpt lat="43.79947" lon="5.26738">
        <ele>716</ele>
        <time>2021-11-14T10:22:28Z</time>
      </trkpt>
      <trkpt lat="43.79935" lon="5.26736">
        <ele>716</ele>
        <time>2021-11-14T10:22:37Z</time>
      </trkpt>
      <trkpt lat="43.79923" lon="5.26735">
        <ele>714</ele>
        <time>2021-11-14T10:22:46Z</time>
      </trkpt>
      <trkpt lat="43.79898" lon="5.26733">
        <ele>717</ele>
        <time>2021-11-14T10:23:04Z</time>
      </trkpt>
      <trkpt lat="43.7989" lon="5.26731">
        <ele>715</ele>
        <time>2021-11-14T10:23:10Z</time>
      </trkpt>
      <trkpt lat="43.79885" lon="5.2673">
        <ele>714</ele>
        <time>2021-11-14T10:23:13Z</time>
      </trkpt>
      <trkpt lat="43.79882" lon="5.2673">
        <ele>714</ele>
        <time>2021-11-14T10:23:15Z</time>
      </trkpt>
      <trkpt lat="43.79878" lon="5.26728">
        <ele>714</ele>
        <time>2021-11-14T10:23:17Z</time>
      </trkpt>
      <trkpt lat="43.79874" lon="5.26726">
        <ele>715</ele>
        <time>2021-11-14T10:23:20Z</time>
      </trkpt>
      <trkpt lat="43.7985" lon="5.26718">
        <ele>716</ele>
        <time>2021-11-14T10:23:38Z</time>
      </trkpt>
      <trkpt lat="43.79839" lon="5.26717">
        <ele>714</ele>
        <time>2021-11-14T10:23:47Z</time>
      </trkpt>
      <trkpt lat="43.79835" lon="5.26716">
        <ele>715</ele>
        <time>2021-11-14T10:23:50Z</time>
      </trkpt>
      <trkpt lat="43.79831" lon="5.26713">
        <ele>714</ele>
        <time>2021-11-14T10:23:53Z</time>
      </trkpt>
      <trkpt lat="43.79826" lon="5.26711">
        <ele>713</ele>
        <time>2021-11-14T10:23:56Z</time>
      </trkpt>
      <trkpt lat="43.79822" lon="5.2671">
        <ele>712</ele>
        <time>2021-11-14T10:23:59Z</time>
      </trkpt>
      <trkpt lat="43.79799" lon="5.26703">
        <ele>710</ele>
        <time>2021-11-14T10:24:17Z</time>
      </trkpt>
      <trkpt lat="43.79795" lon="5.26701">
        <ele>710</ele>
        <time>2021-11-14T10:24:20Z</time>
      </trkpt>
      <trkpt lat="43.79784" lon="5.26697">
        <ele>709</ele>
        <time>2021-11-14T10:24:29Z</time>
      </trkpt>
      <trkpt lat="43.7978" lon="5.26694">
        <ele>708</ele>
        <time>2021-11-14T10:24:32Z</time>
      </trkpt>
      <trkpt lat="43.79776" lon="5.26693">
        <ele>709</ele>
        <time>2021-11-14T10:24:35Z</time>
      </trkpt>
      <trkpt lat="43.79747" lon="5.26683">
        <ele>709</ele>
        <time>2021-11-14T10:24:56Z</time>
      </trkpt>
      <trkpt lat="43.79739" lon="5.26681">
        <ele>707</ele>
        <time>2021-11-14T10:25:02Z</time>
      </trkpt>
      <trkpt lat="43.79731" lon="5.26675">
        <ele>707</ele>
        <time>2021-11-14T10:25:08Z</time>
      </trkpt>
      <trkpt lat="43.79727" lon="5.26673">
        <ele>706</ele>
        <time>2021-11-14T10:25:11Z</time>
      </trkpt>
      <trkpt lat="43.7972" lon="5.26669">
        <ele>707</ele>
        <time>2021-11-14T10:25:17Z</time>
      </trkpt>
      <trkpt lat="43.79711" lon="5.26669">
        <ele>708</ele>
        <time>2021-11-14T10:25:23Z</time>
      </trkpt>
      <trkpt lat="43.79707" lon="5.26669">
        <ele>708</ele>
        <time>2021-11-14T10:25:26Z</time>
      </trkpt>
      <trkpt lat="43.79703" lon="5.2667">
        <ele>708</ele>
        <time>2021-11-14T10:25:29Z</time>
      </trkpt>
      <trkpt lat="43.7969" lon="5.26671">
        <ele>707</ele>
        <time>2021-11-14T10:25:38Z</time>
      </trkpt>
      <trkpt lat="43.79682" lon="5.26672">
        <ele>707</ele>
        <time>2021-11-14T10:25:44Z</time>
      </trkpt>
      <trkpt lat="43.79678" lon="5.26674">
        <ele>707</ele>
        <time>2021-11-14T10:25:47Z</time>
      </trkpt>
      <trkpt lat="43.79674" lon="5.26674">
        <ele>707</ele>
        <time>2021-11-14T10:25:50Z</time>
      </trkpt>
      <trkpt lat="43.79661" lon="5.26678">
        <ele>704</ele>
        <time>2021-11-14T10:25:59Z</time>
      </trkpt>
      <trkpt lat="43.79657" lon="5.26677">
        <ele>703</ele>
        <time>2021-11-14T10:26:02Z</time>
      </trkpt>
      <trkpt lat="43.79645" lon="5.26676">
        <ele>700</ele>
        <time>2021-11-14T10:26:11Z</time>
      </trkpt>
      <trkpt lat="43.79641" lon="5.26676">
        <ele>700</ele>
        <time>2021-11-14T10:26:14Z</time>
      </trkpt>
      <trkpt lat="43.79636" lon="5.26677">
        <ele>701</ele>
        <time>2021-11-14T10:26:17Z</time>
      </trkpt>
      <trkpt lat="43.79633" lon="5.26675">
        <ele>701</ele>
        <time>2021-11-14T10:26:19Z</time>
      </trkpt>
      <trkpt lat="43.79625" lon="5.26673">
        <ele>702</ele>
        <time>2021-11-14T10:26:25Z</time>
      </trkpt>
      <trkpt lat="43.79621" lon="5.26673">
        <ele>702</ele>
        <time>2021-11-14T10:26:28Z</time>
      </trkpt>
      <trkpt lat="43.79617" lon="5.26672">
        <ele>701</ele>
        <time>2021-11-14T10:26:31Z</time>
      </trkpt>
      <trkpt lat="43.79612" lon="5.26673">
        <ele>701</ele>
        <time>2021-11-14T10:26:34Z</time>
      </trkpt>
      <trkpt lat="43.79609" lon="5.26671">
        <ele>702</ele>
        <time>2021-11-14T10:26:37Z</time>
      </trkpt>
      <trkpt lat="43.79567" lon="5.26672">
        <ele>697</ele>
        <time>2021-11-14T10:27:07Z</time>
      </trkpt>
      <trkpt lat="43.79563" lon="5.26673">
        <ele>697</ele>
        <time>2021-11-14T10:27:10Z</time>
      </trkpt>
      <trkpt lat="43.79559" lon="5.26675">
        <ele>697</ele>
        <time>2021-11-14T10:27:13Z</time>
      </trkpt>
      <trkpt lat="43.79531" lon="5.26678">
        <ele>696</ele>
        <time>2021-11-14T10:27:34Z</time>
      </trkpt>
      <trkpt lat="43.79515" lon="5.26676">
        <ele>695</ele>
        <time>2021-11-14T10:27:46Z</time>
      </trkpt>
      <trkpt lat="43.795" lon="5.26671">
        <ele>695</ele>
        <time>2021-11-14T10:27:58Z</time>
      </trkpt>
      <trkpt lat="43.79496" lon="5.26671">
        <ele>695</ele>
        <time>2021-11-14T10:28:01Z</time>
      </trkpt>
      <trkpt lat="43.7949" lon="5.2667">
        <ele>695</ele>
        <time>2021-11-14T10:28:05Z</time>
      </trkpt>
      <trkpt lat="43.79481" lon="5.26672">
        <ele>696</ele>
        <time>2021-11-14T10:28:11Z</time>
      </trkpt>
      <trkpt lat="43.79469" lon="5.26671">
        <ele>696</ele>
        <time>2021-11-14T10:28:20Z</time>
      </trkpt>
      <trkpt lat="43.79461" lon="5.26667">
        <ele>696</ele>
        <time>2021-11-14T10:28:26Z</time>
      </trkpt>
      <trkpt lat="43.79453" lon="5.26669">
        <ele>697</ele>
        <time>2021-11-14T10:28:32Z</time>
      </trkpt>
      <trkpt lat="43.79448" lon="5.26667">
        <ele>698</ele>
        <time>2021-11-14T10:28:35Z</time>
      </trkpt>
      <trkpt lat="43.79436" lon="5.26664">
        <ele>698</ele>
        <time>2021-11-14T10:28:44Z</time>
      </trkpt>
      <trkpt lat="43.79432" lon="5.26662">
        <ele>697</ele>
        <time>2021-11-14T10:28:47Z</time>
      </trkpt>
      <trkpt lat="43.79427" lon="5.26662">
        <ele>697</ele>
        <time>2021-11-14T10:28:50Z</time>
      </trkpt>
      <trkpt lat="43.79423" lon="5.26662">
        <ele>697</ele>
        <time>2021-11-14T10:28:53Z</time>
      </trkpt>
      <trkpt lat="43.79419" lon="5.26661">
        <ele>699</ele>
        <time>2021-11-14T10:28:56Z</time>
      </trkpt>
      <trkpt lat="43.79416" lon="5.26659">
        <ele>699</ele>
        <time>2021-11-14T10:28:59Z</time>
      </trkpt>
      <trkpt lat="43.79393" lon="5.26644">
        <ele>700</ele>
        <time>2021-11-14T10:29:17Z</time>
      </trkpt>
      <trkpt lat="43.79388" lon="5.26635">
        <ele>700</ele>
        <time>2021-11-14T10:29:22Z</time>
      </trkpt>
      <trkpt lat="43.79384" lon="5.26633">
        <ele>701</ele>
        <time>2021-11-14T10:29:25Z</time>
      </trkpt>
      <trkpt lat="43.7938" lon="5.26633">
        <ele>699</ele>
        <time>2021-11-14T10:29:29Z</time>
      </trkpt>
      <trkpt lat="43.79378" lon="5.26637">
        <ele>698</ele>
        <time>2021-11-14T10:29:32Z</time>
      </trkpt>
      <trkpt lat="43.79357" lon="5.26648">
        <ele>695</ele>
        <time>2021-11-14T10:29:51Z</time>
      </trkpt>
      <trkpt lat="43.79353" lon="5.26649">
        <ele>695</ele>
        <time>2021-11-14T10:29:54Z</time>
      </trkpt>
      <trkpt lat="43.79349" lon="5.26647">
        <ele>695</ele>
        <time>2021-11-14T10:29:57Z</time>
      </trkpt>
      <trkpt lat="43.79343" lon="5.26646">
        <ele>694</ele>
        <time>2021-11-14T10:30:07Z</time>
      </trkpt>
      <trkpt lat="43.7934" lon="5.26645">
        <ele>693</ele>
        <time>2021-11-14T10:30:11Z</time>
      </trkpt>
      <trkpt lat="43.79339" lon="5.26639">
        <ele>694</ele>
        <time>2021-11-14T10:30:18Z</time>
      </trkpt>
      <trkpt lat="43.79338" lon="5.26635">
        <ele>696</ele>
        <time>2021-11-14T10:30:28Z</time>
      </trkpt>
      <trkpt lat="43.79336" lon="5.2663">
        <ele>697</ele>
        <time>2021-11-14T10:30:32Z</time>
      </trkpt>
      <trkpt lat="43.79336" lon="5.26625">
        <ele>697</ele>
        <time>2021-11-14T10:30:36Z</time>
      </trkpt>
      <trkpt lat="43.79339" lon="5.26622">
        <ele>697</ele>
        <time>2021-11-14T10:30:48Z</time>
      </trkpt>
      <trkpt lat="43.79342" lon="5.26622">
        <ele>696</ele>
        <time>2021-11-14T10:30:54Z</time>
      </trkpt>
      <trkpt lat="43.79345" lon="5.26618">
        <ele>696</ele>
        <time>2021-11-14T10:30:57Z</time>
      </trkpt>
      <trkpt lat="43.79349" lon="5.26615">
        <ele>696</ele>
        <time>2021-11-14T10:31:00Z</time>
      </trkpt>
      <trkpt lat="43.7935" lon="5.2661">
        <ele>696</ele>
        <time>2021-11-14T10:31:03Z</time>
      </trkpt>
      <trkpt lat="43.79347" lon="5.26605">
        <ele>697</ele>
        <time>2021-11-14T10:31:10Z</time>
      </trkpt>
      <trkpt lat="43.79345" lon="5.26602">
        <ele>696</ele>
        <time>2021-11-14T10:31:26Z</time>
      </trkpt>
      <trkpt lat="43.79341" lon="5.26599">
        <ele>694</ele>
        <time>2021-11-14T10:31:33Z</time>
      </trkpt>
      <trkpt lat="43.79344" lon="5.26593">
        <ele>692</ele>
        <time>2021-11-14T10:32:38Z</time>
      </trkpt>
      <trkpt lat="43.79341" lon="5.26591">
        <ele>692</ele>
        <time>2021-11-14T10:32:43Z</time>
      </trkpt>
      <trkpt lat="43.79339" lon="5.26586">
        <ele>690</ele>
        <time>2021-11-14T10:32:53Z</time>
      </trkpt>
      <trkpt lat="43.79336" lon="5.26582">
        <ele>688</ele>
        <time>2021-11-14T10:32:58Z</time>
      </trkpt>
      <trkpt lat="43.79336" lon="5.26577">
        <ele>687</ele>
        <time>2021-11-14T10:33:03Z</time>
      </trkpt>
      <trkpt lat="43.79335" lon="5.26572">
        <ele>685</ele>
        <time>2021-11-14T10:33:09Z</time>
      </trkpt>
      <trkpt lat="43.79338" lon="5.26562">
        <ele>683</ele>
        <time>2021-11-14T10:33:16Z</time>
      </trkpt>
      <trkpt lat="43.79339" lon="5.26557">
        <ele>683</ele>
        <time>2021-11-14T10:33:20Z</time>
      </trkpt>
      <trkpt lat="43.79339" lon="5.26552">
        <ele>683</ele>
        <time>2021-11-14T10:33:26Z</time>
      </trkpt>
      <trkpt lat="43.79341" lon="5.26548">
        <ele>682</ele>
        <time>2021-11-14T10:33:31Z</time>
      </trkpt>
      <trkpt lat="43.79338" lon="5.26545">
        <ele>682</ele>
        <time>2021-11-14T10:33:37Z</time>
      </trkpt>
      <trkpt lat="43.79338" lon="5.2654">
        <ele>683</ele>
        <time>2021-11-14T10:33:44Z</time>
      </trkpt>
      <trkpt lat="43.79338" lon="5.26529">
        <ele>680</ele>
        <time>2021-11-14T10:33:54Z</time>
      </trkpt>
      <trkpt lat="43.79339" lon="5.26523">
        <ele>680</ele>
        <time>2021-11-14T10:33:58Z</time>
      </trkpt>
      <trkpt lat="43.79337" lon="5.26519">
        <ele>679</ele>
        <time>2021-11-14T10:34:03Z</time>
      </trkpt>
      <trkpt lat="43.7934" lon="5.26503">
        <ele>677</ele>
        <time>2021-11-14T10:34:13Z</time>
      </trkpt>
      <trkpt lat="43.7934" lon="5.26498">
        <ele>677</ele>
        <time>2021-11-14T10:34:17Z</time>
      </trkpt>
      <trkpt lat="43.7934" lon="5.26492">
        <ele>677</ele>
        <time>2021-11-14T10:34:21Z</time>
      </trkpt>
      <trkpt lat="43.79342" lon="5.26487">
        <ele>675</ele>
        <time>2021-11-14T10:34:25Z</time>
      </trkpt>
      <trkpt lat="43.7934" lon="5.26485">
        <ele>674</ele>
        <time>2021-11-14T10:34:42Z</time>
      </trkpt>
      <trkpt lat="43.79336" lon="5.26482">
        <ele>674</ele>
        <time>2021-11-14T10:34:46Z</time>
      </trkpt>
      <trkpt lat="43.79333" lon="5.26485">
        <ele>677</ele>
        <time>2021-11-14T10:34:49Z</time>
      </trkpt>
      <trkpt lat="43.7933" lon="5.26487">
        <ele>677</ele>
        <time>2021-11-14T10:34:55Z</time>
      </trkpt>
      <trkpt lat="43.79328" lon="5.26482">
        <ele>677</ele>
        <time>2021-11-14T10:34:58Z</time>
      </trkpt>
      <trkpt lat="43.79331" lon="5.26476">
        <ele>677</ele>
        <time>2021-11-14T10:35:01Z</time>
      </trkpt>
      <trkpt lat="43.79332" lon="5.26471">
        <ele>673</ele>
        <time>2021-11-14T10:35:04Z</time>
      </trkpt>
      <trkpt lat="43.79336" lon="5.26467">
        <ele>670</ele>
        <time>2021-11-14T10:35:07Z</time>
      </trkpt>
      <trkpt lat="43.79338" lon="5.26463">
        <ele>667</ele>
        <time>2021-11-14T10:35:10Z</time>
      </trkpt>
      <trkpt lat="43.79344" lon="5.26456">
        <ele>669</ele>
        <time>2021-11-14T10:35:16Z</time>
      </trkpt>
      <trkpt lat="43.79346" lon="5.2645">
        <ele>667</ele>
        <time>2021-11-14T10:35:20Z</time>
      </trkpt>
      <trkpt lat="43.79348" lon="5.26446">
        <ele>662</ele>
        <time>2021-11-14T10:35:25Z</time>
      </trkpt>
      <trkpt lat="43.79347" lon="5.26441">
        <ele>660</ele>
        <time>2021-11-14T10:35:29Z</time>
      </trkpt>
      <trkpt lat="43.79344" lon="5.26438">
        <ele>661</ele>
        <time>2021-11-14T10:35:34Z</time>
      </trkpt>
      <trkpt lat="43.7934" lon="5.26439">
        <ele>662</ele>
        <time>2021-11-14T10:35:39Z</time>
      </trkpt>
      <trkpt lat="43.79336" lon="5.26437">
        <ele>661</ele>
        <time>2021-11-14T10:35:44Z</time>
      </trkpt>
      <trkpt lat="43.79334" lon="5.26432">
        <ele>658</ele>
        <time>2021-11-14T10:35:48Z</time>
      </trkpt>
      <trkpt lat="43.79334" lon="5.26426">
        <ele>657</ele>
        <time>2021-11-14T10:35:51Z</time>
      </trkpt>
      <trkpt lat="43.79333" lon="5.26421">
        <ele>653</ele>
        <time>2021-11-14T10:35:55Z</time>
      </trkpt>
      <trkpt lat="43.79332" lon="5.2641">
        <ele>651</ele>
        <time>2021-11-14T10:36:01Z</time>
      </trkpt>
      <trkpt lat="43.79329" lon="5.26408">
        <ele>650</ele>
        <time>2021-11-14T10:36:04Z</time>
      </trkpt>
      <trkpt lat="43.79326" lon="5.26408">
        <ele>652</ele>
        <time>2021-11-14T10:36:07Z</time>
      </trkpt>
      <trkpt lat="43.79322" lon="5.26408">
        <ele>652</ele>
        <time>2021-11-14T10:36:11Z</time>
      </trkpt>
      <trkpt lat="43.79319" lon="5.26406">
        <ele>653</ele>
        <time>2021-11-14T10:36:15Z</time>
      </trkpt>
      <trkpt lat="43.79317" lon="5.26401">
        <ele>651</ele>
        <time>2021-11-14T10:36:19Z</time>
      </trkpt>
      <trkpt lat="43.79314" lon="5.26403">
        <ele>650</ele>
        <time>2021-11-14T10:36:26Z</time>
      </trkpt>
      <trkpt lat="43.7931" lon="5.26406">
        <ele>649</ele>
        <time>2021-11-14T10:36:30Z</time>
      </trkpt>
      <trkpt lat="43.79309" lon="5.26401">
        <ele>650</ele>
        <time>2021-11-14T10:36:48Z</time>
      </trkpt>
      <trkpt lat="43.79306" lon="5.26403">
        <ele>647</ele>
        <time>2021-11-14T10:37:10Z</time>
      </trkpt>
      <trkpt lat="43.79303" lon="5.26401">
        <ele>642</ele>
        <time>2021-11-14T10:37:17Z</time>
      </trkpt>
      <trkpt lat="43.79305" lon="5.26396">
        <ele>641</ele>
        <time>2021-11-14T10:37:21Z</time>
      </trkpt>
      <trkpt lat="43.79305" lon="5.26381">
        <ele>640</ele>
        <time>2021-11-14T10:37:48Z</time>
      </trkpt>
      <trkpt lat="43.79295" lon="5.26388">
        <ele>638</ele>
        <time>2021-11-14T10:38:14Z</time>
      </trkpt>
      <trkpt lat="43.79286" lon="5.26387">
        <ele>642</ele>
        <time>2021-11-14T10:38:39Z</time>
      </trkpt>
      <trkpt lat="43.79279" lon="5.26377">
        <ele>639</ele>
        <time>2021-11-14T10:38:57Z</time>
      </trkpt>
      <trkpt lat="43.79271" lon="5.26373">
        <ele>633</ele>
        <time>2021-11-14T10:39:13Z</time>
      </trkpt>
      <trkpt lat="43.79278" lon="5.26365">
        <ele>634</ele>
        <time>2021-11-14T10:39:43Z</time>
      </trkpt>
      <trkpt lat="43.79276" lon="5.26361">
        <ele>624</ele>
        <time>2021-11-14T10:40:20Z</time>
      </trkpt>
      <trkpt lat="43.79274" lon="5.26358">
        <ele>623</ele>
        <time>2021-11-14T10:40:30Z</time>
      </trkpt>
      <trkpt lat="43.79273" lon="5.26353">
        <ele>617</ele>
        <time>2021-11-14T10:40:46Z</time>
      </trkpt>
      <trkpt lat="43.79269" lon="5.26352">
        <ele>609</ele>
        <time>2021-11-14T10:41:08Z</time>
      </trkpt>
      <trkpt lat="43.79265" lon="5.26349">
        <ele>608</ele>
        <time>2021-11-14T10:41:19Z</time>
      </trkpt>
      <trkpt lat="43.79264" lon="5.26356">
        <ele>606</ele>
        <time>2021-11-14T10:41:36Z</time>
      </trkpt>
      <trkpt lat="43.79264" lon="5.26356">
        <ele>593</ele>
        <time>2021-11-14T10:42:18Z</time>
      </trkpt>
      <trkpt lat="43.79263" lon="5.26357">
        <ele>593</ele>
        <time>2021-11-14T10:42:42Z</time>
      </trkpt>
      <trkpt lat="43.79266" lon="5.26361">
        <ele>593</ele>
        <time>2021-11-14T10:42:45Z</time>
      </trkpt>
      <trkpt lat="43.79259" lon="5.2637">
        <ele>591</ele>
        <time>2021-11-14T10:42:58Z</time>
      </trkpt>
      <trkpt lat="43.79252" lon="5.26376">
        <ele>592</ele>
        <time>2021-11-14T10:43:08Z</time>
      </trkpt>
      <trkpt lat="43.79242" lon="5.26373">
        <ele>584</ele>
        <time>2021-11-14T10:43:32Z</time>
      </trkpt>
      <trkpt lat="43.79233" lon="5.26372">
        <ele>545</ele>
        <time>2021-11-14T10:44:07Z</time>
      </trkpt>
      <trkpt lat="43.79225" lon="5.26359">
        <ele>548</ele>
        <time>2021-11-14T10:44:30Z</time>
      </trkpt>
      <trkpt lat="43.79223" lon="5.26355">
        <ele>548</ele>
        <time>2021-11-14T10:44:35Z</time>
      </trkpt>
      <trkpt lat="43.79222" lon="5.2635">
        <ele>548</ele>
        <time>2021-11-14T10:44:39Z</time>
      </trkpt>
      <trkpt lat="43.79217" lon="5.26344">
        <ele>546</ele>
        <time>2021-11-14T10:44:46Z</time>
      </trkpt>
      <trkpt lat="43.79209" lon="5.26333">
        <ele>545</ele>
        <time>2021-11-14T10:45:02Z</time>
      </trkpt>
      <trkpt lat="43.79206" lon="5.2633">
        <ele>543</ele>
        <time>2021-11-14T10:45:09Z</time>
      </trkpt>
      <trkpt lat="43.79203" lon="5.26327">
        <ele>542</ele>
        <time>2021-11-14T10:45:13Z</time>
      </trkpt>
      <trkpt lat="43.79201" lon="5.26323">
        <ele>540</ele>
        <time>2021-11-14T10:45:19Z</time>
      </trkpt>
      <trkpt lat="43.79195" lon="5.26312">
        <ele>537</ele>
        <time>2021-11-14T10:46:16Z</time>
      </trkpt>
      <trkpt lat="43.79188" lon="5.2632">
        <ele>537</ele>
        <time>2021-11-14T10:46:24Z</time>
      </trkpt>
      <trkpt lat="43.79179" lon="5.26324">
        <ele>530</ele>
        <time>2021-11-14T10:46:46Z</time>
      </trkpt>
      <trkpt lat="43.7917" lon="5.2632">
        <ele>529</ele>
        <time>2021-11-14T10:47:04Z</time>
      </trkpt>
      <trkpt lat="43.79163" lon="5.26327">
        <ele>522</ele>
        <time>2021-11-14T10:47:18Z</time>
      </trkpt>
      <trkpt lat="43.79155" lon="5.26333">
        <ele>519</ele>
        <time>2021-11-14T10:47:40Z</time>
      </trkpt>
      <trkpt lat="43.79146" lon="5.26337">
        <ele>506</ele>
        <time>2021-11-14T10:47:55Z</time>
      </trkpt>
      <trkpt lat="43.79137" lon="5.26334">
        <ele>463</ele>
        <time>2021-11-14T10:48:07Z</time>
      </trkpt>
      <trkpt lat="43.79128" lon="5.26332">
        <ele>490</ele>
        <time>2021-11-14T10:48:16Z</time>
      </trkpt>
      <trkpt lat="43.79118" lon="5.26333">
        <ele>493</ele>
        <time>2021-11-14T10:48:27Z</time>
      </trkpt>
      <trkpt lat="43.79111" lon="5.26325">
        <ele>493</ele>
        <time>2021-11-14T10:48:36Z</time>
      </trkpt>
      <trkpt lat="43.79102" lon="5.2633">
        <ele>465</ele>
        <time>2021-11-14T10:48:46Z</time>
      </trkpt>
      <trkpt lat="43.79092" lon="5.26329">
        <ele>485</ele>
        <time>2021-11-14T10:49:00Z</time>
      </trkpt>
      <trkpt lat="43.79082" lon="5.26326">
        <ele>485</ele>
        <time>2021-11-14T10:49:18Z</time>
      </trkpt>
      <trkpt lat="43.79073" lon="5.2633">
        <ele>481</ele>
        <time>2021-11-14T10:49:29Z</time>
      </trkpt>
      <trkpt lat="43.79064" lon="5.26325">
        <ele>479</ele>
        <time>2021-11-14T10:49:41Z</time>
      </trkpt>
      <trkpt lat="43.79046" lon="5.26327">
        <ele>472</ele>
        <time>2021-11-14T10:50:02Z</time>
      </trkpt>
      <trkpt lat="43.7904" lon="5.26337">
        <ele>465</ele>
        <time>2021-11-14T10:50:17Z</time>
      </trkpt>
      <trkpt lat="43.79038" lon="5.26349">
        <ele>459</ele>
        <time>2021-11-14T10:50:34Z</time>
      </trkpt>
      <trkpt lat="43.79036" lon="5.26362">
        <ele>449</ele>
        <time>2021-11-14T10:50:43Z</time>
      </trkpt>
      <trkpt lat="43.79037" lon="5.26374">
        <ele>446</ele>
        <time>2021-11-14T10:50:53Z</time>
      </trkpt>
      <trkpt lat="43.79036" lon="5.26387">
        <ele>441</ele>
        <time>2021-11-14T10:51:01Z</time>
      </trkpt>
      <trkpt lat="43.79029" lon="5.26396">
        <ele>440</ele>
        <time>2021-11-14T10:51:10Z</time>
      </trkpt>
      <trkpt lat="43.79027" lon="5.26406">
        <ele>432</ele>
        <time>2021-11-14T10:53:22Z</time>
      </trkpt>
      <trkpt lat="43.79029" lon="5.26411">
        <ele>431</ele>
        <time>2021-11-14T10:53:27Z</time>
      </trkpt>
      <trkpt lat="43.79031" lon="5.26422">
        <ele>434</ele>
        <time>2021-11-14T10:53:35Z</time>
      </trkpt>
      <trkpt lat="43.79031" lon="5.26428">
        <ele>434</ele>
        <time>2021-11-14T10:53:38Z</time>
      </trkpt>
      <trkpt lat="43.79033" lon="5.26434">
        <ele>434</ele>
        <time>2021-11-14T10:53:41Z</time>
      </trkpt>
      <trkpt lat="43.79032" lon="5.26439">
        <ele>433</ele>
        <time>2021-11-14T10:53:44Z</time>
      </trkpt>
      <trkpt lat="43.79032" lon="5.26445">
        <ele>433</ele>
        <time>2021-11-14T10:53:47Z</time>
      </trkpt>
      <trkpt lat="43.79032" lon="5.2645">
        <ele>433</ele>
        <time>2021-11-14T10:53:50Z</time>
      </trkpt>
      <trkpt lat="43.79033" lon="5.26456">
        <ele>433</ele>
        <time>2021-11-14T10:53:54Z</time>
      </trkpt>
      <trkpt lat="43.7903" lon="5.26473">
        <ele>435</ele>
        <time>2021-11-14T10:54:05Z</time>
      </trkpt>
      <trkpt lat="43.79031" lon="5.26479">
        <ele>436</ele>
        <time>2021-11-14T10:54:08Z</time>
      </trkpt>
      <trkpt lat="43.79031" lon="5.2649">
        <ele>436</ele>
        <time>2021-11-14T10:54:15Z</time>
      </trkpt>
      <trkpt lat="43.7903" lon="5.26496">
        <ele>433</ele>
        <time>2021-11-14T10:54:19Z</time>
      </trkpt>
      <trkpt lat="43.79032" lon="5.26503">
        <ele>432</ele>
        <time>2021-11-14T10:54:22Z</time>
      </trkpt>
      <trkpt lat="43.79031" lon="5.26508">
        <ele>432</ele>
        <time>2021-11-14T10:54:25Z</time>
      </trkpt>
      <trkpt lat="43.79032" lon="5.26519">
        <ele>432</ele>
        <time>2021-11-14T10:54:31Z</time>
      </trkpt>
      <trkpt lat="43.79033" lon="5.26525">
        <ele>434</ele>
        <time>2021-11-14T10:54:35Z</time>
      </trkpt>
      <trkpt lat="43.79033" lon="5.2653">
        <ele>435</ele>
        <time>2021-11-14T10:54:39Z</time>
      </trkpt>
      <trkpt lat="43.79036" lon="5.26551">
        <ele>440</ele>
        <time>2021-11-14T10:54:54Z</time>
      </trkpt>
      <trkpt lat="43.79036" lon="5.26557">
        <ele>440</ele>
        <time>2021-11-14T10:54:57Z</time>
      </trkpt>
      <trkpt lat="43.79034" lon="5.26566">
        <ele>438</ele>
        <time>2021-11-14T10:55:03Z</time>
      </trkpt>
      <trkpt lat="43.79033" lon="5.26572">
        <ele>439</ele>
        <time>2021-11-14T10:55:06Z</time>
      </trkpt>
      <trkpt lat="43.79033" lon="5.26577">
        <ele>439</ele>
        <time>2021-11-14T10:55:09Z</time>
      </trkpt>
      <trkpt lat="43.79033" lon="5.26583">
        <ele>440</ele>
        <time>2021-11-14T10:55:12Z</time>
      </trkpt>
      <trkpt lat="43.79033" lon="5.26604">
        <ele>444</ele>
        <time>2021-11-14T10:55:25Z</time>
      </trkpt>
      <trkpt lat="43.79028" lon="5.26616">
        <ele>444</ele>
        <time>2021-11-14T10:55:33Z</time>
      </trkpt>
      <trkpt lat="43.79013" lon="5.26632">
        <ele>442</ele>
        <time>2021-11-14T10:55:47Z</time>
      </trkpt>
      <trkpt lat="43.79008" lon="5.26642">
        <ele>444</ele>
        <time>2021-11-14T10:55:54Z</time>
      </trkpt>
      <trkpt lat="43.79005" lon="5.26653">
        <ele>446</ele>
        <time>2021-11-14T10:56:00Z</time>
      </trkpt>
      <trkpt lat="43.79004" lon="5.26658">
        <ele>447</ele>
        <time>2021-11-14T10:56:03Z</time>
      </trkpt>
      <trkpt lat="43.79001" lon="5.2667">
        <ele>450</ele>
        <time>2021-11-14T10:56:10Z</time>
      </trkpt>
      <trkpt lat="43.79002" lon="5.26676">
        <ele>451</ele>
        <time>2021-11-14T10:56:13Z</time>
      </trkpt>
      <trkpt lat="43.78998" lon="5.26689">
        <ele>451</ele>
        <time>2021-11-14T10:56:21Z</time>
      </trkpt>
      <trkpt lat="43.78997" lon="5.26705">
        <ele>447</ele>
        <time>2021-11-14T10:56:31Z</time>
      </trkpt>
      <trkpt lat="43.78994" lon="5.26714">
        <ele>448</ele>
        <time>2021-11-14T10:56:37Z</time>
      </trkpt>
      <trkpt lat="43.7899" lon="5.26755">
        <ele>452</ele>
        <time>2021-11-14T10:57:02Z</time>
      </trkpt>
      <trkpt lat="43.7899" lon="5.2676">
        <ele>453</ele>
        <time>2021-11-14T10:57:05Z</time>
      </trkpt>
      <trkpt lat="43.7899" lon="5.26775">
        <ele>454</ele>
        <time>2021-11-14T10:57:14Z</time>
      </trkpt>
      <trkpt lat="43.78992" lon="5.26786">
        <ele>455</ele>
        <time>2021-11-14T10:57:21Z</time>
      </trkpt>
      <trkpt lat="43.78996" lon="5.268">
        <ele>456</ele>
        <time>2021-11-14T10:57:30Z</time>
      </trkpt>
      <trkpt lat="43.78992" lon="5.26825">
        <ele>461</ele>
        <time>2021-11-14T10:57:46Z</time>
      </trkpt>
      <trkpt lat="43.78989" lon="5.26838">
        <ele>462</ele>
        <time>2021-11-14T10:57:55Z</time>
      </trkpt>
      <trkpt lat="43.78986" lon="5.2685">
        <ele>463</ele>
        <time>2021-11-14T10:58:02Z</time>
      </trkpt>
      <trkpt lat="43.78982" lon="5.26862">
        <ele>457</ele>
        <time>2021-11-14T10:58:09Z</time>
      </trkpt>
      <trkpt lat="43.78981" lon="5.26891">
        <ele>462</ele>
        <time>2021-11-14T10:58:27Z</time>
      </trkpt>
      <trkpt lat="43.7898" lon="5.2692">
        <ele>465</ele>
        <time>2021-11-14T10:58:46Z</time>
      </trkpt>
      <trkpt lat="43.78979" lon="5.26925">
        <ele>467</ele>
        <time>2021-11-14T10:58:49Z</time>
      </trkpt>
      <trkpt lat="43.78977" lon="5.26929">
        <ele>469</ele>
        <time>2021-11-14T10:58:52Z</time>
      </trkpt>
      <trkpt lat="43.78979" lon="5.26934">
        <ele>470</ele>
        <time>2021-11-14T10:58:55Z</time>
      </trkpt>
      <trkpt lat="43.78978" lon="5.26945">
        <ele>473</ele>
        <time>2021-11-14T10:59:02Z</time>
      </trkpt>
      <trkpt lat="43.78977" lon="5.2695">
        <ele>472</ele>
        <time>2021-11-14T10:59:05Z</time>
      </trkpt>
      <trkpt lat="43.78976" lon="5.26961">
        <ele>473</ele>
        <time>2021-11-14T10:59:12Z</time>
      </trkpt>
      <trkpt lat="43.78979" lon="5.26977">
        <ele>472</ele>
        <time>2021-11-14T10:59:22Z</time>
      </trkpt>
      <trkpt lat="43.78981" lon="5.26989">
        <ele>474</ele>
        <time>2021-11-14T10:59:30Z</time>
      </trkpt>
      <trkpt lat="43.78985" lon="5.26993">
        <ele>474</ele>
        <time>2021-11-14T10:59:33Z</time>
      </trkpt>
      <trkpt lat="43.78986" lon="5.26998">
        <ele>475</ele>
        <time>2021-11-14T10:59:37Z</time>
      </trkpt>
      <trkpt lat="43.78988" lon="5.27002">
        <ele>476</ele>
        <time>2021-11-14T10:59:40Z</time>
      </trkpt>
      <trkpt lat="43.7899" lon="5.27007">
        <ele>476</ele>
        <time>2021-11-14T10:59:44Z</time>
      </trkpt>
      <trkpt lat="43.79001" lon="5.27037">
        <ele>482</ele>
        <time>2021-11-14T11:00:06Z</time>
      </trkpt>
      <trkpt lat="43.79002" lon="5.27043">
        <ele>483</ele>
        <time>2021-11-14T11:00:10Z</time>
      </trkpt>
      <trkpt lat="43.79003" lon="5.27049">
        <ele>483</ele>
        <time>2021-11-14T11:00:14Z</time>
      </trkpt>
      <trkpt lat="43.79006" lon="5.27066">
        <ele>483</ele>
        <time>2021-11-14T11:00:25Z</time>
      </trkpt>
      <trkpt lat="43.79005" lon="5.27071">
        <ele>483</ele>
        <time>2021-11-14T11:00:28Z</time>
      </trkpt>
      <trkpt lat="43.79006" lon="5.27085">
        <ele>483</ele>
        <time>2021-11-14T11:00:36Z</time>
      </trkpt>
      <trkpt lat="43.79006" lon="5.27099">
        <ele>483</ele>
        <time>2021-11-14T11:00:45Z</time>
      </trkpt>
      <trkpt lat="43.7901" lon="5.27136">
        <ele>484</ele>
        <time>2021-11-14T11:01:11Z</time>
      </trkpt>
      <trkpt lat="43.79009" lon="5.2715">
        <ele>488</ele>
        <time>2021-11-14T11:01:20Z</time>
      </trkpt>
      <trkpt lat="43.7901" lon="5.27177">
        <ele>489</ele>
        <time>2021-11-14T11:01:39Z</time>
      </trkpt>
      <trkpt lat="43.79012" lon="5.27189">
        <ele>490</ele>
        <time>2021-11-14T11:01:47Z</time>
      </trkpt>
      <trkpt lat="43.79017" lon="5.272">
        <ele>492</ele>
        <time>2021-11-14T11:01:55Z</time>
      </trkpt>
      <trkpt lat="43.79025" lon="5.27224">
        <ele>495</ele>
        <time>2021-11-14T11:02:14Z</time>
      </trkpt>
      <trkpt lat="43.79026" lon="5.27236">
        <ele>494</ele>
        <time>2021-11-14T11:02:23Z</time>
      </trkpt>
      <trkpt lat="43.79027" lon="5.27248">
        <ele>499</ele>
        <time>2021-11-14T11:02:33Z</time>
      </trkpt>
      <trkpt lat="43.79027" lon="5.27261">
        <ele>501</ele>
        <time>2021-11-14T11:02:42Z</time>
      </trkpt>
      <trkpt lat="43.79032" lon="5.27312">
        <ele>505</ele>
        <time>2021-11-14T11:03:21Z</time>
      </trkpt>
      <trkpt lat="43.79028" lon="5.27337">
        <ele>508</ele>
        <time>2021-11-14T11:03:42Z</time>
      </trkpt>
      <trkpt lat="43.79031" lon="5.27349">
        <ele>511</ele>
        <time>2021-11-14T11:03:53Z</time>
      </trkpt>
      <trkpt lat="43.7903" lon="5.27375">
        <ele>512</ele>
        <time>2021-11-14T11:04:13Z</time>
      </trkpt>
      <trkpt lat="43.79027" lon="5.27401">
        <ele>513</ele>
        <time>2021-11-14T11:04:32Z</time>
      </trkpt>
      <trkpt lat="43.79021" lon="5.27411">
        <ele>512</ele>
        <time>2021-11-14T11:04:40Z</time>
      </trkpt>
      <trkpt lat="43.79019" lon="5.27423">
        <ele>516</ele>
        <time>2021-11-14T11:04:49Z</time>
      </trkpt>
      <trkpt lat="43.79019" lon="5.27436">
        <ele>518</ele>
        <time>2021-11-14T11:05:00Z</time>
      </trkpt>
      <trkpt lat="43.79021" lon="5.27448">
        <ele>529</ele>
        <time>2021-11-14T11:05:16Z</time>
      </trkpt>
      <trkpt lat="43.79019" lon="5.27462">
        <ele>528</ele>
        <time>2021-11-14T11:05:28Z</time>
      </trkpt>
      <trkpt lat="43.79021" lon="5.27468">
        <ele>525</ele>
        <time>2021-11-14T11:05:34Z</time>
      </trkpt>
      <trkpt lat="43.79024" lon="5.27471">
        <ele>522</ele>
        <time>2021-11-14T11:05:39Z</time>
      </trkpt>
      <trkpt lat="43.79027" lon="5.27475">
        <ele>522</ele>
        <time>2021-11-14T11:05:45Z</time>
      </trkpt>
      <trkpt lat="43.7903" lon="5.27479">
        <ele>523</ele>
        <time>2021-11-14T11:05:50Z</time>
      </trkpt>
      <trkpt lat="43.79032" lon="5.27482">
        <ele>524</ele>
        <time>2021-11-14T11:05:57Z</time>
      </trkpt>
      <trkpt lat="43.79039" lon="5.27495">
        <ele>527</ele>
        <time>2021-11-14T11:06:11Z</time>
      </trkpt>
      <trkpt lat="43.79039" lon="5.275">
        <ele>526</ele>
        <time>2021-11-14T11:06:15Z</time>
      </trkpt>
      <trkpt lat="43.79036" lon="5.27498">
        <ele>527</ele>
        <time>2021-11-14T11:06:19Z</time>
      </trkpt>
      <trkpt lat="43.79033" lon="5.27502">
        <ele>531</ele>
        <time>2021-11-14T11:06:24Z</time>
      </trkpt>
      <trkpt lat="43.7903" lon="5.27506">
        <ele>531</ele>
        <time>2021-11-14T11:06:31Z</time>
      </trkpt>
      <trkpt lat="43.79028" lon="5.27511">
        <ele>533</ele>
        <time>2021-11-14T11:06:40Z</time>
      </trkpt>
      <trkpt lat="43.79025" lon="5.27514">
        <ele>532</ele>
        <time>2021-11-14T11:06:44Z</time>
      </trkpt>
      <trkpt lat="43.79023" lon="5.27518">
        <ele>531</ele>
        <time>2021-11-14T11:06:50Z</time>
      </trkpt>
      <trkpt lat="43.79022" lon="5.27523">
        <ele>530</ele>
        <time>2021-11-14T11:06:58Z</time>
      </trkpt>
      <trkpt lat="43.79024" lon="5.27527">
        <ele>531</ele>
        <time>2021-11-14T11:07:06Z</time>
      </trkpt>
      <trkpt lat="43.79025" lon="5.27533">
        <ele>534</ele>
        <time>2021-11-14T11:07:15Z</time>
      </trkpt>
      <trkpt lat="43.79025" lon="5.27538">
        <ele>537</ele>
        <time>2021-11-14T11:07:21Z</time>
      </trkpt>
      <trkpt lat="43.79023" lon="5.27544">
        <ele>538</ele>
        <time>2021-11-14T11:07:26Z</time>
      </trkpt>
      <trkpt lat="43.79022" lon="5.2755">
        <ele>540</ele>
        <time>2021-11-14T11:07:33Z</time>
      </trkpt>
      <trkpt lat="43.79023" lon="5.27555">
        <ele>545</ele>
        <time>2021-11-14T11:07:39Z</time>
      </trkpt>
      <trkpt lat="43.7902" lon="5.27559">
        <ele>547</ele>
        <time>2021-11-14T11:07:45Z</time>
      </trkpt>
      <trkpt lat="43.79017" lon="5.27568">
        <ele>550</ele>
        <time>2021-11-14T11:07:58Z</time>
      </trkpt>
      <trkpt lat="43.79016" lon="5.27579">
        <ele>552</ele>
        <time>2021-11-14T11:08:12Z</time>
      </trkpt>
      <trkpt lat="43.79013" lon="5.2759">
        <ele>554</ele>
        <time>2021-11-14T11:08:24Z</time>
      </trkpt>
      <trkpt lat="43.79012" lon="5.27595">
        <ele>556</ele>
        <time>2021-11-14T11:08:30Z</time>
      </trkpt>
      <trkpt lat="43.79011" lon="5.276">
        <ele>557</ele>
        <time>2021-11-14T11:08:35Z</time>
      </trkpt>
      <trkpt lat="43.79007" lon="5.27601">
        <ele>558</ele>
        <time>2021-11-14T11:08:40Z</time>
      </trkpt>
      <trkpt lat="43.79005" lon="5.27606">
        <ele>559</ele>
        <time>2021-11-14T11:08:46Z</time>
      </trkpt>
      <trkpt lat="43.79004" lon="5.2761">
        <ele>563</ele>
        <time>2021-11-14T11:08:52Z</time>
      </trkpt>
      <trkpt lat="43.79002" lon="5.27614">
        <ele>565</ele>
        <time>2021-11-14T11:08:59Z</time>
      </trkpt>
      <trkpt lat="43.78999" lon="5.27617">
        <ele>567</ele>
        <time>2021-11-14T11:09:06Z</time>
      </trkpt>
      <trkpt lat="43.79" lon="5.27622">
        <ele>567</ele>
        <time>2021-11-14T11:09:11Z</time>
      </trkpt>
      <trkpt lat="43.78998" lon="5.27632">
        <ele>570</ele>
        <time>2021-11-14T11:09:23Z</time>
      </trkpt>
      <trkpt lat="43.78994" lon="5.27631">
        <ele>572</ele>
        <time>2021-11-14T11:09:42Z</time>
      </trkpt>
      <trkpt lat="43.78992" lon="5.27627">
        <ele>573</ele>
        <time>2021-11-14T11:09:46Z</time>
      </trkpt>
      <trkpt lat="43.78978" lon="5.2761">
        <ele>575</ele>
        <time>2021-11-14T11:10:04Z</time>
      </trkpt>
      <trkpt lat="43.78975" lon="5.27606">
        <ele>576</ele>
        <time>2021-11-14T11:10:07Z</time>
      </trkpt>
      <trkpt lat="43.78968" lon="5.27595">
        <ele>577</ele>
        <time>2021-11-14T11:10:17Z</time>
      </trkpt>
      <trkpt lat="43.78961" lon="5.2759">
        <ele>580</ele>
        <time>2021-11-14T11:10:24Z</time>
      </trkpt>
      <trkpt lat="43.78958" lon="5.27586">
        <ele>581</ele>
        <time>2021-11-14T11:10:28Z</time>
      </trkpt>
      <trkpt lat="43.78954" lon="5.27583">
        <ele>582</ele>
        <time>2021-11-14T11:10:33Z</time>
      </trkpt>
      <trkpt lat="43.78951" lon="5.27581">
        <ele>582</ele>
        <time>2021-11-14T11:10:37Z</time>
      </trkpt>
      <trkpt lat="43.78949" lon="5.27577">
        <ele>581</ele>
        <time>2021-11-14T11:10:40Z</time>
      </trkpt>
      <trkpt lat="43.78945" lon="5.27574">
        <ele>583</ele>
        <time>2021-11-14T11:10:44Z</time>
      </trkpt>
      <trkpt lat="43.7894" lon="5.27558">
        <ele>584</ele>
        <time>2021-11-14T11:10:55Z</time>
      </trkpt>
      <trkpt lat="43.78937" lon="5.27555">
        <ele>584</ele>
        <time>2021-11-14T11:10:58Z</time>
      </trkpt>
      <trkpt lat="43.78935" lon="5.27551">
        <ele>585</ele>
        <time>2021-11-14T11:11:01Z</time>
      </trkpt>
      <trkpt lat="43.78933" lon="5.27547">
        <ele>584</ele>
        <time>2021-11-14T11:11:04Z</time>
      </trkpt>
      <trkpt lat="43.7893" lon="5.27544">
        <ele>585</ele>
        <time>2021-11-14T11:11:07Z</time>
      </trkpt>
      <trkpt lat="43.78929" lon="5.27538">
        <ele>586</ele>
        <time>2021-11-14T11:11:11Z</time>
      </trkpt>
      <trkpt lat="43.78928" lon="5.27533">
        <ele>585</ele>
        <time>2021-11-14T11:11:14Z</time>
      </trkpt>
      <trkpt lat="43.78926" lon="5.27529">
        <ele>585</ele>
        <time>2021-11-14T11:11:17Z</time>
      </trkpt>
      <trkpt lat="43.78922" lon="5.27519">
        <ele>586</ele>
        <time>2021-11-14T11:11:24Z</time>
      </trkpt>
      <trkpt lat="43.7892" lon="5.2751">
        <ele>586</ele>
        <time>2021-11-14T11:11:30Z</time>
      </trkpt>
      <trkpt lat="43.78918" lon="5.27506">
        <ele>586</ele>
        <time>2021-11-14T11:11:33Z</time>
      </trkpt>
      <trkpt lat="43.78915" lon="5.27504">
        <ele>586</ele>
        <time>2021-11-14T11:11:36Z</time>
      </trkpt>
      <trkpt lat="43.7891" lon="5.27495">
        <ele>587</ele>
        <time>2021-11-14T11:11:43Z</time>
      </trkpt>
      <trkpt lat="43.78907" lon="5.27492">
        <ele>587</ele>
        <time>2021-11-14T11:11:46Z</time>
      </trkpt>
      <trkpt lat="43.78903" lon="5.2749">
        <ele>587</ele>
        <time>2021-11-14T11:11:50Z</time>
      </trkpt>
      <trkpt lat="43.78896" lon="5.27487">
        <ele>585</ele>
        <time>2021-11-14T11:11:58Z</time>
      </trkpt>
      <trkpt lat="43.78893" lon="5.27486">
        <ele>583</ele>
        <time>2021-11-14T11:12:01Z</time>
      </trkpt>
      <trkpt lat="43.78885" lon="5.27485">
        <ele>582</ele>
        <time>2021-11-14T11:12:08Z</time>
      </trkpt>
      <trkpt lat="43.78878" lon="5.27482">
        <ele>580</ele>
        <time>2021-11-14T11:12:14Z</time>
      </trkpt>
      <trkpt lat="43.78852" lon="5.27487">
        <ele>577</ele>
        <time>2021-11-14T11:12:36Z</time>
      </trkpt>
      <trkpt lat="43.78829" lon="5.27483">
        <ele>572</ele>
        <time>2021-11-14T11:12:55Z</time>
      </trkpt>
      <trkpt lat="43.78826" lon="5.2748">
        <ele>572</ele>
        <time>2021-11-14T11:12:58Z</time>
      </trkpt>
      <trkpt lat="43.78821" lon="5.27479">
        <ele>573</ele>
        <time>2021-11-14T11:13:01Z</time>
      </trkpt>
      <trkpt lat="43.78818" lon="5.27476">
        <ele>573</ele>
        <time>2021-11-14T11:13:04Z</time>
      </trkpt>
      <trkpt lat="43.78802" lon="5.27473">
        <ele>576</ele>
        <time>2021-11-14T11:13:17Z</time>
      </trkpt>
      <trkpt lat="43.78797" lon="5.27472">
        <ele>576</ele>
        <time>2021-11-14T11:13:20Z</time>
      </trkpt>
      <trkpt lat="43.78777" lon="5.27464">
        <ele>575</ele>
        <time>2021-11-14T11:13:32Z</time>
      </trkpt>
      <trkpt lat="43.78773" lon="5.27461">
        <ele>574</ele>
        <time>2021-11-14T11:13:35Z</time>
      </trkpt>
      <trkpt lat="43.78763" lon="5.27453">
        <ele>575</ele>
        <time>2021-11-14T11:13:49Z</time>
      </trkpt>
      <trkpt lat="43.78759" lon="5.27452">
        <ele>577</ele>
        <time>2021-11-14T11:13:54Z</time>
      </trkpt>
      <trkpt lat="43.78755" lon="5.27449">
        <ele>577</ele>
        <time>2021-11-14T11:13:57Z</time>
      </trkpt>
      <trkpt lat="43.78752" lon="5.27445">
        <ele>577</ele>
        <time>2021-11-14T11:14:01Z</time>
      </trkpt>
      <trkpt lat="43.7875" lon="5.27435">
        <ele>578</ele>
        <time>2021-11-14T11:14:08Z</time>
      </trkpt>
      <trkpt lat="43.78743" lon="5.27432">
        <ele>580</ele>
        <time>2021-11-14T11:14:15Z</time>
      </trkpt>
      <trkpt lat="43.78739" lon="5.27434">
        <ele>580</ele>
        <time>2021-11-14T11:14:18Z</time>
      </trkpt>
      <trkpt lat="43.78735" lon="5.27434">
        <ele>581</ele>
        <time>2021-11-14T11:14:21Z</time>
      </trkpt>
      <trkpt lat="43.78731" lon="5.2743">
        <ele>582</ele>
        <time>2021-11-14T11:14:25Z</time>
      </trkpt>
      <trkpt lat="43.78727" lon="5.27428">
        <ele>584</ele>
        <time>2021-11-14T11:14:29Z</time>
      </trkpt>
      <trkpt lat="43.78723" lon="5.27426">
        <ele>584</ele>
        <time>2021-11-14T11:14:33Z</time>
      </trkpt>
      <trkpt lat="43.78722" lon="5.27421">
        <ele>585</ele>
        <time>2021-11-14T11:14:36Z</time>
      </trkpt>
      <trkpt lat="43.78718" lon="5.27419">
        <ele>584</ele>
        <time>2021-11-14T11:14:40Z</time>
      </trkpt>
      <trkpt lat="43.78706" lon="5.27415">
        <ele>583</ele>
        <time>2021-11-14T11:14:53Z</time>
      </trkpt>
      <trkpt lat="43.78699" lon="5.27402">
        <ele>585</ele>
        <time>2021-11-14T11:15:04Z</time>
      </trkpt>
      <trkpt lat="43.78696" lon="5.27398">
        <ele>585</ele>
        <time>2021-11-14T11:15:08Z</time>
      </trkpt>
      <trkpt lat="43.78685" lon="5.27392">
        <ele>586</ele>
        <time>2021-11-14T11:15:19Z</time>
      </trkpt>
      <trkpt lat="43.78683" lon="5.27389">
        <ele>585</ele>
        <time>2021-11-14T11:15:23Z</time>
      </trkpt>
      <trkpt lat="43.78679" lon="5.27386">
        <ele>585</ele>
        <time>2021-11-14T11:15:27Z</time>
      </trkpt>
      <trkpt lat="43.78675" lon="5.27386">
        <ele>585</ele>
        <time>2021-11-14T11:15:30Z</time>
      </trkpt>
      <trkpt lat="43.78672" lon="5.27383">
        <ele>585</ele>
        <time>2021-11-14T11:15:33Z</time>
      </trkpt>
      <trkpt lat="43.78669" lon="5.2738">
        <ele>585</ele>
        <time>2021-11-14T11:15:36Z</time>
      </trkpt>
      <trkpt lat="43.78665" lon="5.27378">
        <ele>585</ele>
        <time>2021-11-14T11:15:39Z</time>
      </trkpt>
      <trkpt lat="43.78658" lon="5.27377">
        <ele>583</ele>
        <time>2021-11-14T11:15:45Z</time>
      </trkpt>
      <trkpt lat="43.78654" lon="5.27377">
        <ele>583</ele>
        <time>2021-11-14T11:15:48Z</time>
      </trkpt>
      <trkpt lat="43.78651" lon="5.27376">
        <ele>582</ele>
        <time>2021-11-14T11:15:51Z</time>
      </trkpt>
      <trkpt lat="43.78647" lon="5.27373">
        <ele>582</ele>
        <time>2021-11-14T11:15:54Z</time>
      </trkpt>
      <trkpt lat="43.78642" lon="5.27373">
        <ele>582</ele>
        <time>2021-11-14T11:15:57Z</time>
      </trkpt>
      <trkpt lat="43.78632" lon="5.27381">
        <ele>582</ele>
        <time>2021-11-14T11:16:06Z</time>
      </trkpt>
      <trkpt lat="43.78628" lon="5.27381">
        <ele>582</ele>
        <time>2021-11-14T11:16:09Z</time>
      </trkpt>
      <trkpt lat="43.78619" lon="5.27386">
        <ele>582</ele>
        <time>2021-11-14T11:16:18Z</time>
      </trkpt>
      <trkpt lat="43.78611" lon="5.2739">
        <ele>583</ele>
        <time>2021-11-14T11:16:25Z</time>
      </trkpt>
      <trkpt lat="43.78607" lon="5.27392">
        <ele>583</ele>
        <time>2021-11-14T11:16:29Z</time>
      </trkpt>
      <trkpt lat="43.78596" lon="5.27398">
        <ele>582</ele>
        <time>2021-11-14T11:16:40Z</time>
      </trkpt>
      <trkpt lat="43.78592" lon="5.27398">
        <ele>582</ele>
        <time>2021-11-14T11:16:43Z</time>
      </trkpt>
      <trkpt lat="43.78585" lon="5.27399">
        <ele>581</ele>
        <time>2021-11-14T11:16:49Z</time>
      </trkpt>
      <trkpt lat="43.7858" lon="5.27398">
        <ele>582</ele>
        <time>2021-11-14T11:16:52Z</time>
      </trkpt>
      <trkpt lat="43.78574" lon="5.27393">
        <ele>583</ele>
        <time>2021-11-14T11:16:58Z</time>
      </trkpt>
      <trkpt lat="43.7857" lon="5.27392">
        <ele>584</ele>
        <time>2021-11-14T11:17:01Z</time>
      </trkpt>
      <trkpt lat="43.78562" lon="5.27391">
        <ele>586</ele>
        <time>2021-11-14T11:17:07Z</time>
      </trkpt>
      <trkpt lat="43.78552" lon="5.27386">
        <ele>586</ele>
        <time>2021-11-14T11:17:16Z</time>
      </trkpt>
      <trkpt lat="43.78548" lon="5.27384">
        <ele>587</ele>
        <time>2021-11-14T11:17:20Z</time>
      </trkpt>
      <trkpt lat="43.78541" lon="5.27373">
        <ele>589</ele>
        <time>2021-11-14T11:17:29Z</time>
      </trkpt>
      <trkpt lat="43.78538" lon="5.27369">
        <ele>588</ele>
        <time>2021-11-14T11:17:32Z</time>
      </trkpt>
      <trkpt lat="43.78534" lon="5.27361">
        <ele>589</ele>
        <time>2021-11-14T11:17:38Z</time>
      </trkpt>
      <trkpt lat="43.78531" lon="5.27351">
        <ele>588</ele>
        <time>2021-11-14T11:17:44Z</time>
      </trkpt>
      <trkpt lat="43.78526" lon="5.27342">
        <ele>587</ele>
        <time>2021-11-14T11:17:50Z</time>
      </trkpt>
      <trkpt lat="43.78524" lon="5.27338">
        <ele>587</ele>
        <time>2021-11-14T11:17:53Z</time>
      </trkpt>
      <trkpt lat="43.7852" lon="5.27328">
        <ele>586</ele>
        <time>2021-11-14T11:17:59Z</time>
      </trkpt>
      <trkpt lat="43.78518" lon="5.27323">
        <ele>586</ele>
        <time>2021-11-14T11:18:02Z</time>
      </trkpt>
      <trkpt lat="43.78516" lon="5.27318">
        <ele>586</ele>
        <time>2021-11-14T11:18:05Z</time>
      </trkpt>
      <trkpt lat="43.78512" lon="5.27308">
        <ele>586</ele>
        <time>2021-11-14T11:18:11Z</time>
      </trkpt>
      <trkpt lat="43.78507" lon="5.273">
        <ele>583</ele>
        <time>2021-11-14T11:18:17Z</time>
      </trkpt>
      <trkpt lat="43.78491" lon="5.27272">
        <ele>580</ele>
        <time>2021-11-14T11:18:35Z</time>
      </trkpt>
      <trkpt lat="43.78481" lon="5.27263">
        <ele>579</ele>
        <time>2021-11-14T11:18:44Z</time>
      </trkpt>
      <trkpt lat="43.78471" lon="5.27255">
        <ele>572</ele>
        <time>2021-11-14T11:18:53Z</time>
      </trkpt>
      <trkpt lat="43.78468" lon="5.27251">
        <ele>571</ele>
        <time>2021-11-14T11:18:56Z</time>
      </trkpt>
      <trkpt lat="43.78467" lon="5.27247">
        <ele>569</ele>
        <time>2021-11-14T11:18:59Z</time>
      </trkpt>
      <trkpt lat="43.78463" lon="5.27244">
        <ele>568</ele>
        <time>2021-11-14T11:19:02Z</time>
      </trkpt>
      <trkpt lat="43.7846" lon="5.27242">
        <ele>566</ele>
        <time>2021-11-14T11:19:05Z</time>
      </trkpt>
      <trkpt lat="43.78456" lon="5.27245">
        <ele>565</ele>
        <time>2021-11-14T11:19:08Z</time>
      </trkpt>
      <trkpt lat="43.78453" lon="5.27248">
        <ele>565</ele>
        <time>2021-11-14T11:19:11Z</time>
      </trkpt>
      <trkpt lat="43.7845" lon="5.27245">
        <ele>564</ele>
        <time>2021-11-14T11:19:14Z</time>
      </trkpt>
      <trkpt lat="43.78445" lon="5.27244">
        <ele>562</ele>
        <time>2021-11-14T11:19:17Z</time>
      </trkpt>
      <trkpt lat="43.78441" lon="5.27245">
        <ele>561</ele>
        <time>2021-11-14T11:19:20Z</time>
      </trkpt>
      <trkpt lat="43.78437" lon="5.27243">
        <ele>560</ele>
        <time>2021-11-14T11:19:23Z</time>
      </trkpt>
      <trkpt lat="43.78433" lon="5.27241">
        <ele>560</ele>
        <time>2021-11-14T11:19:26Z</time>
      </trkpt>
      <trkpt lat="43.7843" lon="5.2724">
        <ele>560</ele>
        <time>2021-11-14T11:19:29Z</time>
      </trkpt>
      <trkpt lat="43.78426" lon="5.27241">
        <ele>561</ele>
        <time>2021-11-14T11:19:32Z</time>
      </trkpt>
      <trkpt lat="43.78422" lon="5.2724">
        <ele>562</ele>
        <time>2021-11-14T11:19:35Z</time>
      </trkpt>
      <trkpt lat="43.78417" lon="5.27241">
        <ele>563</ele>
        <time>2021-11-14T11:19:38Z</time>
      </trkpt>
      <trkpt lat="43.78413" lon="5.27243">
        <ele>563</ele>
        <time>2021-11-14T11:19:41Z</time>
      </trkpt>
      <trkpt lat="43.78404" lon="5.27242">
        <ele>559</ele>
        <time>2021-11-14T11:19:47Z</time>
      </trkpt>
      <trkpt lat="43.78401" lon="5.2724">
        <ele>558</ele>
        <time>2021-11-14T11:19:50Z</time>
      </trkpt>
      <trkpt lat="43.78398" lon="5.27241">
        <ele>558</ele>
        <time>2021-11-14T11:19:53Z</time>
      </trkpt>
      <trkpt lat="43.78394" lon="5.27243">
        <ele>558</ele>
        <time>2021-11-14T11:19:56Z</time>
      </trkpt>
      <trkpt lat="43.7839" lon="5.2724">
        <ele>559</ele>
        <time>2021-11-14T11:19:59Z</time>
      </trkpt>
      <trkpt lat="43.78387" lon="5.27236">
        <ele>558</ele>
        <time>2021-11-14T11:20:02Z</time>
      </trkpt>
      <trkpt lat="43.78387" lon="5.2723">
        <ele>558</ele>
        <time>2021-11-14T11:20:05Z</time>
      </trkpt>
      <trkpt lat="43.78387" lon="5.27225">
        <ele>560</ele>
        <time>2021-11-14T11:20:08Z</time>
      </trkpt>
      <trkpt lat="43.78386" lon="5.27221">
        <ele>559</ele>
        <time>2021-11-14T11:20:11Z</time>
      </trkpt>
      <trkpt lat="43.78386" lon="5.27216">
        <ele>554</ele>
        <time>2021-11-14T11:20:14Z</time>
      </trkpt>
      <trkpt lat="43.78388" lon="5.2721">
        <ele>554</ele>
        <time>2021-11-14T11:20:18Z</time>
      </trkpt>
      <trkpt lat="43.78388" lon="5.27204">
        <ele>553</ele>
        <time>2021-11-14T11:20:20Z</time>
      </trkpt>
      <trkpt lat="43.78389" lon="5.272">
        <ele>553</ele>
        <time>2021-11-14T11:20:22Z</time>
      </trkpt>
      <trkpt lat="43.78391" lon="5.27195">
        <ele>552</ele>
        <time>2021-11-14T11:20:26Z</time>
      </trkpt>
      <trkpt lat="43.78388" lon="5.27191">
        <ele>552</ele>
        <time>2021-11-14T11:20:30Z</time>
      </trkpt>
      <trkpt lat="43.78391" lon="5.27187">
        <ele>550</ele>
        <time>2021-11-14T11:20:33Z</time>
      </trkpt>
      <trkpt lat="43.78395" lon="5.27184">
        <ele>548</ele>
        <time>2021-11-14T11:20:36Z</time>
      </trkpt>
      <trkpt lat="43.78398" lon="5.27179">
        <ele>549</ele>
        <time>2021-11-14T11:20:39Z</time>
      </trkpt>
      <trkpt lat="43.784" lon="5.27174">
        <ele>549</ele>
        <time>2021-11-14T11:20:42Z</time>
      </trkpt>
      <trkpt lat="43.78402" lon="5.27169">
        <ele>549</ele>
        <time>2021-11-14T11:20:45Z</time>
      </trkpt>
      <trkpt lat="43.78401" lon="5.27164">
        <ele>550</ele>
        <time>2021-11-14T11:20:49Z</time>
      </trkpt>
      <trkpt lat="43.78401" lon="5.27158">
        <ele>551</ele>
        <time>2021-11-14T11:20:53Z</time>
      </trkpt>
      <trkpt lat="43.78404" lon="5.27156">
        <ele>550</ele>
        <time>2021-11-14T11:20:56Z</time>
      </trkpt>
      <trkpt lat="43.78406" lon="5.27151">
        <ele>549</ele>
        <time>2021-11-14T11:20:59Z</time>
      </trkpt>
      <trkpt lat="43.78408" lon="5.27148">
        <ele>548</ele>
        <time>2021-11-14T11:21:02Z</time>
      </trkpt>
      <trkpt lat="43.78411" lon="5.27144">
        <ele>547</ele>
        <time>2021-11-14T11:21:05Z</time>
      </trkpt>
      <trkpt lat="43.78409" lon="5.2714">
        <ele>549</ele>
        <time>2021-11-14T11:21:10Z</time>
      </trkpt>
      <trkpt lat="43.78405" lon="5.27138">
        <ele>549</ele>
        <time>2021-11-14T11:21:13Z</time>
      </trkpt>
      <trkpt lat="43.78401" lon="5.27135">
        <ele>547</ele>
        <time>2021-11-14T11:21:17Z</time>
      </trkpt>
      <trkpt lat="43.78398" lon="5.27132">
        <ele>546</ele>
        <time>2021-11-14T11:21:21Z</time>
      </trkpt>
      <trkpt lat="43.78394" lon="5.27129">
        <ele>544</ele>
        <time>2021-11-14T11:21:24Z</time>
      </trkpt>
      <trkpt lat="43.78394" lon="5.27125">
        <ele>543</ele>
        <time>2021-11-14T11:21:27Z</time>
      </trkpt>
      <trkpt lat="43.78401" lon="5.27117">
        <ele>539</ele>
        <time>2021-11-14T11:21:33Z</time>
      </trkpt>
      <trkpt lat="43.78404" lon="5.27112">
        <ele>537</ele>
        <time>2021-11-14T11:21:36Z</time>
      </trkpt>
      <trkpt lat="43.78403" lon="5.27106">
        <ele>536</ele>
        <time>2021-11-14T11:21:39Z</time>
      </trkpt>
      <trkpt lat="43.78402" lon="5.27101">
        <ele>539</ele>
        <time>2021-11-14T11:21:42Z</time>
      </trkpt>
      <trkpt lat="43.78401" lon="5.27096">
        <ele>540</ele>
        <time>2021-11-14T11:21:47Z</time>
      </trkpt>
      <trkpt lat="43.78399" lon="5.27092">
        <ele>536</ele>
        <time>2021-11-14T11:21:52Z</time>
      </trkpt>
      <trkpt lat="43.78396" lon="5.27087">
        <ele>536</ele>
        <time>2021-11-14T11:21:57Z</time>
      </trkpt>
      <trkpt lat="43.78393" lon="5.27078">
        <ele>533</ele>
        <time>2021-11-14T11:22:04Z</time>
      </trkpt>
      <trkpt lat="43.78395" lon="5.27073">
        <ele>528</ele>
        <time>2021-11-14T11:22:08Z</time>
      </trkpt>
      <trkpt lat="43.78397" lon="5.27069">
        <ele>525</ele>
        <time>2021-11-14T11:22:12Z</time>
      </trkpt>
      <trkpt lat="43.78397" lon="5.27064">
        <ele>525</ele>
        <time>2021-11-14T11:22:16Z</time>
      </trkpt>
      <trkpt lat="43.78396" lon="5.27059">
        <ele>526</ele>
        <time>2021-11-14T11:22:20Z</time>
      </trkpt>
      <trkpt lat="43.78396" lon="5.27048">
        <ele>525</ele>
        <time>2021-11-14T11:22:28Z</time>
      </trkpt>
      <trkpt lat="43.78394" lon="5.27044">
        <ele>522</ele>
        <time>2021-11-14T11:22:32Z</time>
      </trkpt>
      <trkpt lat="43.78393" lon="5.27033">
        <ele>517</ele>
        <time>2021-11-14T11:22:40Z</time>
      </trkpt>
      <trkpt lat="43.78393" lon="5.27028">
        <ele>516</ele>
        <time>2021-11-14T11:22:43Z</time>
      </trkpt>
      <trkpt lat="43.78393" lon="5.27012">
        <ele>514</ele>
        <time>2021-11-14T11:22:53Z</time>
      </trkpt>
      <trkpt lat="43.78392" lon="5.27006">
        <ele>506</ele>
        <time>2021-11-14T11:22:57Z</time>
      </trkpt>
      <trkpt lat="43.78393" lon="5.26995">
        <ele>502</ele>
        <time>2021-11-14T11:23:03Z</time>
      </trkpt>
      <trkpt lat="43.78393" lon="5.26989">
        <ele>506</ele>
        <time>2021-11-14T11:23:06Z</time>
      </trkpt>
      <trkpt lat="43.78394" lon="5.26983">
        <ele>508</ele>
        <time>2021-11-14T11:23:09Z</time>
      </trkpt>
      <trkpt lat="43.78397" lon="5.26979">
        <ele>509</ele>
        <time>2021-11-14T11:23:12Z</time>
      </trkpt>
      <trkpt lat="43.78399" lon="5.26975">
        <ele>509</ele>
        <time>2021-11-14T11:23:16Z</time>
      </trkpt>
      <trkpt lat="43.784" lon="5.2697">
        <ele>506</ele>
        <time>2021-11-14T11:23:20Z</time>
      </trkpt>
      <trkpt lat="43.78402" lon="5.26966">
        <ele>503</ele>
        <time>2021-11-14T11:23:27Z</time>
      </trkpt>
      <trkpt lat="43.78404" lon="5.2696">
        <ele>499</ele>
        <time>2021-11-14T11:23:33Z</time>
      </trkpt>
      <trkpt lat="43.78406" lon="5.26957">
        <ele>497</ele>
        <time>2021-11-14T11:23:37Z</time>
      </trkpt>
      <trkpt lat="43.78406" lon="5.26946">
        <ele>497</ele>
        <time>2021-11-14T11:23:45Z</time>
      </trkpt>
      <trkpt lat="43.78407" lon="5.26941">
        <ele>494</ele>
        <time>2021-11-14T11:23:50Z</time>
      </trkpt>
      <trkpt lat="43.78406" lon="5.26931">
        <ele>494</ele>
        <time>2021-11-14T11:23:59Z</time>
      </trkpt>
      <trkpt lat="43.78405" lon="5.26925">
        <ele>492</ele>
        <time>2021-11-14T11:24:04Z</time>
      </trkpt>
      <trkpt lat="43.78407" lon="5.2692">
        <ele>488</ele>
        <time>2021-11-14T11:24:08Z</time>
      </trkpt>
      <trkpt lat="43.78408" lon="5.26914">
        <ele>487</ele>
        <time>2021-11-14T11:24:13Z</time>
      </trkpt>
      <trkpt lat="43.78406" lon="5.26904">
        <ele>489</ele>
        <time>2021-11-14T11:24:22Z</time>
      </trkpt>
      <trkpt lat="43.78405" lon="5.26899">
        <ele>490</ele>
        <time>2021-11-14T11:24:26Z</time>
      </trkpt>
      <trkpt lat="43.78406" lon="5.26894">
        <ele>490</ele>
        <time>2021-11-14T11:24:29Z</time>
      </trkpt>
      <trkpt lat="43.78407" lon="5.26884">
        <ele>487</ele>
        <time>2021-11-14T11:24:37Z</time>
      </trkpt>
      <trkpt lat="43.784" lon="5.2686">
        <ele>484</ele>
        <time>2021-11-14T11:24:53Z</time>
      </trkpt>
      <trkpt lat="43.78397" lon="5.26835">
        <ele>480</ele>
        <time>2021-11-14T11:25:08Z</time>
      </trkpt>
      <trkpt lat="43.78395" lon="5.26823">
        <ele>472</ele>
        <time>2021-11-14T11:25:16Z</time>
      </trkpt>
      <trkpt lat="43.78394" lon="5.26809">
        <ele>470</ele>
        <time>2021-11-14T11:25:23Z</time>
      </trkpt>
      <trkpt lat="43.78403" lon="5.26788">
        <ele>453</ele>
        <time>2021-11-14T11:25:38Z</time>
      </trkpt>
      <trkpt lat="43.78404" lon="5.26782">
        <ele>453</ele>
        <time>2021-11-14T11:25:41Z</time>
      </trkpt>
      <trkpt lat="43.78401" lon="5.26773">
        <ele>454</ele>
        <time>2021-11-14T11:25:48Z</time>
      </trkpt>
      <trkpt lat="43.78399" lon="5.26769">
        <ele>452</ele>
        <time>2021-11-14T11:25:54Z</time>
      </trkpt>
      <trkpt lat="43.78398" lon="5.26764">
        <ele>451</ele>
        <time>2021-11-14T11:26:03Z</time>
      </trkpt>
      <trkpt lat="43.78387" lon="5.26756">
        <ele>447</ele>
        <time>2021-11-14T11:26:17Z</time>
      </trkpt>
      <trkpt lat="43.78384" lon="5.26753">
        <ele>448</ele>
        <time>2021-11-14T11:26:21Z</time>
      </trkpt>
      <trkpt lat="43.78379" lon="5.26745">
        <ele>449</ele>
        <time>2021-11-14T11:26:31Z</time>
      </trkpt>
      <trkpt lat="43.78377" lon="5.26741">
        <ele>449</ele>
        <time>2021-11-14T11:26:35Z</time>
      </trkpt>
      <trkpt lat="43.78375" lon="5.26738">
        <ele>448</ele>
        <time>2021-11-14T11:26:38Z</time>
      </trkpt>
      <trkpt lat="43.78372" lon="5.26735">
        <ele>450</ele>
        <time>2021-11-14T11:26:42Z</time>
      </trkpt>
      <trkpt lat="43.78369" lon="5.26731">
        <ele>448</ele>
        <time>2021-11-14T11:26:46Z</time>
      </trkpt>
      <trkpt lat="43.78367" lon="5.26725">
        <ele>446</ele>
        <time>2021-11-14T11:26:50Z</time>
      </trkpt>
      <trkpt lat="43.78365" lon="5.26721">
        <ele>441</ele>
        <time>2021-11-14T11:26:53Z</time>
      </trkpt>
      <trkpt lat="43.78359" lon="5.26714">
        <ele>438</ele>
        <time>2021-11-14T11:26:59Z</time>
      </trkpt>
      <trkpt lat="43.78357" lon="5.2671">
        <ele>437</ele>
        <time>2021-11-14T11:27:02Z</time>
      </trkpt>
      <trkpt lat="43.78355" lon="5.26706">
        <ele>435</ele>
        <time>2021-11-14T11:27:05Z</time>
      </trkpt>
      <trkpt lat="43.78353" lon="5.267">
        <ele>435</ele>
        <time>2021-11-14T11:27:08Z</time>
      </trkpt>
      <trkpt lat="43.78351" lon="5.26697">
        <ele>434</ele>
        <time>2021-11-14T11:27:11Z</time>
      </trkpt>
      <trkpt lat="43.7835" lon="5.2669">
        <ele>433</ele>
        <time>2021-11-14T11:27:15Z</time>
      </trkpt>
      <trkpt lat="43.7835" lon="5.26685">
        <ele>434</ele>
        <time>2021-11-14T11:27:18Z</time>
      </trkpt>
      <trkpt lat="43.78349" lon="5.26673">
        <ele>432</ele>
        <time>2021-11-14T11:27:24Z</time>
      </trkpt>
      <trkpt lat="43.78349" lon="5.26668">
        <ele>431</ele>
        <time>2021-11-14T11:27:27Z</time>
      </trkpt>
      <trkpt lat="43.78348" lon="5.26663">
        <ele>430</ele>
        <time>2021-11-14T11:27:30Z</time>
      </trkpt>
      <trkpt lat="43.78344" lon="5.26654">
        <ele>429</ele>
        <time>2021-11-14T11:27:38Z</time>
      </trkpt>
      <trkpt lat="43.78341" lon="5.26651">
        <ele>427</ele>
        <time>2021-11-14T11:27:41Z</time>
      </trkpt>
      <trkpt lat="43.78339" lon="5.26647">
        <ele>425</ele>
        <time>2021-11-14T11:27:44Z</time>
      </trkpt>
      <trkpt lat="43.78338" lon="5.26642">
        <ele>422</ele>
        <time>2021-11-14T11:27:47Z</time>
      </trkpt>
      <trkpt lat="43.78337" lon="5.26637">
        <ele>420</ele>
        <time>2021-11-14T11:27:50Z</time>
      </trkpt>
      <trkpt lat="43.78335" lon="5.26633">
        <ele>418</ele>
        <time>2021-11-14T11:27:53Z</time>
      </trkpt>
      <trkpt lat="43.78332" lon="5.26631">
        <ele>418</ele>
        <time>2021-11-14T11:27:56Z</time>
      </trkpt>
      <trkpt lat="43.78324" lon="5.2663">
        <ele>423</ele>
        <time>2021-11-14T11:28:04Z</time>
      </trkpt>
      <trkpt lat="43.7832" lon="5.2663">
        <ele>425</ele>
        <time>2021-11-14T11:28:07Z</time>
      </trkpt>
      <trkpt lat="43.78316" lon="5.26629">
        <ele>424</ele>
        <time>2021-11-14T11:28:10Z</time>
      </trkpt>
      <trkpt lat="43.7831" lon="5.26623">
        <ele>418</ele>
        <time>2021-11-14T11:28:16Z</time>
      </trkpt>
      <trkpt lat="43.78302" lon="5.2662">
        <ele>414</ele>
        <time>2021-11-14T11:28:22Z</time>
      </trkpt>
      <trkpt lat="43.78299" lon="5.26617">
        <ele>413</ele>
        <time>2021-11-14T11:28:25Z</time>
      </trkpt>
      <trkpt lat="43.78297" lon="5.26612">
        <ele>412</ele>
        <time>2021-11-14T11:28:28Z</time>
      </trkpt>
      <trkpt lat="43.78296" lon="5.26607">
        <ele>410</ele>
        <time>2021-11-14T11:28:31Z</time>
      </trkpt>
      <trkpt lat="43.78293" lon="5.26602">
        <ele>408</ele>
        <time>2021-11-14T11:28:34Z</time>
      </trkpt>
      <trkpt lat="43.7829" lon="5.266">
        <ele>407</ele>
        <time>2021-11-14T11:28:37Z</time>
      </trkpt>
      <trkpt lat="43.78287" lon="5.26598">
        <ele>408</ele>
        <time>2021-11-14T11:28:40Z</time>
      </trkpt>
      <trkpt lat="43.78283" lon="5.26597">
        <ele>410</ele>
        <time>2021-11-14T11:28:44Z</time>
      </trkpt>
      <trkpt lat="43.78282" lon="5.26592">
        <ele>413</ele>
        <time>2021-11-14T11:29:30Z</time>
      </trkpt>
      <trkpt lat="43.78284" lon="5.26587">
        <ele>412</ele>
        <time>2021-11-14T11:29:36Z</time>
      </trkpt>
      <trkpt lat="43.78286" lon="5.26583">
        <ele>413</ele>
        <time>2021-11-14T11:29:42Z</time>
      </trkpt>
      <trkpt lat="43.7828" lon="5.2659">
        <ele>420</ele>
        <time>2021-11-14T11:44:01Z</time>
      </trkpt>
      <trkpt lat="43.78283" lon="5.26586">
        <ele>420</ele>
        <time>2021-11-14T11:44:14Z</time>
      </trkpt>
      <trkpt lat="43.78281" lon="5.26582">
        <ele>415</ele>
        <time>2021-11-14T11:44:20Z</time>
      </trkpt>
      <trkpt lat="43.78277" lon="5.26581">
        <ele>413</ele>
        <time>2021-11-14T11:44:24Z</time>
      </trkpt>
      <trkpt lat="43.78274" lon="5.26578">
        <ele>412</ele>
        <time>2021-11-14T11:44:27Z</time>
      </trkpt>
      <trkpt lat="43.78273" lon="5.26573">
        <ele>412</ele>
        <time>2021-11-14T11:44:30Z</time>
      </trkpt>
      <trkpt lat="43.78271" lon="5.26568">
        <ele>412</ele>
        <time>2021-11-14T11:44:33Z</time>
      </trkpt>
      <trkpt lat="43.78268" lon="5.26566">
        <ele>411</ele>
        <time>2021-11-14T11:44:36Z</time>
      </trkpt>
      <trkpt lat="43.78264" lon="5.26564">
        <ele>411</ele>
        <time>2021-11-14T11:44:39Z</time>
      </trkpt>
      <trkpt lat="43.78261" lon="5.26561">
        <ele>411</ele>
        <time>2021-11-14T11:44:42Z</time>
      </trkpt>
      <trkpt lat="43.78259" lon="5.26557">
        <ele>411</ele>
        <time>2021-11-14T11:44:45Z</time>
      </trkpt>
      <trkpt lat="43.78257" lon="5.26551">
        <ele>410</ele>
        <time>2021-11-14T11:44:48Z</time>
      </trkpt>
      <trkpt lat="43.78256" lon="5.26546">
        <ele>411</ele>
        <time>2021-11-14T11:44:51Z</time>
      </trkpt>
      <trkpt lat="43.78249" lon="5.26539">
        <ele>409</ele>
        <time>2021-11-14T11:44:58Z</time>
      </trkpt>
      <trkpt lat="43.78245" lon="5.2654">
        <ele>409</ele>
        <time>2021-11-14T11:45:01Z</time>
      </trkpt>
      <trkpt lat="43.78237" lon="5.26534">
        <ele>407</ele>
        <time>2021-11-14T11:45:07Z</time>
      </trkpt>
      <trkpt lat="43.78236" lon="5.26529">
        <ele>406</ele>
        <time>2021-11-14T11:45:09Z</time>
      </trkpt>
      <trkpt lat="43.78234" lon="5.26525">
        <ele>405</ele>
        <time>2021-11-14T11:45:12Z</time>
      </trkpt>
      <trkpt lat="43.7823" lon="5.26521">
        <ele>405</ele>
        <time>2021-11-14T11:45:15Z</time>
      </trkpt>
      <trkpt lat="43.78224" lon="5.26513">
        <ele>402</ele>
        <time>2021-11-14T11:45:22Z</time>
      </trkpt>
      <trkpt lat="43.78221" lon="5.26512">
        <ele>401</ele>
        <time>2021-11-14T11:45:25Z</time>
      </trkpt>
      <trkpt lat="43.78217" lon="5.26509">
        <ele>401</ele>
        <time>2021-11-14T11:45:28Z</time>
      </trkpt>
      <trkpt lat="43.78214" lon="5.26505">
        <ele>401</ele>
        <time>2021-11-14T11:45:32Z</time>
      </trkpt>
      <trkpt lat="43.78211" lon="5.265">
        <ele>401</ele>
        <time>2021-11-14T11:45:35Z</time>
      </trkpt>
      <trkpt lat="43.78203" lon="5.26492">
        <ele>400</ele>
        <time>2021-11-14T11:45:41Z</time>
      </trkpt>
      <trkpt lat="43.782" lon="5.26488">
        <ele>399</ele>
        <time>2021-11-14T11:45:44Z</time>
      </trkpt>
      <trkpt lat="43.78187" lon="5.26472">
        <ele>395</ele>
        <time>2021-11-14T11:45:55Z</time>
      </trkpt>
      <trkpt lat="43.78181" lon="5.26464">
        <ele>394</ele>
        <time>2021-11-14T11:46:01Z</time>
      </trkpt>
      <trkpt lat="43.78178" lon="5.26461">
        <ele>393</ele>
        <time>2021-11-14T11:46:04Z</time>
      </trkpt>
      <trkpt lat="43.78174" lon="5.26462">
        <ele>393</ele>
        <time>2021-11-14T11:46:07Z</time>
      </trkpt>
      <trkpt lat="43.7817" lon="5.26461">
        <ele>393</ele>
        <time>2021-11-14T11:46:10Z</time>
      </trkpt>
      <trkpt lat="43.78166" lon="5.2646">
        <ele>393</ele>
        <time>2021-11-14T11:46:13Z</time>
      </trkpt>
      <trkpt lat="43.78159" lon="5.26453">
        <ele>391</ele>
        <time>2021-11-14T11:46:19Z</time>
      </trkpt>
      <trkpt lat="43.78156" lon="5.26452">
        <ele>391</ele>
        <time>2021-11-14T11:46:22Z</time>
      </trkpt>
      <trkpt lat="43.78152" lon="5.2645">
        <ele>391</ele>
        <time>2021-11-14T11:46:25Z</time>
      </trkpt>
      <trkpt lat="43.78149" lon="5.26446">
        <ele>390</ele>
        <time>2021-11-14T11:46:28Z</time>
      </trkpt>
      <trkpt lat="43.78142" lon="5.2644">
        <ele>389</ele>
        <time>2021-11-14T11:46:34Z</time>
      </trkpt>
      <trkpt lat="43.78138" lon="5.26438">
        <ele>388</ele>
        <time>2021-11-14T11:46:37Z</time>
      </trkpt>
      <trkpt lat="43.78136" lon="5.26433">
        <ele>387</ele>
        <time>2021-11-14T11:46:40Z</time>
      </trkpt>
      <trkpt lat="43.78132" lon="5.26429">
        <ele>384</ele>
        <time>2021-11-14T11:46:43Z</time>
      </trkpt>
      <trkpt lat="43.78129" lon="5.26425">
        <ele>382</ele>
        <time>2021-11-14T11:46:46Z</time>
      </trkpt>
      <trkpt lat="43.78122" lon="5.26409">
        <ele>379</ele>
        <time>2021-11-14T11:46:55Z</time>
      </trkpt>
      <trkpt lat="43.78113" lon="5.26398">
        <ele>378</ele>
        <time>2021-11-14T11:47:05Z</time>
      </trkpt>
      <trkpt lat="43.78111" lon="5.26394">
        <ele>377</ele>
        <time>2021-11-14T11:47:08Z</time>
      </trkpt>
      <trkpt lat="43.78109" lon="5.26382">
        <ele>375</ele>
        <time>2021-11-14T11:47:14Z</time>
      </trkpt>
      <trkpt lat="43.78102" lon="5.26376">
        <ele>374</ele>
        <time>2021-11-14T11:47:20Z</time>
      </trkpt>
      <trkpt lat="43.78097" lon="5.26367">
        <ele>372</ele>
        <time>2021-11-14T11:47:26Z</time>
      </trkpt>
      <trkpt lat="43.78089" lon="5.26353">
        <ele>369</ele>
        <time>2021-11-14T11:47:35Z</time>
      </trkpt>
      <trkpt lat="43.78071" lon="5.26329">
        <ele>363</ele>
        <time>2021-11-14T11:47:53Z</time>
      </trkpt>
      <trkpt lat="43.7806" lon="5.26313">
        <ele>362</ele>
        <time>2021-11-14T11:48:05Z</time>
      </trkpt>
      <trkpt lat="43.78057" lon="5.2631">
        <ele>361</ele>
        <time>2021-11-14T11:48:08Z</time>
      </trkpt>
      <trkpt lat="43.78053" lon="5.26308">
        <ele>359</ele>
        <time>2021-11-14T11:48:11Z</time>
      </trkpt>
      <trkpt lat="43.78047" lon="5.263">
        <ele>356</ele>
        <time>2021-11-14T11:48:17Z</time>
      </trkpt>
      <trkpt lat="43.78045" lon="5.26296">
        <ele>354</ele>
        <time>2021-11-14T11:48:20Z</time>
      </trkpt>
      <trkpt lat="43.78033" lon="5.26278">
        <ele>355</ele>
        <time>2021-11-14T11:48:32Z</time>
      </trkpt>
      <trkpt lat="43.78028" lon="5.26268">
        <ele>358</ele>
        <time>2021-11-14T11:48:38Z</time>
      </trkpt>
      <trkpt lat="43.78025" lon="5.26257">
        <ele>358</ele>
        <time>2021-11-14T11:48:43Z</time>
      </trkpt>
      <trkpt lat="43.78023" lon="5.26252">
        <ele>356</ele>
        <time>2021-11-14T11:48:46Z</time>
      </trkpt>
      <trkpt lat="43.78017" lon="5.26244">
        <ele>355</ele>
        <time>2021-11-14T11:48:52Z</time>
      </trkpt>
      <trkpt lat="43.78014" lon="5.2624">
        <ele>355</ele>
        <time>2021-11-14T11:48:55Z</time>
      </trkpt>
      <trkpt lat="43.7801" lon="5.26237">
        <ele>353</ele>
        <time>2021-11-14T11:48:58Z</time>
      </trkpt>
      <trkpt lat="43.78002" lon="5.26229">
        <ele>348</ele>
        <time>2021-11-14T11:49:04Z</time>
      </trkpt>
      <trkpt lat="43.77995" lon="5.26224">
        <ele>348</ele>
        <time>2021-11-14T11:49:10Z</time>
      </trkpt>
      <trkpt lat="43.77991" lon="5.26222">
        <ele>348</ele>
        <time>2021-11-14T11:49:13Z</time>
      </trkpt>
      <trkpt lat="43.77987" lon="5.26221">
        <ele>348</ele>
        <time>2021-11-14T11:49:16Z</time>
      </trkpt>
      <trkpt lat="43.77978" lon="5.26215">
        <ele>346</ele>
        <time>2021-11-14T11:49:23Z</time>
      </trkpt>
      <trkpt lat="43.77969" lon="5.26214">
        <ele>346</ele>
        <time>2021-11-14T11:49:30Z</time>
      </trkpt>
      <trkpt lat="43.7796" lon="5.26215">
        <ele>344</ele>
        <time>2021-11-14T11:49:37Z</time>
      </trkpt>
      <trkpt lat="43.77951" lon="5.26212">
        <ele>341</ele>
        <time>2021-11-14T11:49:44Z</time>
      </trkpt>
      <trkpt lat="43.77941" lon="5.26213">
        <ele>337</ele>
        <time>2021-11-14T11:49:51Z</time>
      </trkpt>
      <trkpt lat="43.7793" lon="5.26215">
        <ele>331</ele>
        <time>2021-11-14T11:49:59Z</time>
      </trkpt>
      <trkpt lat="43.77926" lon="5.26213">
        <ele>328</ele>
        <time>2021-11-14T11:50:02Z</time>
      </trkpt>
      <trkpt lat="43.77923" lon="5.2621">
        <ele>328</ele>
        <time>2021-11-14T11:50:04Z</time>
      </trkpt>
      <trkpt lat="43.77919" lon="5.26207">
        <ele>329</ele>
        <time>2021-11-14T11:50:07Z</time>
      </trkpt>
      <trkpt lat="43.77915" lon="5.26206">
        <ele>329</ele>
        <time>2021-11-14T11:50:10Z</time>
      </trkpt>
      <trkpt lat="43.77911" lon="5.26202">
        <ele>330</ele>
        <time>2021-11-14T11:50:13Z</time>
      </trkpt>
      <trkpt lat="43.77906" lon="5.26201">
        <ele>330</ele>
        <time>2021-11-14T11:50:16Z</time>
      </trkpt>
      <trkpt lat="43.77898" lon="5.26194">
        <ele>328</ele>
        <time>2021-11-14T11:50:22Z</time>
      </trkpt>
      <trkpt lat="43.77891" lon="5.26186">
        <ele>327</ele>
        <time>2021-11-14T11:50:28Z</time>
      </trkpt>
      <trkpt lat="43.77888" lon="5.26182">
        <ele>326</ele>
        <time>2021-11-14T11:50:31Z</time>
      </trkpt>
      <trkpt lat="43.77884" lon="5.26178">
        <ele>325</ele>
        <time>2021-11-14T11:50:34Z</time>
      </trkpt>
      <trkpt lat="43.77874" lon="5.26165">
        <ele>321</ele>
        <time>2021-11-14T11:50:43Z</time>
      </trkpt>
      <trkpt lat="43.7787" lon="5.26155">
        <ele>320</ele>
        <time>2021-11-14T11:50:48Z</time>
      </trkpt>
      <trkpt lat="43.77867" lon="5.2615">
        <ele>318</ele>
        <time>2021-11-14T11:50:51Z</time>
      </trkpt>
      <trkpt lat="43.77861" lon="5.2614">
        <ele>314</ele>
        <time>2021-11-14T11:50:57Z</time>
      </trkpt>
      <trkpt lat="43.77858" lon="5.26115">
        <ele>311</ele>
        <time>2021-11-14T11:51:09Z</time>
      </trkpt>
      <trkpt lat="43.77857" lon="5.26108">
        <ele>309</ele>
        <time>2021-11-14T11:51:12Z</time>
      </trkpt>
      <trkpt lat="43.77855" lon="5.26103">
        <ele>308</ele>
        <time>2021-11-14T11:51:15Z</time>
      </trkpt>
      <trkpt lat="43.77854" lon="5.26096">
        <ele>306</ele>
        <time>2021-11-14T11:51:18Z</time>
      </trkpt>
      <trkpt lat="43.77853" lon="5.2609">
        <ele>307</ele>
        <time>2021-11-14T11:51:21Z</time>
      </trkpt>
      <trkpt lat="43.77853" lon="5.26083">
        <ele>307</ele>
        <time>2021-11-14T11:51:24Z</time>
      </trkpt>
      <trkpt lat="43.77854" lon="5.26071">
        <ele>307</ele>
        <time>2021-11-14T11:51:30Z</time>
      </trkpt>
      <trkpt lat="43.77854" lon="5.26064">
        <ele>306</ele>
        <time>2021-11-14T11:51:33Z</time>
      </trkpt>
      <trkpt lat="43.77854" lon="5.26045">
        <ele>303</ele>
        <time>2021-11-14T11:51:42Z</time>
      </trkpt>
      <trkpt lat="43.77853" lon="5.26032">
        <ele>302</ele>
        <time>2021-11-14T11:51:48Z</time>
      </trkpt>
      <trkpt lat="43.77847" lon="5.26017">
        <ele>301</ele>
        <time>2021-11-14T11:51:56Z</time>
      </trkpt>
      <trkpt lat="43.77842" lon="5.26007">
        <ele>301</ele>
        <time>2021-11-14T11:52:02Z</time>
      </trkpt>
      <trkpt lat="43.7784" lon="5.26001">
        <ele>301</ele>
        <time>2021-11-14T11:52:05Z</time>
      </trkpt>
      <trkpt lat="43.77835" lon="5.25987">
        <ele>298</ele>
        <time>2021-11-14T11:52:12Z</time>
      </trkpt>
      <trkpt lat="43.77831" lon="5.25968">
        <ele>297</ele>
        <time>2021-11-14T11:52:21Z</time>
      </trkpt>
      <trkpt lat="43.7783" lon="5.25962">
        <ele>298</ele>
        <time>2021-11-14T11:52:24Z</time>
      </trkpt>
      <trkpt lat="43.77822" lon="5.2594">
        <ele>297</ele>
        <time>2021-11-14T11:52:36Z</time>
      </trkpt>
      <trkpt lat="43.77818" lon="5.25929">
        <ele>295</ele>
        <time>2021-11-14T11:52:42Z</time>
      </trkpt>
      <trkpt lat="43.77816" lon="5.25924">
        <ele>295</ele>
        <time>2021-11-14T11:52:45Z</time>
      </trkpt>
      <trkpt lat="43.77808" lon="5.25909">
        <ele>295</ele>
        <time>2021-11-14T11:52:54Z</time>
      </trkpt>
      <trkpt lat="43.77803" lon="5.25899">
        <ele>294</ele>
        <time>2021-11-14T11:53:00Z</time>
      </trkpt>
      <trkpt lat="43.77798" lon="5.25889">
        <ele>291</ele>
        <time>2021-11-14T11:53:06Z</time>
      </trkpt>
      <trkpt lat="43.77795" lon="5.25885">
        <ele>291</ele>
        <time>2021-11-14T11:53:09Z</time>
      </trkpt>
      <trkpt lat="43.77789" lon="5.25875">
        <ele>290</ele>
        <time>2021-11-14T11:53:15Z</time>
      </trkpt>
      <trkpt lat="43.77772" lon="5.25858">
        <ele>285</ele>
        <time>2021-11-14T11:53:30Z</time>
      </trkpt>
      <trkpt lat="43.77768" lon="5.25856">
        <ele>285</ele>
        <time>2021-11-14T11:53:33Z</time>
      </trkpt>
      <trkpt lat="43.7776" lon="5.25848">
        <ele>282</ele>
        <time>2021-11-14T11:53:39Z</time>
      </trkpt>
      <trkpt lat="43.77756" lon="5.25845">
        <ele>281</ele>
        <time>2021-11-14T11:53:42Z</time>
      </trkpt>
      <trkpt lat="43.77747" lon="5.25833">
        <ele>281</ele>
        <time>2021-11-14T11:53:50Z</time>
      </trkpt>
      <trkpt lat="43.77744" lon="5.2583">
        <ele>281</ele>
        <time>2021-11-14T11:53:53Z</time>
      </trkpt>
      <trkpt lat="43.77741" lon="5.25825">
        <ele>279</ele>
        <time>2021-11-14T11:53:56Z</time>
      </trkpt>
      <trkpt lat="43.77738" lon="5.25819">
        <ele>279</ele>
        <time>2021-11-14T11:53:59Z</time>
      </trkpt>
      <trkpt lat="43.77737" lon="5.25814">
        <ele>278</ele>
        <time>2021-11-14T11:54:01Z</time>
      </trkpt>
      <trkpt lat="43.77736" lon="5.25808">
        <ele>275</ele>
        <time>2021-11-14T11:54:04Z</time>
      </trkpt>
      <trkpt lat="43.77734" lon="5.25802">
        <ele>273</ele>
        <time>2021-11-14T11:54:07Z</time>
      </trkpt>
      <trkpt lat="43.77728" lon="5.25786">
        <ele>271</ele>
        <time>2021-11-14T11:54:15Z</time>
      </trkpt>
      <trkpt lat="43.77725" lon="5.25776">
        <ele>273</ele>
        <time>2021-11-14T11:54:20Z</time>
      </trkpt>
      <trkpt lat="43.77719" lon="5.25758">
        <ele>272</ele>
        <time>2021-11-14T11:54:29Z</time>
      </trkpt>
      <trkpt lat="43.77716" lon="5.25752">
        <ele>271</ele>
        <time>2021-11-14T11:54:32Z</time>
      </trkpt>
      <trkpt lat="43.77714" lon="5.25746">
        <ele>270</ele>
        <time>2021-11-14T11:54:35Z</time>
      </trkpt>
      <trkpt lat="43.77712" lon="5.2574">
        <ele>268</ele>
        <time>2021-11-14T11:54:38Z</time>
      </trkpt>
      <trkpt lat="43.77709" lon="5.25736">
        <ele>266</ele>
        <time>2021-11-14T11:54:41Z</time>
      </trkpt>
      <trkpt lat="43.77706" lon="5.25731">
        <ele>265</ele>
        <time>2021-11-14T11:54:44Z</time>
      </trkpt>
      <trkpt lat="43.77704" lon="5.25726">
        <ele>265</ele>
        <time>2021-11-14T11:54:47Z</time>
      </trkpt>
      <trkpt lat="43.77697" lon="5.2571">
        <ele>268</ele>
        <time>2021-11-14T11:54:56Z</time>
      </trkpt>
      <trkpt lat="43.77695" lon="5.25705">
        <ele>267</ele>
        <time>2021-11-14T11:54:59Z</time>
      </trkpt>
      <trkpt lat="43.77691" lon="5.25696">
        <ele>265</ele>
        <time>2021-11-14T11:55:04Z</time>
      </trkpt>
      <trkpt lat="43.77688" lon="5.25686">
        <ele>264</ele>
        <time>2021-11-14T11:55:09Z</time>
      </trkpt>
      <trkpt lat="43.77687" lon="5.2568">
        <ele>264</ele>
        <time>2021-11-14T11:55:11Z</time>
      </trkpt>
      <trkpt lat="43.77685" lon="5.2567">
        <ele>265</ele>
        <time>2021-11-14T11:55:15Z</time>
      </trkpt>
      <trkpt lat="43.77682" lon="5.25666">
        <ele>266</ele>
        <time>2021-11-14T11:55:18Z</time>
      </trkpt>
      <trkpt lat="43.77671" lon="5.25636">
        <ele>263</ele>
        <time>2021-11-14T11:55:36Z</time>
      </trkpt>
      <trkpt lat="43.77669" lon="5.2563">
        <ele>262</ele>
        <time>2021-11-14T11:55:39Z</time>
      </trkpt>
      <trkpt lat="43.77666" lon="5.25626">
        <ele>261</ele>
        <time>2021-11-14T11:55:42Z</time>
      </trkpt>
      <trkpt lat="43.77663" lon="5.25621">
        <ele>262</ele>
        <time>2021-11-14T11:55:45Z</time>
      </trkpt>
      <trkpt lat="43.7766" lon="5.25616">
        <ele>263</ele>
        <time>2021-11-14T11:55:48Z</time>
      </trkpt>
      <trkpt lat="43.77658" lon="5.25606">
        <ele>263</ele>
        <time>2021-11-14T11:55:53Z</time>
      </trkpt>
      <trkpt lat="43.77655" lon="5.25602">
        <ele>264</ele>
        <time>2021-11-14T11:55:56Z</time>
      </trkpt>
      <trkpt lat="43.77652" lon="5.25595">
        <ele>263</ele>
        <time>2021-11-14T11:55:59Z</time>
      </trkpt>
      <trkpt lat="43.7765" lon="5.2559">
        <ele>291</ele>
        <time>2021-11-14T11:56:02Z</time>
      </trkpt>
      <trkpt lat="43.77647" lon="5.25586">
        <ele>284</ele>
        <time>2021-11-14T11:56:05Z</time>
      </trkpt>
      <trkpt lat="43.77632" lon="5.25577">
        <ele>262</ele>
        <time>2021-11-14T11:56:17Z</time>
      </trkpt>
      <trkpt lat="43.77628" lon="5.25575">
        <ele>262</ele>
        <time>2021-11-14T11:56:20Z</time>
      </trkpt>
      <trkpt lat="43.77625" lon="5.25574">
        <ele>260</ele>
        <time>2021-11-14T11:56:23Z</time>
      </trkpt>
      <trkpt lat="43.77618" lon="5.25569">
        <ele>259</ele>
        <time>2021-11-14T11:56:29Z</time>
      </trkpt>
      <trkpt lat="43.77614" lon="5.25566">
        <ele>258</ele>
        <time>2021-11-14T11:56:32Z</time>
      </trkpt>
      <trkpt lat="43.776" lon="5.25551">
        <ele>260</ele>
        <time>2021-11-14T11:56:44Z</time>
      </trkpt>
      <trkpt lat="43.77597" lon="5.25545">
        <ele>261</ele>
        <time>2021-11-14T11:56:47Z</time>
      </trkpt>
      <trkpt lat="43.77592" lon="5.25536">
        <ele>263</ele>
        <time>2021-11-14T11:56:53Z</time>
      </trkpt>
      <trkpt lat="43.77589" lon="5.25531">
        <ele>263</ele>
        <time>2021-11-14T11:56:56Z</time>
      </trkpt>
      <trkpt lat="43.77586" lon="5.25527">
        <ele>262</ele>
        <time>2021-11-14T11:56:59Z</time>
      </trkpt>
      <trkpt lat="43.7758" lon="5.25518">
        <ele>257</ele>
        <time>2021-11-14T11:57:05Z</time>
      </trkpt>
      <trkpt lat="43.77576" lon="5.25514">
        <ele>255</ele>
        <time>2021-11-14T11:57:08Z</time>
      </trkpt>
      <trkpt lat="43.77574" lon="5.25511">
        <ele>255</ele>
        <time>2021-11-14T11:57:10Z</time>
      </trkpt>
      <trkpt lat="43.77549" lon="5.25477">
        <ele>254</ele>
        <time>2021-11-14T11:57:34Z</time>
      </trkpt>
      <trkpt lat="43.77546" lon="5.25473">
        <ele>253</ele>
        <time>2021-11-14T11:57:37Z</time>
      </trkpt>
      <trkpt lat="43.77541" lon="5.25462">
        <ele>251</ele>
        <time>2021-11-14T11:57:43Z</time>
      </trkpt>
      <trkpt lat="43.77538" lon="5.25457">
        <ele>250</ele>
        <time>2021-11-14T11:57:46Z</time>
      </trkpt>
      <trkpt lat="43.77527" lon="5.25431">
        <ele>251</ele>
        <time>2021-11-14T11:58:01Z</time>
      </trkpt>
      <trkpt lat="43.77525" lon="5.25425">
        <ele>251</ele>
        <time>2021-11-14T11:58:04Z</time>
      </trkpt>
      <trkpt lat="43.77523" lon="5.25419">
        <ele>251</ele>
        <time>2021-11-14T11:58:07Z</time>
      </trkpt>
      <trkpt lat="43.7752" lon="5.25406">
        <ele>250</ele>
        <time>2021-11-14T11:58:13Z</time>
      </trkpt>
      <trkpt lat="43.7752" lon="5.254">
        <ele>250</ele>
        <time>2021-11-14T11:58:16Z</time>
      </trkpt>
      <trkpt lat="43.77521" lon="5.25393">
        <ele>254</ele>
        <time>2021-11-14T11:58:19Z</time>
      </trkpt>
      <trkpt lat="43.77521" lon="5.25387">
        <ele>254</ele>
        <time>2021-11-14T11:58:22Z</time>
      </trkpt>
      <trkpt lat="43.77516" lon="5.25369">
        <ele>253</ele>
        <time>2021-11-14T11:58:31Z</time>
      </trkpt>
      <trkpt lat="43.77514" lon="5.25357">
        <ele>253</ele>
        <time>2021-11-14T11:58:37Z</time>
      </trkpt>
      <trkpt lat="43.77514" lon="5.25351">
        <ele>252</ele>
        <time>2021-11-14T11:58:40Z</time>
      </trkpt>
      <trkpt lat="43.77512" lon="5.25326">
        <ele>250</ele>
        <time>2021-11-14T11:58:52Z</time>
      </trkpt>
      <trkpt lat="43.7751" lon="5.2532">
        <ele>249</ele>
        <time>2021-11-14T11:58:55Z</time>
      </trkpt>
      <trkpt lat="43.77509" lon="5.25314">
        <ele>248</ele>
        <time>2021-11-14T11:58:58Z</time>
      </trkpt>
      <trkpt lat="43.77507" lon="5.25309">
        <ele>249</ele>
        <time>2021-11-14T11:59:01Z</time>
      </trkpt>
      <trkpt lat="43.77506" lon="5.25303">
        <ele>250</ele>
        <time>2021-11-14T11:59:04Z</time>
      </trkpt>
      <trkpt lat="43.77505" lon="5.25298">
        <ele>248</ele>
        <time>2021-11-14T11:59:07Z</time>
      </trkpt>
      <trkpt lat="43.77502" lon="5.25274">
        <ele>244</ele>
        <time>2021-11-14T11:59:19Z</time>
      </trkpt>
      <trkpt lat="43.775" lon="5.25268">
        <ele>245</ele>
        <time>2021-11-14T11:59:22Z</time>
      </trkpt>
      <trkpt lat="43.77497" lon="5.25264">
        <ele>245</ele>
        <time>2021-11-14T11:59:25Z</time>
      </trkpt>
      <trkpt lat="43.77493" lon="5.25262">
        <ele>245</ele>
        <time>2021-11-14T11:59:28Z</time>
      </trkpt>
      <trkpt lat="43.77475" lon="5.25248">
        <ele>247</ele>
        <time>2021-11-14T11:59:43Z</time>
      </trkpt>
      <trkpt lat="43.77472" lon="5.25243">
        <ele>248</ele>
        <time>2021-11-14T11:59:46Z</time>
      </trkpt>
      <trkpt lat="43.77469" lon="5.25238">
        <ele>248</ele>
        <time>2021-11-14T11:59:49Z</time>
      </trkpt>
      <trkpt lat="43.77464" lon="5.25231">
        <ele>247</ele>
        <time>2021-11-14T11:59:54Z</time>
      </trkpt>
      <trkpt lat="43.77461" lon="5.25225">
        <ele>247</ele>
        <time>2021-11-14T11:59:57Z</time>
      </trkpt>
      <trkpt lat="43.77459" lon="5.2522">
        <ele>243</ele>
        <time>2021-11-14T12:00:00Z</time>
      </trkpt>
      <trkpt lat="43.77457" lon="5.25214">
        <ele>243</ele>
        <time>2021-11-14T12:00:03Z</time>
      </trkpt>
      <trkpt lat="43.77454" lon="5.2521">
        <ele>243</ele>
        <time>2021-11-14T12:00:06Z</time>
      </trkpt>
      <trkpt lat="43.77441" lon="5.25206">
        <ele>243</ele>
        <time>2021-11-14T12:00:15Z</time>
      </trkpt>
      <trkpt lat="43.77428" lon="5.25203">
        <ele>240</ele>
        <time>2021-11-14T12:00:24Z</time>
      </trkpt>
      <trkpt lat="43.77424" lon="5.25203">
        <ele>240</ele>
        <time>2021-11-14T12:00:27Z</time>
      </trkpt>
      <trkpt lat="43.77403" lon="5.25207">
        <ele>234</ele>
        <time>2021-11-14T12:00:41Z</time>
      </trkpt>
      <trkpt lat="43.77398" lon="5.25208">
        <ele>234</ele>
        <time>2021-11-14T12:00:44Z</time>
      </trkpt>
      <trkpt lat="43.77381" lon="5.25214">
        <ele>231</ele>
        <time>2021-11-14T12:00:56Z</time>
      </trkpt>
      <trkpt lat="43.7737" lon="5.25213">
        <ele>232</ele>
        <time>2021-11-14T12:01:03Z</time>
      </trkpt>
      <trkpt lat="43.77362" lon="5.25208">
        <ele>232</ele>
        <time>2021-11-14T12:01:09Z</time>
      </trkpt>
      <trkpt lat="43.77352" lon="5.25207">
        <ele>226</ele>
        <time>2021-11-14T12:01:16Z</time>
      </trkpt>
      <trkpt lat="43.77334" lon="5.25217">
        <ele>224</ele>
        <time>2021-11-14T12:01:30Z</time>
      </trkpt>
      <trkpt lat="43.77316" lon="5.25227">
        <ele>224</ele>
        <time>2021-11-14T12:01:42Z</time>
      </trkpt>
      <trkpt lat="43.77306" lon="5.25226">
        <ele>226</ele>
        <time>2021-11-14T12:01:49Z</time>
      </trkpt>
      <trkpt lat="43.77297" lon="5.25225">
        <ele>227</ele>
        <time>2021-11-14T12:01:55Z</time>
      </trkpt>
      <trkpt lat="43.77289" lon="5.25222">
        <ele>244</ele>
        <time>2021-11-14T12:02:01Z</time>
      </trkpt>
      <trkpt lat="43.7728" lon="5.2522">
        <ele>241</ele>
        <time>2021-11-14T12:02:07Z</time>
      </trkpt>
      <trkpt lat="43.77271" lon="5.25217">
        <ele>237</ele>
        <time>2021-11-14T12:02:13Z</time>
      </trkpt>
      <trkpt lat="43.77261" lon="5.25214">
        <ele>234</ele>
        <time>2021-11-14T12:02:19Z</time>
      </trkpt>
      <trkpt lat="43.77223" lon="5.25204">
        <ele>233</ele>
        <time>2021-11-14T12:02:43Z</time>
      </trkpt>
      <trkpt lat="43.77214" lon="5.25203">
        <ele>233</ele>
        <time>2021-11-14T12:02:49Z</time>
      </trkpt>
      <trkpt lat="43.77206" lon="5.25195">
        <ele>224</ele>
        <time>2021-11-14T12:02:56Z</time>
      </trkpt>
      <trkpt lat="43.77197" lon="5.2519">
        <ele>226</ele>
        <time>2021-11-14T12:03:02Z</time>
      </trkpt>
      <trkpt lat="43.77185" lon="5.2518">
        <ele>231</ele>
        <time>2021-11-14T12:03:11Z</time>
      </trkpt>
      <trkpt lat="43.77175" lon="5.25171">
        <ele>225</ele>
        <time>2021-11-14T12:03:20Z</time>
      </trkpt>
      <trkpt lat="43.77163" lon="5.25169">
        <ele>229</ele>
        <time>2021-11-14T12:03:29Z</time>
      </trkpt>
      <trkpt lat="43.77159" lon="5.2517">
        <ele>230</ele>
        <time>2021-11-14T12:03:32Z</time>
      </trkpt>
      <trkpt lat="43.77149" lon="5.25168">
        <ele>228</ele>
        <time>2021-11-14T12:03:38Z</time>
      </trkpt>
      <trkpt lat="43.77145" lon="5.25168">
        <ele>229</ele>
        <time>2021-11-14T12:03:41Z</time>
      </trkpt>
      <trkpt lat="43.77127" lon="5.25163">
        <ele>233</ele>
        <time>2021-11-14T12:03:53Z</time>
      </trkpt>
      <trkpt lat="43.77123" lon="5.25163">
        <ele>235</ele>
        <time>2021-11-14T12:03:56Z</time>
      </trkpt>
      <trkpt lat="43.77119" lon="5.25161">
        <ele>236</ele>
        <time>2021-11-14T12:03:59Z</time>
      </trkpt>
      <trkpt lat="43.77113" lon="5.25155">
        <ele>237</ele>
        <time>2021-11-14T12:04:05Z</time>
      </trkpt>
      <trkpt lat="43.77109" lon="5.25152">
        <ele>237</ele>
        <time>2021-11-14T12:04:08Z</time>
      </trkpt>
      <trkpt lat="43.77105" lon="5.2515">
        <ele>237</ele>
        <time>2021-11-14T12:04:11Z</time>
      </trkpt>
      <trkpt lat="43.771" lon="5.25142">
        <ele>237</ele>
        <time>2021-11-14T12:04:17Z</time>
      </trkpt>
      <trkpt lat="43.77095" lon="5.25136">
        <ele>237</ele>
        <time>2021-11-14T12:04:23Z</time>
      </trkpt>
      <trkpt lat="43.77091" lon="5.25133">
        <ele>240</ele>
        <time>2021-11-14T12:04:27Z</time>
      </trkpt>
      <trkpt lat="43.77088" lon="5.2513">
        <ele>241</ele>
        <time>2021-11-14T12:04:30Z</time>
      </trkpt>
      <trkpt lat="43.77086" lon="5.25127">
        <ele>243</ele>
        <time>2021-11-14T12:04:33Z</time>
      </trkpt>
      <trkpt lat="43.7708" lon="5.2512">
        <ele>243</ele>
        <time>2021-11-14T12:04:40Z</time>
      </trkpt>
      <trkpt lat="43.77076" lon="5.25118">
        <ele>244</ele>
        <time>2021-11-14T12:04:44Z</time>
      </trkpt>
      <trkpt lat="43.77073" lon="5.25116">
        <ele>245</ele>
        <time>2021-11-14T12:04:47Z</time>
      </trkpt>
      <trkpt lat="43.7706" lon="5.2511">
        <ele>248</ele>
        <time>2021-11-14T12:04:59Z</time>
      </trkpt>
      <trkpt lat="43.77041" lon="5.25103">
        <ele>248</ele>
        <time>2021-11-14T12:05:17Z</time>
      </trkpt>
      <trkpt lat="43.77032" lon="5.25104">
        <ele>249</ele>
        <time>2021-11-14T12:05:26Z</time>
      </trkpt>
      <trkpt lat="43.77022" lon="5.25106">
        <ele>251</ele>
        <time>2021-11-14T12:05:36Z</time>
      </trkpt>
      <trkpt lat="43.76995" lon="5.2512">
        <ele>253</ele>
        <time>2021-11-14T12:06:02Z</time>
      </trkpt>
      <trkpt lat="43.76985" lon="5.25119">
        <ele>254</ele>
        <time>2021-11-14T12:06:10Z</time>
      </trkpt>
      <trkpt lat="43.76978" lon="5.25112">
        <ele>250</ele>
        <time>2021-11-14T12:06:14Z</time>
      </trkpt>
      <trkpt lat="43.76967" lon="5.25104">
        <ele>249</ele>
        <time>2021-11-14T12:06:22Z</time>
      </trkpt>
      <trkpt lat="43.76955" lon="5.25101">
        <ele>250</ele>
        <time>2021-11-14T12:06:31Z</time>
      </trkpt>
      <trkpt lat="43.76947" lon="5.25102">
        <ele>250</ele>
        <time>2021-11-14T12:06:37Z</time>
      </trkpt>
      <trkpt lat="43.76939" lon="5.25101">
        <ele>250</ele>
        <time>2021-11-14T12:06:43Z</time>
      </trkpt>
      <trkpt lat="43.76935" lon="5.251">
        <ele>251</ele>
        <time>2021-11-14T12:06:46Z</time>
      </trkpt>
      <trkpt lat="43.76931" lon="5.25099">
        <ele>252</ele>
        <time>2021-11-14T12:06:49Z</time>
      </trkpt>
      <trkpt lat="43.76928" lon="5.25096">
        <ele>253</ele>
        <time>2021-11-14T12:06:51Z</time>
      </trkpt>
      <trkpt lat="43.76925" lon="5.25092">
        <ele>252</ele>
        <time>2021-11-14T12:06:54Z</time>
      </trkpt>
      <trkpt lat="43.76921" lon="5.25089">
        <ele>253</ele>
        <time>2021-11-14T12:06:57Z</time>
      </trkpt>
      <trkpt lat="43.7691" lon="5.25078">
        <ele>253</ele>
        <time>2021-11-14T12:07:06Z</time>
      </trkpt>
      <trkpt lat="43.76907" lon="5.25074">
        <ele>254</ele>
        <time>2021-11-14T12:07:09Z</time>
      </trkpt>
      <trkpt lat="43.7689" lon="5.25057">
        <ele>256</ele>
        <time>2021-11-14T12:07:23Z</time>
      </trkpt>
      <trkpt lat="43.76886" lon="5.25047">
        <ele>257</ele>
        <time>2021-11-14T12:07:29Z</time>
      </trkpt>
      <trkpt lat="43.76885" lon="5.25029">
        <ele>257</ele>
        <time>2021-11-14T12:07:38Z</time>
      </trkpt>
      <trkpt lat="43.76886" lon="5.25011">
        <ele>255</ele>
        <time>2021-11-14T12:07:47Z</time>
      </trkpt>
      <trkpt lat="43.76886" lon="5.25005">
        <ele>254</ele>
        <time>2021-11-14T12:07:50Z</time>
      </trkpt>
      <trkpt lat="43.76904" lon="5.24948">
        <ele>253</ele>
        <time>2021-11-14T12:08:20Z</time>
      </trkpt>
      <trkpt lat="43.76922" lon="5.24889">
        <ele>255</ele>
        <time>2021-11-14T12:08:50Z</time>
      </trkpt>
      <trkpt lat="43.76932" lon="5.24857">
        <ele>255</ele>
        <time>2021-11-14T12:09:07Z</time>
      </trkpt>
      <trkpt lat="43.76933" lon="5.24851">
        <ele>255</ele>
        <time>2021-11-14T12:09:10Z</time>
      </trkpt>
      <trkpt lat="43.76942" lon="5.24822">
        <ele>256</ele>
        <time>2021-11-14T12:09:25Z</time>
      </trkpt>
      <trkpt lat="43.76946" lon="5.24811">
        <ele>255</ele>
        <time>2021-11-14T12:09:31Z</time>
      </trkpt>
      <trkpt lat="43.76949" lon="5.248">
        <ele>256</ele>
        <time>2021-11-14T12:09:37Z</time>
      </trkpt>
      <trkpt lat="43.76952" lon="5.24795">
        <ele>254</ele>
        <time>2021-11-14T12:09:40Z</time>
      </trkpt>
      <trkpt lat="43.76955" lon="5.24784">
        <ele>254</ele>
        <time>2021-11-14T12:09:46Z</time>
      </trkpt>
      <trkpt lat="43.7696" lon="5.24775">
        <ele>253</ele>
        <time>2021-11-14T12:09:52Z</time>
      </trkpt>
      <trkpt lat="43.76966" lon="5.24766">
        <ele>252</ele>
        <time>2021-11-14T12:09:58Z</time>
      </trkpt>
      <trkpt lat="43.76973" lon="5.24751">
        <ele>252</ele>
        <time>2021-11-14T12:10:07Z</time>
      </trkpt>
      <trkpt lat="43.76975" lon="5.24745">
        <ele>252</ele>
        <time>2021-11-14T12:10:10Z</time>
      </trkpt>
      <trkpt lat="43.76978" lon="5.2474">
        <ele>252</ele>
        <time>2021-11-14T12:10:13Z</time>
      </trkpt>
      <trkpt lat="43.76979" lon="5.24734">
        <ele>252</ele>
        <time>2021-11-14T12:10:16Z</time>
      </trkpt>
      <trkpt lat="43.76975" lon="5.24697">
        <ele>250</ele>
        <time>2021-11-14T12:10:34Z</time>
      </trkpt>
      <trkpt lat="43.76974" lon="5.24673">
        <ele>251</ele>
        <time>2021-11-14T12:10:46Z</time>
      </trkpt>
      <trkpt lat="43.76972" lon="5.24667">
        <ele>251</ele>
        <time>2021-11-14T12:10:49Z</time>
      </trkpt>
      <trkpt lat="43.76967" lon="5.24649">
        <ele>251</ele>
        <time>2021-11-14T12:10:58Z</time>
      </trkpt>
      <trkpt lat="43.76964" lon="5.24643">
        <ele>251</ele>
        <time>2021-11-14T12:11:01Z</time>
      </trkpt>
      <trkpt lat="43.76961" lon="5.24639">
        <ele>250</ele>
        <time>2021-11-14T12:11:04Z</time>
      </trkpt>
      <trkpt lat="43.76954" lon="5.24636">
        <ele>248</ele>
        <time>2021-11-14T12:11:09Z</time>
      </trkpt>
      <trkpt lat="43.76949" lon="5.24635">
        <ele>249</ele>
        <time>2021-11-14T12:11:12Z</time>
      </trkpt>
      <trkpt lat="43.76941" lon="5.24627">
        <ele>250</ele>
        <time>2021-11-14T12:11:18Z</time>
      </trkpt>
      <trkpt lat="43.76934" lon="5.24618">
        <ele>250</ele>
        <time>2021-11-14T12:11:24Z</time>
      </trkpt>
      <trkpt lat="43.76919" lon="5.24606">
        <ele>253</ele>
        <time>2021-11-14T12:11:36Z</time>
      </trkpt>
      <trkpt lat="43.76913" lon="5.24597">
        <ele>251</ele>
        <time>2021-11-14T12:11:42Z</time>
      </trkpt>
      <trkpt lat="43.76903" lon="5.2459">
        <ele>250</ele>
        <time>2021-11-14T12:11:50Z</time>
      </trkpt>
      <trkpt lat="43.76895" lon="5.24578">
        <ele>248</ele>
        <time>2021-11-14T12:11:57Z</time>
      </trkpt>
      <trkpt lat="43.76875" lon="5.24568">
        <ele>244</ele>
        <time>2021-11-14T12:12:11Z</time>
      </trkpt>
      <trkpt lat="43.7687" lon="5.24566">
        <ele>244</ele>
        <time>2021-11-14T12:12:14Z</time>
      </trkpt>
      <trkpt lat="43.76867" lon="5.24562">
        <ele>244</ele>
        <time>2021-11-14T12:12:17Z</time>
      </trkpt>
      <trkpt lat="43.76864" lon="5.24558">
        <ele>244</ele>
        <time>2021-11-14T12:12:20Z</time>
      </trkpt>
      <trkpt lat="43.76862" lon="5.24554">
        <ele>245</ele>
        <time>2021-11-14T12:12:22Z</time>
      </trkpt>
      <trkpt lat="43.76856" lon="5.24544">
        <ele>246</ele>
        <time>2021-11-14T12:12:28Z</time>
      </trkpt>
      <trkpt lat="43.76851" lon="5.24532">
        <ele>245</ele>
        <time>2021-11-14T12:12:34Z</time>
      </trkpt>
      <trkpt lat="43.7684" lon="5.24512">
        <ele>243</ele>
        <time>2021-11-14T12:12:46Z</time>
      </trkpt>
      <trkpt lat="43.76839" lon="5.24507">
        <ele>242</ele>
        <time>2021-11-14T12:12:48Z</time>
      </trkpt>
      <trkpt lat="43.76833" lon="5.24483">
        <ele>241</ele>
        <time>2021-11-14T12:13:00Z</time>
      </trkpt>
      <trkpt lat="43.76834" lon="5.24476">
        <ele>239</ele>
        <time>2021-11-14T12:13:03Z</time>
      </trkpt>
      <trkpt lat="43.76833" lon="5.24471">
        <ele>238</ele>
        <time>2021-11-14T12:13:05Z</time>
      </trkpt>
      <trkpt lat="43.76833" lon="5.24464">
        <ele>238</ele>
        <time>2021-11-14T12:13:08Z</time>
      </trkpt>
      <trkpt lat="43.76834" lon="5.24459">
        <ele>238</ele>
        <time>2021-11-14T12:13:10Z</time>
      </trkpt>
      <trkpt lat="43.76835" lon="5.24455">
        <ele>239</ele>
        <time>2021-11-14T12:13:12Z</time>
      </trkpt>
      <trkpt lat="43.76838" lon="5.2445">
        <ele>238</ele>
        <time>2021-11-14T12:13:15Z</time>
      </trkpt>
      <trkpt lat="43.76843" lon="5.24441">
        <ele>237</ele>
        <time>2021-11-14T12:13:20Z</time>
      </trkpt>
      <trkpt lat="43.76846" lon="5.24436">
        <ele>236</ele>
        <time>2021-11-14T12:13:23Z</time>
      </trkpt>
      <trkpt lat="43.76846" lon="5.24418">
        <ele>239</ele>
        <time>2021-11-14T12:13:32Z</time>
      </trkpt>
      <trkpt lat="43.76846" lon="5.24412">
        <ele>240</ele>
        <time>2021-11-14T12:13:35Z</time>
      </trkpt>
      <trkpt lat="43.76843" lon="5.24408">
        <ele>240</ele>
        <time>2021-11-14T12:13:38Z</time>
      </trkpt>
      <trkpt lat="43.76835" lon="5.24397">
        <ele>241</ele>
        <time>2021-11-14T12:13:47Z</time>
      </trkpt>
      <trkpt lat="43.76831" lon="5.24393">
        <ele>241</ele>
        <time>2021-11-14T12:13:50Z</time>
      </trkpt>
      <trkpt lat="43.76827" lon="5.24384">
        <ele>242</ele>
        <time>2021-11-14T12:13:55Z</time>
      </trkpt>
      <trkpt lat="43.76823" lon="5.24381">
        <ele>243</ele>
        <time>2021-11-14T12:13:58Z</time>
      </trkpt>
      <trkpt lat="43.7682" lon="5.24377">
        <ele>244</ele>
        <time>2021-11-14T12:14:01Z</time>
      </trkpt>
      <trkpt lat="43.76817" lon="5.24372">
        <ele>246</ele>
        <time>2021-11-14T12:14:04Z</time>
      </trkpt>
      <trkpt lat="43.76817" lon="5.24366">
        <ele>244</ele>
        <time>2021-11-14T12:14:06Z</time>
      </trkpt>
      <trkpt lat="43.76816" lon="5.24361">
        <ele>243</ele>
        <time>2021-11-14T12:14:08Z</time>
      </trkpt>
      <trkpt lat="43.76815" lon="5.24356">
        <ele>242</ele>
        <time>2021-11-14T12:14:10Z</time>
      </trkpt>
      <trkpt lat="43.76813" lon="5.24347">
        <ele>242</ele>
        <time>2021-11-14T12:14:14Z</time>
      </trkpt>
      <trkpt lat="43.76812" lon="5.24342">
        <ele>242</ele>
        <time>2021-11-14T12:14:16Z</time>
      </trkpt>
      <trkpt lat="43.76812" lon="5.24336">
        <ele>242</ele>
        <time>2021-11-14T12:14:19Z</time>
      </trkpt>
      <trkpt lat="43.76807" lon="5.24318">
        <ele>238</ele>
        <time>2021-11-14T12:14:28Z</time>
      </trkpt>
      <trkpt lat="43.76806" lon="5.24313">
        <ele>236</ele>
        <time>2021-11-14T12:14:31Z</time>
      </trkpt>
      <trkpt lat="43.76797" lon="5.24301">
        <ele>232</ele>
        <time>2021-11-14T12:14:40Z</time>
      </trkpt>
      <trkpt lat="43.76793" lon="5.24297">
        <ele>232</ele>
        <time>2021-11-14T12:14:43Z</time>
      </trkpt>
      <trkpt lat="43.76778" lon="5.24273">
        <ele>235</ele>
        <time>2021-11-14T12:14:58Z</time>
      </trkpt>
      <trkpt lat="43.76775" lon="5.24263">
        <ele>234</ele>
        <time>2021-11-14T12:15:03Z</time>
      </trkpt>
      <trkpt lat="43.76772" lon="5.24251">
        <ele>231</ele>
        <time>2021-11-14T12:15:09Z</time>
      </trkpt>
      <trkpt lat="43.76769" lon="5.24247">
        <ele>231</ele>
        <time>2021-11-14T12:15:12Z</time>
      </trkpt>
      <trkpt lat="43.76765" lon="5.24246">
        <ele>229</ele>
        <time>2021-11-14T12:15:15Z</time>
      </trkpt>
      <trkpt lat="43.76759" lon="5.24252">
        <ele>227</ele>
        <time>2021-11-14T12:15:21Z</time>
      </trkpt>
      <trkpt lat="43.76757" lon="5.24257">
        <ele>227</ele>
        <time>2021-11-14T12:15:24Z</time>
      </trkpt>
      <trkpt lat="43.7675" lon="5.24268">
        <ele>226</ele>
        <time>2021-11-14T12:15:33Z</time>
      </trkpt>
      <trkpt lat="43.76746" lon="5.24272">
        <ele>225</ele>
        <time>2021-11-14T12:15:37Z</time>
      </trkpt>
      <trkpt lat="43.76744" lon="5.24276">
        <ele>223</ele>
        <time>2021-11-14T12:15:40Z</time>
      </trkpt>
      <trkpt lat="43.76737" lon="5.2428">
        <ele>222</ele>
        <time>2021-11-14T12:15:46Z</time>
      </trkpt>
      <trkpt lat="43.76732" lon="5.24278">
        <ele>222</ele>
        <time>2021-11-14T12:15:49Z</time>
      </trkpt>
      <trkpt lat="43.7673" lon="5.24274">
        <ele>222</ele>
        <time>2021-11-14T12:15:51Z</time>
      </trkpt>
      <trkpt lat="43.76731" lon="5.24264">
        <ele>220</ele>
        <time>2021-11-14T12:15:56Z</time>
      </trkpt>
      <trkpt lat="43.76734" lon="5.24258">
        <ele>220</ele>
        <time>2021-11-14T12:15:59Z</time>
      </trkpt>
      <trkpt lat="43.76739" lon="5.24247">
        <ele>219</ele>
        <time>2021-11-14T12:16:05Z</time>
      </trkpt>
      <trkpt lat="43.76737" lon="5.24242">
        <ele>218</ele>
        <time>2021-11-14T12:16:08Z</time>
      </trkpt>
      <trkpt lat="43.76731" lon="5.24236">
        <ele>217</ele>
        <time>2021-11-14T12:16:14Z</time>
      </trkpt>
      <trkpt lat="43.76727" lon="5.24234">
        <ele>216</ele>
        <time>2021-11-14T12:16:17Z</time>
      </trkpt>
      <trkpt lat="43.7672" lon="5.24234">
        <ele>218</ele>
        <time>2021-11-14T12:16:23Z</time>
      </trkpt>
      <trkpt lat="43.76716" lon="5.24234">
        <ele>217</ele>
        <time>2021-11-14T12:16:26Z</time>
      </trkpt>
      <trkpt lat="43.76712" lon="5.24235">
        <ele>217</ele>
        <time>2021-11-14T12:16:29Z</time>
      </trkpt>
      <trkpt lat="43.76707" lon="5.24235">
        <ele>215</ele>
        <time>2021-11-14T12:16:33Z</time>
      </trkpt>
      <trkpt lat="43.76704" lon="5.24232">
        <ele>211</ele>
        <time>2021-11-14T12:16:36Z</time>
      </trkpt>
      <trkpt lat="43.767" lon="5.2423">
        <ele>210</ele>
        <time>2021-11-14T12:16:39Z</time>
      </trkpt>
      <trkpt lat="43.76696" lon="5.24228">
        <ele>211</ele>
        <time>2021-11-14T12:16:42Z</time>
      </trkpt>
      <trkpt lat="43.76692" lon="5.24226">
        <ele>211</ele>
        <time>2021-11-14T12:16:46Z</time>
      </trkpt>
      <trkpt lat="43.76689" lon="5.24226">
        <ele>210</ele>
        <time>2021-11-14T12:16:49Z</time>
      </trkpt>
      <trkpt lat="43.76685" lon="5.24224">
        <ele>210</ele>
        <time>2021-11-14T12:16:52Z</time>
      </trkpt>
      <trkpt lat="43.7667" lon="5.24218">
        <ele>207</ele>
        <time>2021-11-14T12:17:04Z</time>
      </trkpt>
      <trkpt lat="43.76661" lon="5.24206">
        <ele>204</ele>
        <time>2021-11-14T12:17:13Z</time>
      </trkpt>
      <trkpt lat="43.76657" lon="5.24194">
        <ele>202</ele>
        <time>2021-11-14T12:17:19Z</time>
      </trkpt>
      <trkpt lat="43.76654" lon="5.24191">
        <ele>202</ele>
        <time>2021-11-14T12:17:22Z</time>
      </trkpt>
      <trkpt lat="43.76652" lon="5.24185">
        <ele>201</ele>
        <time>2021-11-14T12:17:25Z</time>
      </trkpt>
      <trkpt lat="43.7665" lon="5.2418">
        <ele>202</ele>
        <time>2021-11-14T12:17:28Z</time>
      </trkpt>
      <trkpt lat="43.76648" lon="5.24176">
        <ele>201</ele>
        <time>2021-11-14T12:17:31Z</time>
      </trkpt>
      <trkpt lat="43.76645" lon="5.24172">
        <ele>200</ele>
        <time>2021-11-14T12:17:34Z</time>
      </trkpt>
      <trkpt lat="43.76643" lon="5.24167">
        <ele>200</ele>
        <time>2021-11-14T12:17:37Z</time>
      </trkpt>
      <trkpt lat="43.76642" lon="5.24156">
        <ele>202</ele>
        <time>2021-11-14T12:17:43Z</time>
      </trkpt>
      <trkpt lat="43.76639" lon="5.24151">
        <ele>203</ele>
        <time>2021-11-14T12:17:46Z</time>
      </trkpt>
      <trkpt lat="43.76635" lon="5.2414">
        <ele>202</ele>
        <time>2021-11-14T12:17:52Z</time>
      </trkpt>
      <trkpt lat="43.76633" lon="5.24135">
        <ele>202</ele>
        <time>2021-11-14T12:17:55Z</time>
      </trkpt>
      <trkpt lat="43.76622" lon="5.24133">
        <ele>202</ele>
        <time>2021-11-14T12:18:05Z</time>
      </trkpt>
      <trkpt lat="43.76619" lon="5.24132">
        <ele>202</ele>
        <time>2021-11-14T12:18:08Z</time>
      </trkpt>
      <trkpt lat="43.76613" lon="5.24124">
        <ele>202</ele>
        <time>2021-11-14T12:18:15Z</time>
      </trkpt>
      <trkpt lat="43.7661" lon="5.2412">
        <ele>202</ele>
        <time>2021-11-14T12:18:18Z</time>
      </trkpt>
      <trkpt lat="43.76607" lon="5.24115">
        <ele>199</ele>
        <time>2021-11-14T12:18:22Z</time>
      </trkpt>
      <trkpt lat="43.76605" lon="5.24111">
        <ele>198</ele>
        <time>2021-11-14T12:18:25Z</time>
      </trkpt>
      <trkpt lat="43.76602" lon="5.24108">
        <ele>198</ele>
        <time>2021-11-14T12:18:28Z</time>
      </trkpt>
      <trkpt lat="43.76601" lon="5.24102">
        <ele>197</ele>
        <time>2021-11-14T12:18:31Z</time>
      </trkpt>
      <trkpt lat="43.76598" lon="5.241">
        <ele>197</ele>
        <time>2021-11-14T12:18:34Z</time>
      </trkpt>
      <trkpt lat="43.76593" lon="5.2408">
        <ele>195</ele>
        <time>2021-11-14T12:18:45Z</time>
      </trkpt>
      <trkpt lat="43.76591" lon="5.24075">
        <ele>195</ele>
        <time>2021-11-14T12:18:48Z</time>
      </trkpt>
      <trkpt lat="43.76589" lon="5.24069">
        <ele>194</ele>
        <time>2021-11-14T12:18:51Z</time>
      </trkpt>
      <trkpt lat="43.76588" lon="5.24065">
        <ele>195</ele>
        <time>2021-11-14T12:18:54Z</time>
      </trkpt>
      <trkpt lat="43.76585" lon="5.24062">
        <ele>195</ele>
        <time>2021-11-14T12:18:58Z</time>
      </trkpt>
      <trkpt lat="43.7658" lon="5.2406">
        <ele>194</ele>
        <time>2021-11-14T12:19:02Z</time>
      </trkpt>
      <trkpt lat="43.76554" lon="5.24044">
        <ele>183</ele>
        <time>2021-11-14T12:19:24Z</time>
      </trkpt>
      <trkpt lat="43.76547" lon="5.24037">
        <ele>182</ele>
        <time>2021-11-14T12:19:30Z</time>
      </trkpt>
      <trkpt lat="43.76543" lon="5.24033">
        <ele>182</ele>
        <time>2021-11-14T12:19:33Z</time>
      </trkpt>
      <trkpt lat="43.76539" lon="5.24033">
        <ele>182</ele>
        <time>2021-11-14T12:19:36Z</time>
      </trkpt>
      <trkpt lat="43.76534" lon="5.2403">
        <ele>182</ele>
        <time>2021-11-14T12:19:39Z</time>
      </trkpt>
      <trkpt lat="43.76526" lon="5.24027">
        <ele>181</ele>
        <time>2021-11-14T12:19:44Z</time>
      </trkpt>
      <trkpt lat="43.76518" lon="5.24025">
        <ele>182</ele>
        <time>2021-11-14T12:19:50Z</time>
      </trkpt>
      <trkpt lat="43.76514" lon="5.24025">
        <ele>183</ele>
        <time>2021-11-14T12:19:53Z</time>
      </trkpt>
      <trkpt lat="43.76509" lon="5.24025">
        <ele>183</ele>
        <time>2021-11-14T12:19:56Z</time>
      </trkpt>
      <trkpt lat="43.76506" lon="5.24025">
        <ele>181</ele>
        <time>2021-11-14T12:19:59Z</time>
      </trkpt>
      <trkpt lat="43.76502" lon="5.24026">
        <ele>180</ele>
        <time>2021-11-14T12:20:02Z</time>
      </trkpt>
      <trkpt lat="43.76498" lon="5.24024">
        <ele>178</ele>
        <time>2021-11-14T12:20:05Z</time>
      </trkpt>
      <trkpt lat="43.76493" lon="5.24024">
        <ele>178</ele>
        <time>2021-11-14T12:20:08Z</time>
      </trkpt>
      <trkpt lat="43.76489" lon="5.24023">
        <ele>177</ele>
        <time>2021-11-14T12:20:11Z</time>
      </trkpt>
      <trkpt lat="43.76484" lon="5.24023">
        <ele>176</ele>
        <time>2021-11-14T12:20:14Z</time>
      </trkpt>
      <trkpt lat="43.76479" lon="5.24023">
        <ele>176</ele>
        <time>2021-11-14T12:20:17Z</time>
      </trkpt>
      <trkpt lat="43.76475" lon="5.24022">
        <ele>178</ele>
        <time>2021-11-14T12:20:20Z</time>
      </trkpt>
      <trkpt lat="43.76471" lon="5.24022">
        <ele>177</ele>
        <time>2021-11-14T12:20:23Z</time>
      </trkpt>
      <trkpt lat="43.76454" lon="5.2402">
        <ele>178</ele>
        <time>2021-11-14T12:20:34Z</time>
      </trkpt>
      <trkpt lat="43.76451" lon="5.24019">
        <ele>178</ele>
        <time>2021-11-14T12:20:36Z</time>
      </trkpt>
      <trkpt lat="43.76443" lon="5.24017">
        <ele>177</ele>
        <time>2021-11-14T12:20:41Z</time>
      </trkpt>
      <trkpt lat="43.76439" lon="5.24016">
        <ele>176</ele>
        <time>2021-11-14T12:20:44Z</time>
      </trkpt>
      <trkpt lat="43.76428" lon="5.24013">
        <ele>179</ele>
        <time>2021-11-14T12:20:51Z</time>
      </trkpt>
      <trkpt lat="43.76392" lon="5.23997">
        <ele>177</ele>
        <time>2021-11-14T12:21:15Z</time>
      </trkpt>
      <trkpt lat="43.76384" lon="5.23994">
        <ele>176</ele>
        <time>2021-11-14T12:21:21Z</time>
      </trkpt>
      <trkpt lat="43.7638" lon="5.23991">
        <ele>178</ele>
        <time>2021-11-14T12:21:24Z</time>
      </trkpt>
      <trkpt lat="43.76376" lon="5.2399">
        <ele>177</ele>
        <time>2021-11-14T12:21:27Z</time>
      </trkpt>
      <trkpt lat="43.76361" lon="5.23981">
        <ele>176</ele>
        <time>2021-11-14T12:21:38Z</time>
      </trkpt>
      <trkpt lat="43.76357" lon="5.23979">
        <ele>175</ele>
        <time>2021-11-14T12:21:41Z</time>
      </trkpt>
      <trkpt lat="43.76353" lon="5.23978">
        <ele>173</ele>
        <time>2021-11-14T12:21:44Z</time>
      </trkpt>
      <trkpt lat="43.76346" lon="5.23972">
        <ele>175</ele>
        <time>2021-11-14T12:21:50Z</time>
      </trkpt>
      <trkpt lat="43.76341" lon="5.23969">
        <ele>175</ele>
        <time>2021-11-14T12:21:53Z</time>
      </trkpt>
      <trkpt lat="43.76321" lon="5.23959">
        <ele>173</ele>
        <time>2021-11-14T12:22:08Z</time>
      </trkpt>
      <trkpt lat="43.76317" lon="5.23959">
        <ele>174</ele>
        <time>2021-11-14T12:22:11Z</time>
      </trkpt>
      <trkpt lat="43.76313" lon="5.23957">
        <ele>174</ele>
        <time>2021-11-14T12:22:14Z</time>
      </trkpt>
      <trkpt lat="43.76281" lon="5.23955">
        <ele>174</ele>
        <time>2021-11-14T12:22:37Z</time>
      </trkpt>
      <trkpt lat="43.76273" lon="5.23952">
        <ele>175</ele>
        <time>2021-11-14T12:22:43Z</time>
      </trkpt>
      <trkpt lat="43.76265" lon="5.23947">
        <ele>175</ele>
        <time>2021-11-14T12:22:48Z</time>
      </trkpt>
      <trkpt lat="43.76262" lon="5.23943">
        <ele>176</ele>
        <time>2021-11-14T12:22:51Z</time>
      </trkpt>
      <trkpt lat="43.76259" lon="5.23937">
        <ele>176</ele>
        <time>2021-11-14T12:22:54Z</time>
      </trkpt>
      <trkpt lat="43.76258" lon="5.23933">
        <ele>175</ele>
        <time>2021-11-14T12:22:56Z</time>
      </trkpt>
      <trkpt lat="43.76255" lon="5.2393">
        <ele>175</ele>
        <time>2021-11-14T12:22:58Z</time>
      </trkpt>
      <trkpt lat="43.76249" lon="5.23913">
        <ele>175</ele>
        <time>2021-11-14T12:23:07Z</time>
      </trkpt>
      <trkpt lat="43.76244" lon="5.23896">
        <ele>174</ele>
        <time>2021-11-14T12:23:16Z</time>
      </trkpt>
      <trkpt lat="43.76242" lon="5.23891">
        <ele>173</ele>
        <time>2021-11-14T12:23:19Z</time>
      </trkpt>
      <trkpt lat="43.7624" lon="5.23886">
        <ele>172</ele>
        <time>2021-11-14T12:23:22Z</time>
      </trkpt>
      <trkpt lat="43.76237" lon="5.23881">
        <ele>172</ele>
        <time>2021-11-14T12:23:25Z</time>
      </trkpt>
      <trkpt lat="43.76233" lon="5.23879">
        <ele>171</ele>
        <time>2021-11-14T12:23:28Z</time>
      </trkpt>
      <trkpt lat="43.76217" lon="5.23877">
        <ele>173</ele>
        <time>2021-11-14T12:23:40Z</time>
      </trkpt>
      <trkpt lat="43.76204" lon="5.23878">
        <ele>169</ele>
        <time>2021-11-14T12:23:49Z</time>
      </trkpt>
      <trkpt lat="43.762" lon="5.23878">
        <ele>167</ele>
        <time>2021-11-14T12:23:52Z</time>
      </trkpt>
      <trkpt lat="43.76192" lon="5.23877">
        <ele>166</ele>
        <time>2021-11-14T12:23:58Z</time>
      </trkpt>
      <trkpt lat="43.76188" lon="5.23876">
        <ele>166</ele>
        <time>2021-11-14T12:24:01Z</time>
      </trkpt>
      <trkpt lat="43.76152" lon="5.23859">
        <ele>164</ele>
        <time>2021-11-14T12:24:28Z</time>
      </trkpt>
      <trkpt lat="43.76111" lon="5.2384">
        <ele>159</ele>
        <time>2021-11-14T12:24:58Z</time>
      </trkpt>
      <trkpt lat="43.76091" lon="5.23829">
        <ele>159</ele>
        <time>2021-11-14T12:25:13Z</time>
      </trkpt>
      <trkpt lat="43.76061" lon="5.23806">
        <ele>159</ele>
        <time>2021-11-14T12:25:37Z</time>
      </trkpt>
      <trkpt lat="43.76057" lon="5.23805">
        <ele>160</ele>
        <time>2021-11-14T12:25:40Z</time>
      </trkpt>
      <trkpt lat="43.76045" lon="5.23795">
        <ele>160</ele>
        <time>2021-11-14T12:25:49Z</time>
      </trkpt>
      <trkpt lat="43.76042" lon="5.23794">
        <ele>161</ele>
        <time>2021-11-14T12:25:51Z</time>
      </trkpt>
      <trkpt lat="43.76025" lon="5.23784">
        <ele>161</ele>
        <time>2021-11-14T12:26:03Z</time>
      </trkpt>
      <trkpt lat="43.76014" lon="5.23776">
        <ele>161</ele>
        <time>2021-11-14T12:26:12Z</time>
      </trkpt>
      <trkpt lat="43.75995" lon="5.23762">
        <ele>158</ele>
        <time>2021-11-14T12:26:27Z</time>
      </trkpt>
      <trkpt lat="43.75991" lon="5.23759">
        <ele>159</ele>
        <time>2021-11-14T12:26:30Z</time>
      </trkpt>
      <trkpt lat="43.75987" lon="5.23759">
        <ele>162</ele>
        <time>2021-11-14T12:26:33Z</time>
      </trkpt>
      <trkpt lat="43.75972" lon="5.23748">
        <ele>162</ele>
        <time>2021-11-14T12:26:45Z</time>
      </trkpt>
      <trkpt lat="43.75965" lon="5.23742">
        <ele>160</ele>
        <time>2021-11-14T12:26:51Z</time>
      </trkpt>
      <trkpt lat="43.75962" lon="5.23739">
        <ele>160</ele>
        <time>2021-11-14T12:26:54Z</time>
      </trkpt>
      <trkpt lat="43.75957" lon="5.2373">
        <ele>158</ele>
        <time>2021-11-14T12:27:00Z</time>
      </trkpt>
      <trkpt lat="43.75946" lon="5.23719">
        <ele>159</ele>
        <time>2021-11-14T12:27:09Z</time>
      </trkpt>
      <trkpt lat="43.75938" lon="5.23706">
        <ele>157</ele>
        <time>2021-11-14T12:27:17Z</time>
      </trkpt>
      <trkpt lat="43.75929" lon="5.23693">
        <ele>155</ele>
        <time>2021-11-14T12:27:26Z</time>
      </trkpt>
      <trkpt lat="43.75925" lon="5.23691">
        <ele>158</ele>
        <time>2021-11-14T12:27:29Z</time>
      </trkpt>
      <trkpt lat="43.75919" lon="5.23685">
        <ele>158</ele>
        <time>2021-11-14T12:27:34Z</time>
      </trkpt>
      <trkpt lat="43.75916" lon="5.23682">
        <ele>158</ele>
        <time>2021-11-14T12:27:36Z</time>
      </trkpt>
      <trkpt lat="43.75912" lon="5.23677">
        <ele>158</ele>
        <time>2021-11-14T12:27:39Z</time>
      </trkpt>
      <trkpt lat="43.75889" lon="5.23651">
        <ele>156</ele>
        <time>2021-11-14T12:27:59Z</time>
      </trkpt>
      <trkpt lat="43.75882" lon="5.23643">
        <ele>157</ele>
        <time>2021-11-14T12:28:05Z</time>
      </trkpt>
      <trkpt lat="43.7588" lon="5.23637">
        <ele>158</ele>
        <time>2021-11-14T12:28:08Z</time>
      </trkpt>
      <trkpt lat="43.7588" lon="5.23618">
        <ele>154</ele>
        <time>2021-11-14T12:28:15Z</time>
      </trkpt>
      <trkpt lat="43.7588" lon="5.236">
        <ele>151</ele>
        <time>2021-11-14T12:28:23Z</time>
      </trkpt>
      <trkpt lat="43.75879" lon="5.23593">
        <ele>151</ele>
        <time>2021-11-14T12:28:26Z</time>
      </trkpt>
      <trkpt lat="43.75877" lon="5.23589">
        <ele>150</ele>
        <time>2021-11-14T12:28:29Z</time>
      </trkpt>
    </trkseg>
  </trk>
</gpx>